GFSWCAN_500_temp_024.txt.gz
Temp
-18 -18 -18 -19 -19 -19 -18 -18 -18 -19 -20 -20 -20 -21 -21 -22 -22 -23 -23 -24 -24 -25 -25 -25 -25 -25 -25 -25 -25 -25 -25 -25 -25 -24 -24 -24 -23 -22 -21 -20 -19 -17 -16 -13 -13 -13 -9 -7 -7 -9 -6 -6 -6 -6
-18 -18 -19 -19 -18 -19 -19 -18 -18 -19 -20 -20 -19 -20 -20 -21 -22 -22 -22 -23 -23 -23 -24 -24 -24 -25 -25 -25 -25 -25 -25 -25 -25 -24 -24 -24 -23 -23 -22 -20 -20 -18 -16 -15 -14 -12 -11 -10 -11 -10 -8 -8 -7 -7
-18 -18 -18 -19 -19 -19 -19 -18 -18 -19 -19 -20 -20 -19 -20 -20 -21 -21 -21 -22 -22 -22 -22 -23 -23 -23 -24 -24 -24 -24 -24 -24 -24 -24 -23 -22 -22 -22 -22 -22 -21 -20 -19 -16 -15 -13 -12 -12 -12 -11 -10 -10 -9 -8
-18 -18 -18 -18 -19 -19 -19 -18 -18 -18 -18 -19 -19 -19 -19 -19 -20 -20 -21 -21 -22 -22 -23 -22 -23 -23 -23 -23 -23 -23 -23 -23 -22 -22 -22 -22 -22 -22 -21 -21 -21 -21 -21 -18 -16 -13 -13 -13 -12 -13 -12 -11 -11 -11
-18 -18 -18 -18 -19 -19 -19 -18 -17 -17 -18 -18 -19 -19 -19 -18 -19 -19 -20 -20 -21 -21 -21 -21 -22 -23 -23 -22 -21 -21 -21 -21 -21 -21 -22 -21 -21 -20 -20 -20 -19 -20 -20 -19 -17 -15 -13 -14 -13 -13 -13 -12 -11 -11
-18 -18 -18 -18 -18 -19 -19 -18 -17 -17 -18 -18 -18 -19 -18 -18 -18 -18 -19 -19 -20 -20 -20 -21 -20 -21 -20 -20 -20 -21 -21 -21 -21 -20 -20 -20 -20 -20 -19 -18 -18 -18 -20 -19 -18 -16 -14 -14 -13 -13 -13 -11 -12 -11
-18 -17 -18 -18 -18 -18 -18 -18 -17 -17 -17 -18 -18 -18 -18 -18 -18 -18 -18 -19 -19 -19 -20 -20 -20 -20 -20 -20 -20 -20 -20 -21 -21 -20 -19 -19 -18 -18 -17 -16 -16 -17 -18 -17 -17 -17 -15 -14 -13 -13 -13 -12 -11 -11
-17 -17 -18 -18 -18 -18 -18 -18 -16 -17 -17 -17 -18 -18 -18 -18 -17 -17 -18 -18 -18 -18 -19 -19 -19 -19 -19 -19 -20 -20 -20 -19 -19 -18 -18 -17 -17 -16 -16 -16 -16 -16 -16 -17 -16 -15 -15 -15 -14 -12 -12 -11 -11 -11
-17 -17 -18 -18 -18 -18 -18 -17 -16 -16 -16 -17 -17 -18 -18 -18 -17 -17 -17 -17 -18 -18 -18 -18 -18 -18 -18 -18 -19 -18 -18 -18 -18 -17 -17 -17 -16 -16 -16 -15 -14 -16 -15 -15 -14 -14 -13 -14 -14 -10 -12 -11 -11 -12
-17 -18 -18 -18 -19 -19 -18 -18 -17 -16 -16 -17 -18 -18 -17 -17 -17 -17 -17 -17 -17 -17 -17 -17 -17 -18 -18 -18 -18 -18 -17 -17 -17 -17 -17 -16 -16 -16 -15 -15 -16 -16 -15 -15 -15 -14 -14 -13 -13 -13 -11 -11 -11 -12
-17 -18 -18 -19 -19 -19 -18 -18 -17 -17 -17 -16 -18 -17 -17 -17 -16 -16 -16 -17 -18 -17 -17 -17 -17 -17 -17 -17 -17 -17 -17 -17 -17 -17 -17 -16 -16 -16 -16 -15 -15 -14 -13 -14 -14 -14 -13 -13 -12 -12 -12 -12 -12 -12
-17 -18 -18 -19 -19 -18 -17 -17 -17 -17 -16 -16 -17 -17 -15 -15 -16 -16 -17 -17 -17 -17 -17 -17 -17 -17 -17 -17 -17 -17 -17 -17 -17 -16 -16 -16 -16 -15 -15 -15 -14 -14 -14 -14 -15 -14 -14 -14 -14 -13 -13 -13 -13 -12
-17 -18 -18 -19 -19 -18 -18 -18 -18 -16 -16 -18 -16 -15 -15 -15 -16 -16 -17 -17 -17 -17 -17 -17 -17 -17 -17 -17 -17 -17 -17 -17 -17 -17 -17 -16 -16 -16 -15 -15 -15 -14 -14 -14 -14 -14 -14 -13 -13 -13 -13 -12 -12 -13
-17 -18 -18 -19 -19 -18 -18 -18 -18 -17 -18 -17 -15 -15 -16 -16 -17 -17 -17 -17 -17 -17 -17 -17 -17 -17 -17 -17 -17 -17 -17 -17 -17 -17 -17 -17 -16 -16 -15 -15 -15 -15 -15 -14 -15 -14 -14 -14 -14 -14 -14 -14 -14 -13
-17 -18 -18 -18 -19 -19 -18 -18 -18 -18 -18 -16 -15 -16 -17 -17 -17 -17 -17 -17 -17 -17 -17 -17 -17 -17 -17 -17 -17 -17 -17 -17 -17 -17 -18 -17 -17 -16 -16 -16 -16 -16 -15 -15 -15 -15 -14 -14 -14 -14 -14 -14 -14 -13
-17 -18 -18 -18 -18 -18 -18 -18 -18 -19 -17 -16 -16 -17 -17 -17 -17 -17 -17 -17 -17 -17 -17 -17 -17 -17 -16 -16 -17 -17 -17 -17 -17 -17 -17 -17 -17 -17 -17 -17 -17 -16 -16 -16 -16 -15 -15 -15 -15 -14 -15 -15 -14 -15
-17 -18 -17 -18 -18 -17 -17 -18 -18 -17 -16 -16 -16 -17 -17 -17 -16 -16 -16 -17 -17 -18 -18 -18 -16 -16 -16 -17 -17 -18 -18 -18 -18 -18 -18 -17 -17 -17 -17 -17 -17 -18 -18 -17 -16 -17 -16 -16 -16 -16 -16 -15 -15 -15
-17 -17 -17 -17 -17 -18 -18 -18 -18 -17 -17 -17 -17 -17 -17 -17 -17 -17 -17 -17 -18 -18 -18 -17 -17 -16 -16 -16 -17 -18 -18 -18 -18 -18 -18 -18 -18 -17 -17 -17 -18 -18 -17 -17 -17 -17 -17 -18 -18 -18 -17 -17 -17 -17
-17 -17 -17 -17 -17 -17 -18 -18 -18 -17 -17 -18 -18 -18 -18 -17 -17 -17 -17 -18 -17 -18 -18 -18 -18 -17 -17 -17 -18 -18 -18 -18 -18 -18 -18 -18 -18 -18 -18 -17 -17 -17 -17 -17 -17 -17 -18 -17 -17 -17 -17 -17 -17 -17
-17 -17 -17 -17 -17 -17 -18 -18 -18 -18 -18 -18 -18 -18 -18 -18 -17 -18 -18 -19 -18 -19 -19 -18 -18 -18 -18 -18 -18 -18 -18 -18 -18 -18 -18 -18 -19 -18 -18 -18 -18 -17 -17 -17 -17 -18 -18 -18 -18 -18 -18 -18 -18 -18
-17 -17 -17 -17 -17 -18 -18 -17 -17 -17 -17 -18 -18 -18 -18 -18 -18 -19 -19 -19 -18 -18 -18 -18 -18 -18 -18 -18 -19 -19 -19 -19 -19 -19 -19 -19 -19 -19 -19 -18 -18 -18 -18 -17 -18 -18 -17 -18 -18 -18 -18 -18 -18 -18
-18 -18 -18 -18 -18 -18 -18 -18 -18 -18 -18 -18 -18 -18 -18 -18 -19 -19 -19 -19 -19 -19 -18 -18 -18 -18 -18 -18 -19 -19 -19 -20 -20 -20 -20 -19 -19 -18 -18 -18 -18 -18 -18 -18 -19 -19 -19 -18 -18 -17 -17 -17 -17 -17
-18 -18 -17 -17 -17 -18 -18 -18 -18 -18 -18 -18 -18 -18 -18 -19 -19 -19 -19 -19 -19 -19 -19 -19 -19 -19 -19 -19 -19 -19 -19 -19 -20 -20 -20 -19 -19 -19 -19 -18 -19 -19 -19 -19 -19 -18 -19 -19 -18 -18 -18 -18 -18 -18
-17 -17 -17 -17 -17 -17 -17 -17 -18 -18 -18 -18 -18 -18 -18 -19 -19 -19 -19 -19 -20 -20 -20 -20 -20 -20 -20 -20 -20 -21 -20 -20 -20 -20 -20 -20 -20 -20 -20 -20 -20 -20 -20 -20 -20 -20 -19 -19 -19 -19 -19 -19 -19 -20
-16 -17 -17 -17 -17 -17 -17 -17 -18 -18 -18 -18 -18 -18 -18 -19 -19 -19 -19 -20 -20 -20 -20 -20 -20 -20 -20 -20 -21 -21 -21 -21 -21 -21 -21 -21 -20 -20 -20 -20 -20 -20 -21 -21 -20 -20 -20 -20 -20 -20 -20 -20 -20 -20
-17 -17 -17 -17 -17 -17 -17 -18 -18 -18 -18 -18 -18 -18 -18 -19 -19 -19 -20 -20 -20 -20 -20 -20 -21 -21 -21 -21 -21 -21 -21 -21 -21 -21 -21 -21 -21 -21 -21 -21 -21 -21 -21 -21 -20 -20 -20 -20 -21 -21 -21 -21 -21 -21
-17 -17 -17 -17 -17 -18 -18 -18 -18 -18 -18 -18 -18 -19 -19 -19 -19 -19 -20 -20 -20 -20 -21 -21 -21 -21 -21 -21 -21 -21 -21 -21 -21 -21 -21 -22 -22 -22 -22 -22 -22 -22 -22 -22 -22 -22 -22 -22 -22 -22 -21 -22 -22 -22
-17 -17 -17 -17 -18 -18 -18 -18 -18 -18 -18 -18 -18 -19 -19 -19 -19 -20 -20 -20 -20 -21 -21 -21 -21 -21 -21 -21 -21 -21 -21 -21 -21 -21 -21 -21 -21 -21 -22 -22 -22 -22 -22 -22 -22 -22 -22 -22 -22 -23 -23 -23 -22 -22
-17 -17 -17 -18 -18 -18 -19 -19 -19 -19 -19 -19 -19 -19 -19 -20 -20 -20 -20 -20 -20 -21 -21 -21 -21 -21 -21 -21 -21 -21 -21 -21 -22 -22 -22 -22 -22 -22 -22 -22 -22 -22 -23 -23 -23 -23 -23 -23 -23 -23 -23 -23 -23 -23
-17 -17 -18 -18 -18 -18 -19 -19 -19 -19 -19 -19 -19 -19 -20 -20 -20 -20 -20 -20 -20 -21 -21 -21 -21 -21 -21 -21 -22 -22 -22 -22 -22 -22 -22 -22 -22 -23 -23 -24 -24 -24 -25 -25 -25 -25 -24 -24 -25 -25 -25 -25 -25 -25
-17 -18 -18 -18 -18 -19 -19 -19 -19 -19 -19 -19 -19 -20 -20 -20 -20 -20 -20 -20 -21 -21 -21 -21 -21 -22 -22 -22 -22 -22 -22 -22 -22 -22 -22 -23 -23 -24 -25 -25 -26 -26 -26 -26 -26 -25 -25 -25 -25 -25 -25 -25 -25 -25
-17 -17 -18 -18 -18 -18 -18 -18 -19 -19 -19 -19 -19 -20 -20 -20 -20 -20 -20 -20 -21 -21 -21 -21 -22 -22 -22 -22 -22 -22 -22 -22 -22 -23 -23 -24 -25 -25 -26 -26 -26 -26 -26 -26 -26 -26 -26 -26 -26 -26 -26 -26 -26 -26
-17 -17 -17 -18 -18 -18 -18 -18 -18 -19 -19 -19 -19 -19 -20 -20 -20 -20 -20 -20 -21 -21 -21 -21 -22 -22 -22 -22 -22 -22 -23 -23 -23 -24 -25 -25 -25 -25 -25 -25 -26 -26 -26 -26 -26 -26 -26 -26 -26 -26 -26 -27 -27 -27

GFSWCAN_500_temp_027.txt.gz
Temp
-17 -17 -18 -18 -18 -18 -18 -18 -18 -17 -17 -18 -19 -19 -19 -19 -20 -20 -20 -21 -22 -23 -23 -23 -24 -24 -25 -25 -25 -25 -25 -25 -25 -25 -25 -25 -25 -24 -22 -21 -19 -17 -16 -13 -11 -9 -7 -7 -8 -7 -7 -6 -6 -6
-17 -17 -18 -18 -18 -18 -18 -18 -17 -17 -17 -18 -18 -19 -18 -19 -20 -20 -20 -21 -21 -22 -23 -23 -23 -23 -24 -24 -24 -24 -24 -25 -25 -24 -24 -24 -24 -23 -22 -20 -19 -17 -15 -15 -13 -9 -8 -8 -8 -8 -7 -7 -7 -7
-17 -17 -17 -17 -18 -18 -18 -18 -17 -17 -17 -18 -18 -18 -18 -18 -18 -19 -20 -20 -21 -21 -22 -22 -23 -23 -23 -23 -24 -24 -24 -24 -24 -23 -23 -23 -23 -22 -22 -21 -21 -18 -17 -14 -13 -11 -8 -7 -7 -7 -7 -7 -8 -7
-17 -17 -17 -17 -17 -18 -18 -17 -17 -17 -17 -17 -18 -18 -18 -18 -18 -19 -19 -20 -20 -21 -21 -22 -21 -22 -23 -22 -22 -22 -22 -22 -22 -22 -22 -22 -22 -22 -21 -20 -20 -20 -19 -16 -13 -11 -11 -10 -9 -8 -8 -8 -8 -8
-17 -17 -17 -17 -17 -18 -18 -17 -17 -16 -16 -17 -17 -18 -18 -18 -18 -18 -19 -19 -19 -20 -20 -20 -20 -20 -21 -21 -21 -22 -22 -22 -22 -21 -21 -21 -20 -20 -20 -20 -20 -20 -20 -17 -13 -13 -12 -11 -11 -10 -9 -10 -10 -9
-17 -17 -17 -17 -17 -17 -18 -17 -17 -16 -16 -17 -17 -17 -17 -17 -17 -18 -18 -18 -18 -19 -19 -19 -19 -19 -20 -21 -21 -21 -20 -19 -19 -19 -19 -19 -19 -18 -17 -18 -18 -18 -18 -18 -17 -17 -13 -12 -11 -10 -10 -11 -11 -10
-17 -17 -17 -17 -17 -18 -18 -18 -17 -16 -16 -17 -17 -18 -18 -17 -18 -17 -17 -17 -17 -18 -18 -18 -18 -19 -19 -19 -19 -19 -19 -19 -19 -18 -18 -18 -18 -17 -16 -16 -17 -17 -17 -18 -18 -18 -15 -13 -11 -10 -11 -11 -11 -11
-17 -17 -17 -17 -18 -18 -18 -17 -17 -16 -16 -16 -16 -17 -18 -18 -17 -17 -16 -17 -17 -17 -18 -17 -18 -18 -18 -18 -18 -18 -18 -18 -18 -17 -17 -17 -17 -16 -16 -15 -15 -16 -16 -18 -19 -19 -18 -17 -15 -12 -12 -11 -12 -11
-17 -17 -17 -17 -18 -18 -18 -17 -16 -16 -16 -16 -16 -17 -17 -18 -18 -17 -16 -17 -17 -17 -17 -18 -18 -18 -18 -18 -18 -17 -18 -17 -17 -17 -17 -16 -16 -16 -15 -16 -14 -16 -17 -18 -18 -18 -16 -16 -15 -14 -13 -13 -12 -12
-17 -17 -17 -17 -18 -18 -18 -17 -17 -16 -16 -16 -17 -17 -17 -17 -18 -18 -17 -17 -17 -17 -17 -17 -18 -18 -18 -17 -17 -17 -18 -17 -17 -17 -16 -16 -16 -16 -15 -15 -16 -15 -17 -17 -16 -15 -15 -14 -14 -15 -14 -14 -13 -12
-17 -17 -17 -17 -18 -17 -18 -17 -17 -16 -16 -17 -17 -17 -17 -17 -17 -17 -16 -17 -18 -17 -17 -17 -17 -17 -17 -17 -17 -17 -17 -17 -17 -17 -16 -16 -16 -15 -15 -15 -15 -15 -15 -15 -14 -14 -14 -13 -12 -14 -13 -13 -13 -12
-17 -17 -17 -18 -18 -18 -18 -17 -17 -16 -16 -17 -17 -17 -16 -16 -16 -16 -17 -17 -17 -17 -17 -17 -17 -17 -17 -17 -17 -17 -17 -17 -17 -17 -16 -17 -16 -15 -15 -15 -15 -14 -14 -14 -14 -14 -14 -14 -14 -13 -13 -13 -13 -12
-17 -17 -17 -18 -18 -18 -18 -17 -17 -16 -18 -17 -17 -16 -15 -16 -16 -17 -17 -17 -17 -17 -17 -17 -17 -17 -17 -17 -17 -17 -17 -17 -16 -16 -17 -17 -17 -16 -15 -15 -14 -14 -14 -14 -14 -14 -14 -14 -13 -13 -13 -13 -13 -13
-17 -17 -18 -18 -18 -18 -18 -18 -16 -17 -18 -17 -16 -15 -15 -16 -16 -17 -17 -17 -17 -17 -17 -17 -17 -17 -17 -17 -17 -16 -17 -17 -17 -17 -17 -16 -16 -16 -16 -16 -16 -15 -15 -15 -15 -14 -14 -14 -14 -14 -14 -14 -14 -13
-17 -17 -18 -17 -17 -17 -17 -17 -17 -18 -18 -16 -15 -16 -16 -16 -17 -17 -17 -17 -17 -17 -17 -17 -17 -17 -17 -17 -17 -17 -17 -18 -19 -18 -17 -17 -17 -16 -16 -16 -16 -16 -16 -16 -16 -15 -15 -15 -15 -14 -14 -14 -14 -14
-17 -17 -17 -17 -17 -17 -16 -17 -18 -19 -18 -16 -16 -17 -16 -16 -16 -16 -16 -16 -17 -18 -18 -18 -18 -17 -16 -16 -17 -17 -17 -18 -18 -18 -17 -17 -17 -17 -17 -16 -17 -16 -16 -16 -16 -17 -17 -16 -16 -15 -15 -15 -15 -15
-17 -17 -17 -17 -17 -16 -17 -18 -18 -17 -17 -17 -17 -17 -17 -17 -17 -17 -17 -16 -16 -17 -19 -19 -18 -18 -17 -17 -16 -17 -17 -18 -17 -17 -17 -17 -17 -17 -17 -17 -17 -17 -17 -17 -17 -16 -16 -17 -16 -16 -16 -15 -15 -14
-17 -17 -17 -17 -17 -17 -17 -18 -17 -18 -17 -17 -17 -17 -17 -17 -17 -17 -17 -17 -18 -17 -17 -18 -18 -18 -18 -18 -18 -18 -18 -19 -19 -19 -18 -18 -18 -17 -17 -17 -17 -17 -17 -17 -18 -18 -18 -18 -18 -18 -17 -17 -17 -17
-17 -17 -18 -17 -17 -17 -18 -18 -17 -18 -17 -17 -18 -18 -18 -18 -18 -17 -17 -18 -18 -18 -18 -18 -18 -18 -18 -18 -18 -18 -18 -18 -18 -18 -18 -18 -18 -18 -18 -18 -18 -18 -18 -18 -18 -17 -17 -17 -17 -17 -17 -17 -17 -17
-17 -17 -18 -18 -18 -17 -18 -17 -17 -17 -17 -18 -18 -18 -18 -18 -18 -18 -18 -19 -18 -18 -18 -19 -19 -19 -19 -19 -19 -19 -19 -19 -19 -19 -19 -18 -18 -18 -18 -18 -18 -18 -18 -18 -18 -18 -18 -18 -18 -18 -17 -17 -17 -17
-17 -18 -18 -18 -18 -17 -18 -18 -17 -18 -18 -18 -18 -18 -18 -18 -18 -19 -19 -19 -19 -19 -19 -18 -19 -19 -19 -20 -20 -20 -20 -20 -19 -19 -19 -18 -18 -18 -18 -18 -18 -18 -18 -18 -18 -18 -17 -17 -17 -17 -17 -17 -18 -18
-17 -17 -17 -18 -17 -17 -17 -18 -18 -18 -18 -18 -18 -18 -18 -19 -19 -19 -19 -19 -19 -19 -19 -19 -19 -19 -19 -20 -20 -20 -21 -21 -21 -20 -20 -20 -19 -19 -19 -19 -19 -18 -18 -18 -18 -18 -18 -18 -18 -17 -17 -17 -17 -17
-17 -17 -17 -17 -17 -17 -17 -17 -18 -18 -18 -18 -18 -18 -18 -19 -19 -19 -19 -19 -19 -19 -20 -20 -20 -20 -20 -20 -20 -20 -20 -20 -20 -21 -21 -21 -21 -20 -20 -20 -20 -20 -19 -19 -19 -19 -19 -19 -19 -19 -18 -18 -18 -18
-16 -17 -17 -17 -17 -17 -17 -17 -18 -18 -18 -18 -18 -19 -19 -19 -19 -19 -19 -19 -19 -19 -20 -20 -20 -20 -21 -21 -21 -21 -21 -21 -21 -21 -21 -21 -21 -21 -21 -21 -20 -20 -20 -20 -20 -20 -20 -20 -20 -20 -20 -20 -20 -19
-17 -17 -17 -17 -17 -17 -18 -18 -18 -18 -18 -18 -18 -19 -19 -19 -19 -19 -19 -19 -19 -20 -20 -20 -21 -21 -21 -21 -21 -21 -21 -21 -21 -21 -21 -21 -22 -22 -22 -21 -21 -21 -21 -21 -21 -21 -21 -21 -21 -20 -20 -20 -20 -20
-16 -17 -17 -17 -17 -18 -18 -18 -18 -18 -18 -18 -18 -18 -19 -19 -19 -19 -19 -20 -20 -20 -20 -21 -21 -21 -21 -21 -21 -21 -21 -21 -21 -21 -21 -22 -21 -21 -21 -21 -21 -21 -21 -21 -21 -21 -21 -21 -21 -22 -22 -22 -22 -22
-16 -17 -17 -17 -17 -18 -18 -18 -18 -18 -19 -19 -19 -19 -19 -19 -19 -19 -20 -20 -20 -21 -21 -21 -21 -21 -21 -21 -21 -21 -21 -21 -22 -22 -22 -22 -22 -22 -22 -22 -22 -22 -22 -22 -22 -22 -22 -22 -22 -22 -22 -22 -23 -23
-17 -17 -17 -17 -18 -18 -18 -18 -18 -19 -19 -19 -19 -19 -19 -19 -19 -20 -20 -20 -20 -21 -21 -21 -21 -21 -21 -21 -21 -21 -22 -22 -22 -22 -22 -22 -22 -22 -22 -22 -22 -22 -23 -23 -23 -23 -23 -23 -23 -23 -23 -23 -23 -23
-17 -17 -17 -18 -18 -18 -18 -18 -19 -19 -19 -19 -19 -19 -19 -20 -20 -20 -20 -20 -20 -20 -21 -21 -21 -21 -21 -21 -21 -22 -22 -22 -22 -22 -22 -22 -22 -23 -23 -23 -23 -24 -24 -25 -25 -25 -25 -25 -25 -25 -25 -24 -24 -24
-17 -17 -17 -18 -18 -18 -18 -18 -19 -19 -19 -19 -19 -19 -20 -20 -20 -20 -20 -20 -20 -20 -21 -21 -21 -21 -22 -22 -22 -22 -22 -22 -22 -23 -23 -23 -24 -24 -25 -25 -25 -25 -26 -26 -26 -26 -26 -26 -26 -25 -25 -25 -25 -25
-17 -17 -17 -17 -18 -18 -18 -19 -19 -19 -19 -19 -19 -20 -20 -20 -20 -20 -20 -20 -20 -20 -21 -21 -21 -22 -22 -22 -22 -22 -23 -23 -23 -23 -24 -24 -25 -25 -25 -25 -25 -25 -25 -25 -25 -26 -26 -26 -26 -26 -26 -26 -26 -26
-17 -17 -17 -18 -18 -18 -18 -18 -18 -19 -19 -19 -19 -20 -20 -20 -20 -20 -20 -20 -20 -21 -21 -21 -22 -22 -22 -23 -23 -23 -23 -23 -23 -24 -24 -25 -25 -25 -25 -25 -25 -25 -25 -25 -26 -26 -26 -26 -26 -26 -26 -26 -26 -26
-17 -17 -17 -18 -18 -18 -18 -18 -18 -19 -19 -19 -19 -20 -20 -20 -20 -20 -20 -20 -21 -21 -21 -22 -22 -22 -23 -23 -23 -23 -24 -24 -24 -25 -25 -25 -25 -25 -25 -26 -26 -26 -26 -26 -26 -26 -26 -26 -27 -27 -27 -27 -27 -27

GFSWCAN_500_temp_030.txt.gz
Temp
-16 -16 -16 -17 -16 -17 -17 -17 -17 -17 -16 -16 -17 -18 -18 -18 -18 -19 -19 -20 -20 -21 -22 -23 -23 -23 -23 -24 -24 -25 -25 -25 -25 -25 -25 -25 -24 -24 -20 -19 -18 -16 -15 -13 -11 -10 -9 -9 -8 -8 -8 -7 -6 -5
-16 -16 -17 -17 -17 -17 -17 -17 -17 -17 -16 -16 -17 -17 -18 -17 -18 -18 -19 -19 -19 -20 -21 -22 -22 -23 -23 -23 -24 -24 -24 -24 -25 -25 -24 -24 -24 -23 -22 -20 -18 -17 -15 -14 -13 -10 -9 -9 -9 -8 -7 -7 -7 -6
-15 -16 -16 -17 -16 -17 -17 -17 -17 -17 -16 -16 -16 -17 -17 -17 -17 -18 -18 -18 -18 -19 -20 -20 -21 -22 -22 -22 -23 -23 -23 -23 -23 -23 -23 -23 -23 -23 -22 -20 -18 -16 -16 -14 -13 -11 -9 -8 -7 -8 -8 -8 -8 -7
-15 -16 -16 -17 -17 -17 -17 -17 -17 -17 -16 -16 -16 -16 -17 -17 -17 -17 -17 -17 -17 -18 -19 -20 -21 -21 -22 -22 -22 -22 -21 -21 -22 -22 -22 -22 -22 -22 -22 -21 -19 -18 -16 -14 -13 -11 -10 -9 -9 -7 -8 -8 -9 -8
-16 -16 -16 -17 -17 -17 -17 -17 -17 -16 -16 -16 -16 -16 -17 -17 -17 -17 -17 -17 -17 -18 -18 -19 -19 -20 -19 -19 -19 -19 -20 -20 -20 -20 -20 -20 -20 -20 -20 -19 -20 -20 -18 -14 -12 -13 -12 -11 -9 -10 -8 -8 -8 -7
-16 -16 -16 -16 -17 -17 -17 -17 -17 -16 -16 -16 -16 -16 -17 -17 -17 -17 -17 -17 -17 -18 -18 -18 -18 -18 -18 -18 -19 -19 -19 -19 -19 -19 -19 -19 -19 -18 -17 -17 -19 -18 -17 -16 -15 -14 -12 -10 -10 -9 -7 -7 -7 -7
-16 -17 -16 -16 -17 -17 -17 -17 -16 -16 -16 -16 -16 -17 -17 -17 -17 -17 -17 -17 -17 -18 -18 -18 -18 -18 -18 -18 -18 -18 -19 -19 -19 -19 -19 -18 -18 -17 -16 -16 -16 -16 -15 -14 -15 -16 -13 -11 -10 -10 -9 -8 -8 -8
-16 -17 -17 -16 -17 -17 -17 -16 -16 -15 -16 -16 -16 -16 -17 -17 -17 -17 -17 -17 -17 -17 -17 -17 -18 -18 -18 -18 -18 -18 -18 -19 -19 -18 -17 -17 -16 -16 -16 -16 -16 -16 -16 -16 -16 -16 -16 -14 -11 -8 -8 -8 -8 -8
-16 -17 -17 -17 -17 -17 -17 -16 -16 -16 -16 -16 -16 -17 -17 -17 -17 -17 -17 -17 -17 -17 -17 -17 -18 -18 -18 -17 -17 -17 -17 -18 -18 -18 -18 -17 -17 -17 -15 -15 -15 -16 -17 -18 -17 -17 -16 -16 -13 -10 -9 -9 -9 -9
-17 -17 -17 -18 -18 -18 -17 -17 -16 -16 -16 -15 -15 -16 -16 -17 -18 -17 -17 -16 -16 -16 -16 -17 -17 -17 -17 -17 -17 -16 -16 -17 -17 -17 -17 -17 -17 -16 -15 -15 -15 -15 -16 -18 -18 -18 -17 -17 -17 -15 -13 -12 -12 -10
-17 -17 -18 -18 -18 -18 -17 -17 -16 -16 -16 -16 -16 -16 -17 -17 -17 -16 -16 -16 -16 -16 -17 -17 -17 -17 -17 -16 -16 -16 -16 -16 -17 -17 -16 -16 -16 -16 -15 -15 -15 -15 -15 -16 -17 -16 -16 -16 -15 -14 -14 -13 -12 -11
-17 -17 -18 -18 -18 -17 -17 -17 -16 -15 -17 -17 -17 -16 -16 -16 -16 -16 -16 -16 -16 -17 -17 -17 -17 -17 -17 -16 -16 -16 -16 -16 -16 -16 -16 -16 -16 -16 -15 -15 -15 -14 -15 -15 -15 -14 -14 -14 -15 -13 -12 -12 -10 -10
-17 -17 -17 -17 -17 -17 -17 -17 -16 -16 -17 -17 -17 -16 -16 -16 -16 -16 -17 -17 -17 -17 -17 -17 -17 -17 -17 -17 -16 -16 -16 -16 -16 -16 -16 -16 -16 -16 -16 -16 -15 -15 -15 -14 -14 -14 -13 -13 -13 -13 -12 -13 -12 -12
-17 -17 -17 -16 -16 -16 -16 -16 -16 -17 -18 -18 -17 -16 -16 -16 -16 -16 -16 -16 -17 -18 -18 -17 -17 -17 -17 -17 -17 -16 -15 -16 -17 -16 -17 -17 -17 -16 -16 -16 -16 -16 -15 -15 -14 -14 -14 -14 -13 -14 -13 -13 -13 -14
-17 -17 -18 -17 -17 -17 -16 -15 -17 -18 -17 -17 -16 -16 -17 -17 -17 -17 -16 -16 -16 -17 -17 -18 -18 -18 -18 -17 -17 -16 -16 -16 -16 -17 -17 -17 -17 -17 -17 -16 -16 -16 -16 -15 -15 -15 -14 -14 -13 -13 -14 -13 -13 -13
-17 -17 -17 -18 -17 -17 -17 -16 -17 -18 -17 -16 -16 -17 -17 -17 -17 -17 -17 -17 -17 -17 -17 -18 -18 -19 -18 -17 -18 -17 -17 -17 -17 -17 -17 -17 -17 -17 -17 -17 -17 -16 -16 -16 -16 -15 -15 -15 -15 -15 -14 -14 -13 -13
-17 -17 -17 -17 -17 -17 -17 -17 -18 -17 -17 -17 -17 -17 -17 -17 -17 -17 -17 -17 -17 -17 -18 -17 -18 -18 -18 -18 -18 -18 -18 -18 -18 -17 -17 -17 -17 -17 -17 -17 -17 -17 -17 -17 -17 -17 -16 -16 -16 -16 -15 -15 -15 -15
-17 -17 -17 -17 -17 -17 -17 -17 -17 -17 -17 -17 -17 -18 -18 -18 -18 -18 -18 -18 -18 -18 -18 -18 -18 -18 -19 -19 -19 -19 -19 -18 -18 -18 -18 -18 -18 -18 -18 -17 -17 -17 -17 -17 -17 -17 -17 -16 -16 -16 -17 -17 -16 -16
-17 -17 -17 -18 -18 -18 -17 -18 -17 -17 -17 -17 -18 -18 -18 -18 -18 -18 -18 -19 -19 -18 -18 -18 -19 -19 -19 -19 -19 -19 -19 -19 -19 -19 -19 -19 -19 -19 -19 -18 -18 -18 -18 -17 -17 -17 -17 -17 -17 -17 -17 -17 -17 -17
-17 -17 -18 -18 -18 -18 -17 -17 -17 -18 -18 -18 -18 -18 -18 -18 -18 -18 -18 -18 -19 -19 -19 -19 -19 -19 -19 -19 -20 -20 -19 -19 -19 -19 -19 -19 -19 -19 -19 -19 -19 -18 -18 -18 -18 -18 -18 -18 -18 -17 -17 -17 -17 -17
-17 -17 -17 -17 -17 -17 -17 -17 -18 -18 -18 -18 -18 -18 -18 -18 -18 -18 -19 -19 -19 -19 -19 -19 -19 -20 -20 -20 -20 -20 -20 -20 -20 -20 -20 -20 -20 -19 -19 -19 -19 -19 -18 -18 -18 -18 -18 -18 -18 -18 -18 -18 -18 -18
-16 -17 -17 -17 -17 -17 -17 -17 -18 -18 -18 -18 -18 -18 -18 -18 -18 -18 -19 -19 -19 -19 -19 -19 -19 -20 -20 -20 -20 -20 -20 -20 -20 -20 -20 -20 -20 -20 -20 -20 -20 -20 -19 -19 -19 -18 -18 -18 -18 -18 -18 -18 -18 -18
-16 -17 -17 -17 -17 -17 -17 -17 -18 -18 -18 -18 -18 -18 -18 -18 -18 -19 -19 -19 -19 -19 -19 -19 -20 -20 -20 -20 -21 -20 -20 -20 -21 -21 -21 -21 -20 -20 -21 -21 -21 -21 -20 -20 -20 -20 -20 -19 -19 -19 -19 -19 -19 -18
-16 -17 -17 -17 -17 -17 -17 -18 -18 -18 -18 -18 -18 -18 -18 -18 -18 -19 -19 -19 -19 -19 -19 -19 -19 -20 -20 -20 -21 -21 -21 -21 -21 -21 -21 -21 -21 -21 -21 -21 -21 -21 -21 -21 -21 -21 -21 -20 -20 -20 -20 -20 -20 -20
-16 -16 -17 -17 -17 -17 -18 -18 -18 -18 -18 -18 -19 -19 -19 -19 -19 -19 -19 -19 -19 -19 -19 -20 -20 -20 -21 -21 -21 -21 -21 -21 -21 -21 -21 -21 -21 -21 -21 -21 -21 -21 -21 -21 -21 -21 -21 -21 -21 -21 -21 -21 -20 -20
-16 -17 -17 -17 -17 -17 -18 -18 -18 -18 -18 -19 -19 -19 -19 -19 -19 -19 -19 -19 -20 -20 -20 -20 -20 -21 -21 -21 -21 -21 -22 -22 -22 -22 -22 -22 -22 -22 -22 -22 -22 -22 -22 -22 -22 -22 -22 -22 -22 -22 -22 -22 -22 -22
-16 -17 -17 -17 -17 -17 -18 -18 -18 -18 -18 -19 -19 -19 -19 -19 -19 -20 -20 -20 -20 -20 -20 -20 -20 -21 -21 -22 -22 -22 -22 -22 -22 -22 -22 -22 -22 -22 -22 -22 -22 -22 -23 -23 -23 -23 -23 -23 -23 -23 -23 -23 -23 -23
-17 -17 -17 -17 -17 -18 -18 -18 -18 -18 -18 -19 -19 -19 -19 -19 -20 -20 -20 -20 -20 -20 -20 -20 -20 -21 -21 -22 -22 -22 -22 -22 -22 -23 -23 -23 -23 -23 -23 -24 -24 -24 -24 -25 -25 -25 -25 -25 -25 -25 -25 -25 -24 -24
-16 -17 -17 -17 -17 -18 -18 -18 -18 -18 -19 -19 -19 -19 -19 -19 -19 -19 -20 -20 -20 -20 -20 -20 -21 -21 -22 -22 -22 -23 -23 -23 -23 -23 -23 -23 -23 -24 -24 -25 -25 -25 -25 -25 -25 -25 -26 -26 -26 -26 -26 -26 -25 -25
-16 -17 -17 -17 -17 -18 -18 -18 -18 -18 -19 -19 -19 -19 -19 -20 -20 -20 -20 -20 -20 -20 -20 -21 -21 -22 -22 -23 -23 -23 -23 -24 -24 -24 -24 -24 -25 -25 -25 -25 -25 -25 -25 -25 -25 -25 -25 -25 -25 -26 -26 -26 -26 -26
-17 -17 -17 -17 -18 -18 -18 -18 -18 -18 -19 -19 -19 -19 -20 -20 -20 -20 -20 -20 -20 -21 -21 -22 -22 -22 -23 -23 -23 -23 -23 -24 -24 -25 -25 -25 -25 -26 -26 -26 -26 -26 -26 -26 -26 -26 -26 -26 -26 -26 -26 -26 -26 -26
-17 -17 -17 -17 -17 -18 -18 -18 -18 -19 -19 -19 -19 -20 -20 -20 -20 -20 -20 -20 -21 -21 -22 -22 -22 -23 -23 -23 -23 -24 -24 -24 -25 -25 -25 -25 -26 -26 -26 -26 -26 -26 -26 -26 -26 -26 -26 -26 -26 -26 -26 -26 -26 -27
-17 -17 -17 -17 -18 -18 -18 -18 -19 -19 -19 -19 -20 -20 -20 -20 -20 -20 -20 -21 -21 -21 -22 -22 -22 -23 -23 -23 -24 -24 -24 -25 -25 -25 -25 -26 -26 -26 -27 -27 -27 -27 -27 -27 -27 -27 -27 -27 -27 -27 -27 -27 -27 -27

GFSWCAN_500_temp_033.txt.gz
Temp
-15 -15 -15 -16 -16 -16 -16 -17 -17 -17 -17 -16 -16 -16 -16 -17 -16 -17 -18 -18 -19 -20 -21 -22 -22 -22 -23 -23 -24 -24 -25 -25 -25 -24 -24 -24 -24 -23 -23 -22 -21 -19 -16 -15 -14 -12 -12 -14 -11 -12 -12 -9 -7 -6
-15 -15 -15 -16 -16 -16 -17 -17 -17 -17 -16 -16 -16 -16 -16 -17 -16 -17 -17 -17 -18 -19 -20 -20 -21 -21 -22 -22 -22 -23 -24 -24 -24 -24 -24 -23 -23 -23 -23 -22 -20 -19 -18 -18 -15 -14 -12 -13 -12 -10 -10 -8 -8 -6
-15 -15 -16 -16 -16 -16 -17 -17 -17 -17 -16 -16 -16 -16 -16 -16 -17 -17 -17 -17 -17 -18 -19 -18 -18 -19 -20 -20 -21 -21 -22 -22 -23 -23 -24 -23 -23 -23 -23 -20 -19 -19 -18 -16 -15 -13 -13 -12 -12 -10 -10 -8 -7 -7
-15 -15 -16 -16 -16 -16 -17 -17 -17 -17 -16 -15 -16 -16 -16 -16 -16 -17 -17 -17 -17 -17 -18 -18 -18 -19 -19 -19 -20 -20 -21 -21 -21 -22 -22 -21 -21 -21 -21 -21 -17 -16 -16 -16 -15 -14 -13 -11 -11 -10 -8 -8 -8 -8
-15 -15 -16 -16 -16 -16 -16 -16 -16 -16 -16 -16 -16 -17 -16 -16 -16 -17 -17 -17 -17 -17 -17 -18 -18 -18 -18 -19 -19 -19 -20 -20 -20 -20 -21 -21 -21 -21 -20 -20 -20 -20 -16 -15 -13 -14 -13 -12 -11 -10 -10 -10 -10 -10
-15 -16 -16 -16 -17 -16 -16 -16 -16 -16 -16 -16 -17 -17 -16 -17 -17 -16 -16 -17 -17 -17 -18 -18 -18 -18 -18 -19 -19 -19 -19 -19 -19 -19 -19 -19 -19 -19 -18 -18 -19 -16 -15 -15 -12 -12 -12 -11 -11 -10 -8 -9 -9 -9
-15 -16 -16 -17 -17 -17 -17 -16 -16 -16 -15 -16 -17 -17 -16 -16 -16 -16 -16 -17 -17 -18 -17 -17 -18 -18 -18 -19 -19 -19 -19 -19 -19 -19 -19 -18 -17 -16 -16 -17 -16 -16 -15 -15 -15 -15 -11 -10 -10 -10 -9 -8 -7 -7
-16 -16 -17 -17 -18 -18 -17 -17 -16 -16 -15 -16 -16 -16 -16 -17 -17 -16 -16 -16 -17 -17 -17 -17 -18 -18 -18 -18 -18 -18 -18 -18 -18 -18 -18 -18 -17 -16 -16 -16 -16 -16 -17 -16 -15 -15 -15 -15 -11 -9 -9 -8 -7 -7
-16 -16 -17 -17 -17 -17 -17 -17 -16 -15 -15 -15 -16 -16 -16 -16 -16 -16 -16 -16 -16 -17 -17 -17 -17 -17 -17 -17 -17 -17 -17 -17 -18 -18 -18 -18 -18 -17 -17 -16 -16 -17 -17 -18 -17 -14 -16 -15 -13 -10 -9 -8 -8 -7
-16 -16 -17 -17 -17 -17 -17 -16 -16 -15 -15 -16 -16 -17 -16 -16 -16 -16 -16 -16 -16 -17 -17 -17 -17 -17 -17 -17 -16 -16 -16 -17 -17 -17 -17 -17 -18 -18 -17 -16 -15 -16 -16 -18 -17 -16 -16 -15 -16 -14 -10 -8 -8 -7
-16 -16 -17 -17 -16 -16 -16 -17 -15 -16 -16 -16 -16 -16 -16 -16 -16 -16 -16 -16 -17 -16 -16 -17 -17 -17 -17 -17 -17 -17 -16 -16 -16 -16 -16 -17 -17 -17 -17 -16 -16 -16 -16 -16 -16 -16 -15 -15 -16 -16 -14 -11 -11 -9
-16 -16 -16 -16 -16 -16 -16 -16 -16 -16 -16 -16 -16 -17 -17 -16 -15 -16 -16 -17 -17 -17 -17 -17 -17 -17 -17 -17 -16 -16 -16 -16 -17 -16 -16 -16 -17 -17 -17 -17 -16 -16 -16 -15 -15 -15 -15 -16 -17 -16 -15 -13 -12 -12
-16 -17 -16 -16 -16 -17 -17 -15 -15 -15 -16 -17 -16 -17 -16 -16 -16 -16 -16 -16 -17 -17 -17 -17 -17 -17 -17 -17 -17 -16 -16 -16 -16 -15 -16 -17 -16 -17 -16 -17 -16 -16 -16 -16 -15 -15 -14 -15 -15 -15 -13 -12 -12 -12
-16 -17 -17 -17 -17 -17 -16 -16 -15 -16 -17 -18 -17 -16 -16 -16 -17 -17 -17 -17 -16 -17 -16 -17 -17 -17 -17 -18 -17 -17 -16 -16 -16 -16 -16 -17 -17 -16 -16 -16 -16 -16 -16 -15 -15 -15 -14 -15 -15 -14 -13 -12 -12 -13
-17 -17 -17 -17 -17 -17 -17 -16 -16 -17 -17 -17 -17 -16 -17 -17 -17 -17 -17 -17 -17 -17 -17 -17 -17 -17 -17 -17 -17 -17 -17 -16 -17 -17 -17 -17 -17 -17 -17 -17 -16 -16 -15 -15 -15 -15 -15 -15 -15 -14 -13 -13 -13 -12
-17 -17 -17 -17 -17 -17 -17 -17 -16 -17 -18 -17 -17 -17 -17 -18 -18 -18 -18 -18 -17 -17 -17 -17 -17 -17 -17 -17 -17 -17 -17 -17 -17 -17 -17 -17 -17 -17 -17 -17 -17 -16 -16 -16 -15 -15 -15 -15 -14 -14 -14 -14 -13 -13
-17 -17 -17 -17 -17 -17 -17 -17 -17 -18 -18 -18 -18 -18 -18 -18 -18 -18 -18 -18 -18 -18 -18 -18 -17 -17 -17 -17 -18 -18 -18 -18 -18 -18 -18 -18 -18 -17 -17 -17 -17 -17 -17 -16 -16 -16 -16 -17 -16 -15 -15 -15 -15 -14
-17 -17 -17 -17 -17 -17 -17 -17 -17 -18 -18 -18 -18 -18 -18 -18 -18 -18 -18 -18 -18 -18 -18 -18 -18 -18 -18 -18 -18 -19 -19 -18 -18 -19 -19 -19 -18 -18 -18 -17 -17 -17 -17 -17 -17 -16 -16 -16 -16 -16 -17 -17 -16 -16
-17 -17 -17 -17 -17 -17 -17 -17 -17 -18 -18 -18 -18 -18 -18 -18 -18 -18 -18 -18 -18 -18 -18 -18 -19 -19 -19 -19 -19 -19 -20 -20 -19 -19 -19 -19 -19 -19 -19 -18 -18 -17 -17 -17 -17 -17 -17 -17 -16 -16 -16 -16 -16 -16
-17 -17 -17 -17 -17 -17 -17 -17 -17 -18 -18 -18 -18 -18 -18 -18 -18 -18 -18 -18 -18 -18 -18 -18 -19 -19 -19 -19 -20 -20 -20 -20 -20 -20 -20 -20 -19 -19 -19 -19 -19 -19 -18 -17 -17 -17 -17 -17 -17 -17 -17 -17 -17 -16
-16 -16 -16 -17 -17 -17 -17 -17 -17 -17 -17 -17 -18 -18 -18 -18 -18 -18 -18 -18 -19 -19 -19 -19 -19 -19 -19 -19 -20 -20 -20 -20 -20 -20 -20 -20 -20 -20 -20 -20 -20 -19 -19 -19 -18 -18 -17 -17 -17 -17 -17 -16 -16 -17
-16 -16 -17 -17 -17 -17 -17 -17 -17 -18 -18 -18 -18 -18 -18 -18 -18 -18 -18 -19 -19 -19 -19 -19 -19 -19 -19 -20 -20 -20 -20 -20 -20 -21 -21 -21 -21 -21 -21 -20 -20 -20 -20 -20 -20 -20 -19 -19 -18 -18 -18 -17 -17 -17
-16 -16 -17 -17 -17 -17 -17 -17 -18 -18 -18 -18 -18 -18 -18 -18 -19 -19 -19 -19 -19 -19 -19 -19 -19 -20 -20 -20 -20 -20 -20 -21 -21 -21 -21 -21 -21 -21 -21 -21 -21 -21 -21 -21 -21 -21 -21 -20 -20 -19 -19 -19 -18 -18
-16 -16 -17 -17 -17 -17 -17 -17 -18 -18 -18 -18 -18 -18 -18 -19 -19 -19 -19 -19 -19 -19 -19 -19 -20 -20 -20 -20 -20 -21 -21 -21 -21 -21 -21 -21 -21 -21 -21 -21 -21 -21 -21 -21 -21 -21 -21 -21 -21 -21 -20 -20 -20 -20
-16 -16 -16 -17 -17 -17 -17 -18 -18 -18 -18 -18 -18 -19 -19 -19 -19 -19 -19 -19 -19 -19 -19 -20 -20 -20 -20 -20 -21 -21 -21 -21 -21 -22 -22 -22 -22 -22 -22 -22 -22 -22 -22 -22 -22 -21 -21 -21 -21 -21 -21 -21 -21 -21
-16 -16 -17 -17 -17 -17 -17 -18 -18 -18 -18 -18 -19 -19 -19 -19 -19 -19 -20 -20 -20 -20 -20 -20 -20 -20 -20 -21 -21 -22 -22 -22 -22 -22 -22 -22 -22 -22 -22 -22 -22 -22 -22 -22 -22 -22 -22 -22 -22 -22 -22 -22 -22 -21
-16 -16 -16 -17 -17 -17 -17 -18 -18 -18 -18 -18 -19 -19 -19 -19 -19 -19 -20 -20 -20 -20 -21 -20 -20 -21 -21 -21 -22 -22 -22 -23 -23 -23 -23 -23 -23 -23 -23 -23 -23 -23 -23 -24 -24 -24 -24 -24 -24 -24 -24 -23 -23 -23
-16 -16 -17 -17 -17 -17 -17 -18 -18 -18 -18 -18 -18 -19 -20 -19 -20 -20 -20 -20 -20 -20 -20 -20 -21 -21 -22 -22 -22 -23 -23 -23 -23 -23 -23 -24 -24 -24 -24 -25 -25 -25 -25 -25 -25 -25 -25 -25 -25 -25 -25 -25 -25 -25
-16 -16 -17 -17 -17 -17 -17 -18 -18 -19 -19 -19 -19 -19 -19 -20 -20 -20 -20 -20 -20 -20 -20 -21 -21 -22 -22 -22 -22 -23 -23 -24 -24 -24 -24 -24 -24 -25 -25 -25 -25 -26 -26 -26 -26 -25 -25 -25 -25 -25 -25 -25 -25 -25
-17 -17 -17 -17 -17 -17 -18 -18 -18 -18 -18 -19 -19 -19 -19 -20 -20 -20 -20 -20 -20 -20 -21 -21 -22 -22 -23 -23 -23 -23 -23 -24 -24 -24 -24 -24 -25 -25 -25 -26 -26 -26 -26 -26 -26 -26 -26 -26 -26 -26 -26 -26 -25 -25
-16 -16 -16 -17 -17 -18 -18 -18 -18 -18 -18 -19 -19 -20 -20 -20 -20 -20 -20 -20 -20 -21 -21 -22 -22 -22 -23 -23 -24 -24 -24 -23 -24 -24 -24 -24 -25 -25 -26 -26 -26 -26 -26 -26 -26 -26 -26 -26 -26 -26 -26 -26 -26 -26
-16 -17 -17 -17 -17 -17 -18 -18 -18 -18 -19 -19 -19 -20 -20 -20 -20 -20 -20 -21 -21 -21 -22 -22 -23 -23 -23 -23 -23 -23 -24 -24 -24 -24 -24 -25 -25 -25 -26 -26 -26 -27 -27 -27 -27 -27 -27 -27 -27 -27 -27 -27 -26 -26
-17 -17 -17 -17 -17 -17 -18 -18 -18 -19 -19 -19 -20 -20 -20 -20 -20 -20 -21 -21 -21 -22 -22 -22 -23 -23 -23 -23 -23 -23 -24 -24 -24 -24 -25 -25 -26 -26 -26 -26 -27 -27 -27 -27 -28 -28 -28 -28 -27 -27 -27 -27 -27 -27

GFSWCAN_500_temp_036.txt.gz
Temp
-13 -15 -15 -15 -15 -16 -16 -16 -16 -17 -17 -16 -15 -16 -16 -16 -17 -16 -16 -17 -17 -17 -18 -19 -20 -20 -21 -22 -22 -23 -24 -24 -23 -23 -23 -23 -22 -21 -20 -19 -19 -18 -17 -15 -15 -14 -13 -12 -12 -12 -12 -11 -10 -10
-14 -15 -15 -15 -15 -16 -16 -16 -16 -17 -17 -16 -16 -16 -16 -17 -17 -16 -16 -17 -17 -17 -18 -18 -19 -20 -20 -21 -22 -22 -22 -23 -23 -23 -23 -22 -22 -22 -21 -20 -19 -19 -19 -18 -16 -14 -13 -13 -12 -12 -12 -12 -11 -10
-15 -15 -15 -15 -16 -16 -16 -16 -16 -16 -16 -16 -16 -16 -16 -17 -16 -16 -16 -16 -17 -17 -18 -18 -19 -19 -20 -21 -21 -21 -22 -22 -23 -23 -23 -23 -23 -22 -21 -20 -19 -20 -19 -18 -17 -15 -14 -13 -13 -13 -12 -11 -10 -9
-15 -15 -15 -16 -16 -17 -16 -16 -16 -16 -16 -16 -16 -16 -16 -16 -16 -16 -16 -16 -17 -17 -18 -18 -19 -19 -19 -20 -20 -21 -21 -21 -21 -22 -22 -22 -22 -22 -22 -21 -19 -18 -18 -17 -16 -15 -14 -13 -13 -12 -11 -10 -9 -7
-15 -15 -16 -16 -17 -17 -17 -17 -16 -16 -15 -16 -16 -16 -16 -16 -16 -16 -16 -17 -17 -17 -18 -18 -18 -19 -19 -19 -20 -20 -20 -20 -21 -21 -21 -21 -21 -21 -21 -21 -20 -19 -18 -16 -15 -15 -14 -12 -12 -13 -11 -10 -9 -8
-15 -16 -16 -16 -17 -18 -18 -17 -16 -15 -16 -16 -16 -16 -16 -16 -16 -16 -16 -16 -16 -17 -17 -17 -18 -18 -18 -19 -19 -19 -19 -20 -20 -20 -20 -19 -19 -19 -20 -19 -18 -15 -14 -12 -13 -14 -13 -12 -11 -11 -11 -10 -10 -10
-16 -16 -16 -16 -17 -17 -17 -16 -15 -15 -16 -16 -16 -16 -16 -15 -15 -15 -16 -16 -16 -17 -17 -17 -18 -18 -18 -19 -18 -19 -19 -19 -19 -19 -19 -19 -18 -17 -17 -17 -17 -16 -16 -16 -16 -15 -12 -12 -12 -12 -11 -11 -10 -10
-16 -16 -16 -16 -16 -16 -16 -15 -15 -16 -16 -16 -16 -16 -16 -15 -15 -16 -16 -16 -17 -17 -17 -17 -17 -17 -18 -18 -18 -18 -18 -18 -18 -18 -18 -18 -17 -17 -18 -17 -16 -16 -17 -17 -17 -16 -15 -15 -11 -11 -11 -11 -10 -10
-16 -16 -16 -16 -16 -16 -16 -15 -15 -16 -15 -16 -15 -15 -15 -15 -16 -16 -16 -17 -17 -17 -16 -17 -17 -17 -17 -17 -17 -17 -17 -17 -18 -18 -18 -18 -19 -18 -18 -17 -16 -17 -17 -17 -18 -15 -15 -15 -11 -10 -9 -10 -9 -9
-16 -16 -16 -16 -16 -16 -16 -16 -15 -16 -16 -16 -15 -16 -15 -15 -16 -16 -16 -17 -17 -17 -17 -17 -17 -17 -17 -17 -17 -17 -17 -17 -17 -17 -18 -18 -18 -18 -18 -17 -16 -16 -17 -18 -17 -17 -16 -16 -14 -13 -10 -9 -8 -8
-16 -16 -16 -16 -16 -16 -16 -16 -15 -15 -16 -16 -16 -16 -16 -16 -16 -17 -16 -16 -16 -16 -17 -17 -17 -17 -17 -18 -17 -16 -16 -16 -17 -17 -17 -17 -18 -18 -18 -18 -18 -17 -17 -17 -17 -17 -15 -15 -16 -16 -15 -12 -9 -8
-16 -16 -16 -16 -16 -17 -17 -17 -16 -16 -16 -16 -16 -16 -16 -17 -16 -16 -16 -16 -16 -16 -16 -17 -16 -17 -17 -17 -17 -17 -17 -16 -16 -17 -16 -16 -17 -17 -17 -17 -17 -17 -18 -17 -16 -16 -16 -16 -15 -14 -14 -14 -14 -10
-16 -16 -17 -17 -17 -17 -17 -17 -16 -15 -15 -16 -17 -17 -16 -16 -16 -16 -17 -17 -17 -17 -17 -17 -17 -17 -17 -17 -17 -17 -17 -17 -17 -16 -16 -17 -17 -17 -17 -17 -17 -17 -17 -17 -17 -17 -17 -16 -15 -15 -15 -15 -14 -13
-16 -16 -17 -17 -17 -17 -17 -17 -16 -16 -16 -17 -17 -17 -16 -17 -17 -17 -17 -17 -17 -17 -17 -17 -17 -17 -17 -17 -18 -17 -18 -17 -17 -17 -17 -17 -18 -17 -18 -17 -18 -17 -18 -17 -17 -17 -16 -17 -16 -15 -14 -16 -15 -15
-16 -16 -16 -16 -17 -17 -17 -16 -17 -16 -16 -17 -17 -17 -17 -17 -17 -17 -17 -17 -18 -17 -18 -17 -18 -18 -18 -18 -17 -17 -18 -18 -18 -17 -17 -17 -17 -18 -17 -17 -18 -18 -17 -17 -17 -16 -16 -16 -16 -16 -15 -16 -16 -17
-17 -16 -16 -17 -17 -17 -17 -17 -17 -17 -17 -17 -17 -17 -18 -18 -18 -18 -18 -18 -17 -18 -18 -18 -18 -18 -18 -18 -18 -18 -18 -18 -18 -18 -18 -18 -18 -17 -17 -17 -17 -17 -18 -17 -18 -18 -17 -16 -15 -15 -16 -16 -15 -15
-17 -17 -17 -17 -17 -17 -17 -17 -17 -17 -18 -18 -18 -18 -18 -18 -18 -18 -18 -18 -18 -18 -18 -18 -18 -18 -18 -18 -18 -18 -19 -19 -19 -19 -19 -19 -19 -18 -18 -18 -17 -17 -17 -17 -17 -17 -17 -17 -17 -17 -15 -15 -15 -15
-17 -17 -17 -17 -17 -17 -17 -17 -17 -17 -18 -18 -18 -18 -18 -18 -18 -18 -18 -18 -18 -18 -18 -18 -18 -18 -18 -18 -18 -19 -19 -19 -19 -20 -20 -20 -19 -19 -19 -19 -18 -18 -17 -17 -17 -17 -17 -17 -17 -17 -17 -17 -16 -15
-16 -16 -16 -16 -17 -17 -17 -17 -17 -17 -17 -17 -17 -17 -18 -18 -18 -18 -18 -18 -18 -18 -18 -18 -18 -18 -18 -19 -19 -19 -20 -20 -20 -20 -20 -20 -20 -20 -20 -19 -19 -19 -18 -18 -18 -17 -17 -17 -17 -17 -17 -17 -17 -17
-16 -16 -16 -16 -17 -17 -17 -17 -17 -17 -17 -17 -18 -18 -18 -18 -18 -18 -18 -18 -18 -18 -19 -19 -19 -19 -19 -19 -19 -20 -20 -20 -20 -20 -20 -20 -20 -20 -20 -20 -20 -20 -20 -19 -18 -19 -18 -17 -17 -17 -17 -17 -17 -17
-16 -16 -16 -16 -17 -17 -17 -17 -17 -17 -17 -17 -18 -18 -18 -18 -18 -18 -19 -19 -19 -19 -19 -19 -19 -19 -19 -19 -19 -19 -20 -20 -20 -20 -20 -20 -20 -21 -21 -21 -21 -20 -20 -20 -20 -19 -19 -19 -19 -18 -17 -17 -17 -17
-16 -16 -16 -16 -17 -17 -17 -17 -17 -17 -17 -18 -18 -18 -18 -18 -19 -18 -19 -19 -19 -19 -19 -20 -19 -19 -19 -19 -20 -20 -20 -20 -20 -20 -20 -21 -21 -21 -21 -21 -21 -21 -21 -21 -21 -20 -20 -20 -20 -19 -19 -19 -18 -18
-16 -16 -16 -16 -17 -17 -17 -17 -17 -17 -18 -18 -18 -18 -18 -18 -18 -19 -19 -19 -19 -19 -20 -20 -20 -20 -20 -20 -20 -20 -20 -20 -21 -21 -21 -21 -21 -21 -21 -21 -21 -21 -21 -21 -21 -21 -21 -21 -21 -20 -20 -20 -20 -19
-16 -16 -16 -16 -16 -17 -17 -17 -17 -17 -17 -18 -18 -18 -18 -19 -19 -19 -19 -19 -19 -19 -19 -20 -19 -19 -19 -20 -20 -21 -21 -21 -22 -21 -22 -22 -22 -22 -22 -22 -22 -22 -22 -22 -22 -21 -21 -21 -21 -21 -21 -21 -21 -21
-16 -16 -16 -16 -16 -16 -17 -17 -17 -17 -17 -18 -18 -18 -18 -19 -19 -19 -19 -20 -20 -20 -20 -20 -20 -20 -21 -21 -21 -22 -22 -22 -22 -22 -23 -23 -23 -23 -23 -23 -22 -22 -23 -22 -22 -22 -22 -22 -21 -22 -21 -22 -22 -21
-16 -16 -16 -16 -16 -17 -17 -17 -17 -18 -18 -18 -18 -18 -18 -18 -19 -19 -19 -20 -20 -20 -20 -20 -20 -21 -21 -21 -22 -22 -22 -23 -23 -23 -23 -23 -23 -23 -23 -23 -23 -23 -23 -23 -23 -23 -23 -23 -22 -22 -22 -22 -22 -22
-16 -16 -16 -16 -17 -17 -17 -17 -17 -18 -18 -18 -18 -18 -18 -19 -19 -19 -20 -20 -20 -20 -20 -20 -20 -21 -21 -22 -22 -23 -23 -23 -23 -23 -23 -24 -23 -23 -23 -24 -24 -24 -25 -25 -25 -25 -25 -25 -25 -24 -24 -24 -24 -24
-16 -16 -16 -16 -16 -17 -18 -17 -17 -17 -17 -17 -18 -18 -18 -18 -19 -19 -20 -19 -19 -20 -20 -20 -21 -21 -22 -22 -23 -23 -23 -24 -23 -23 -23 -23 -23 -23 -24 -24 -25 -25 -25 -25 -25 -25 -25 -25 -25 -25 -25 -25 -25 -25
-16 -16 -16 -16 -17 -17 -16 -17 -17 -16 -17 -18 -18 -19 -19 -19 -19 -19 -19 -20 -20 -20 -20 -21 -21 -22 -22 -23 -23 -22 -22 -23 -23 -23 -24 -24 -24 -24 -25 -25 -25 -25 -26 -26 -26 -26 -26 -26 -25 -25 -25 -25 -25 -25
-16 -16 -16 -16 -16 -17 -17 -17 -17 -17 -18 -18 -18 -19 -18 -19 -20 -20 -20 -20 -20 -20 -21 -21 -22 -22 -23 -23 -23 -23 -23 -23 -24 -24 -24 -24 -25 -25 -25 -25 -26 -26 -26 -27 -27 -26 -26 -26 -26 -26 -26 -26 -25 -25
-16 -16 -16 -16 -16 -17 -17 -17 -17 -17 -17 -18 -18 -18 -18 -19 -19 -20 -20 -20 -20 -21 -21 -22 -22 -22 -22 -22 -23 -23 -24 -24 -24 -24 -25 -25 -25 -25 -26 -26 -26 -26 -27 -27 -27 -27 -27 -27 -27 -27 -26 -26 -26 -26
-16 -16 -16 -17 -17 -16 -17 -17 -18 -18 -18 -18 -19 -19 -19 -19 -19 -19 -20 -20 -21 -21 -21 -22 -22 -22 -23 -23 -23 -23 -24 -24 -24 -24 -25 -25 -25 -26 -26 -26 -26 -27 -27 -27 -27 -27 -28 -28 -28 -27 -27 -27 -27 -26
-16 -16 -17 -17 -17 -17 -17 -17 -18 -18 -18 -18 -18 -19 -19 -19 -19 -20 -20 -21 -21 -22 -22 -22 -22 -22 -22 -22 -23 -23 -24 -24 -24 -24 -25 -25 -25 -26 -26 -26 -27 -27 -28 -28 -28 -28 -28 -28 -28 -28 -28 -27 -27 -27

GFSWCAN_500_temp_039.txt.gz
Temp
-13 -15 -15 -15 -15 -16 -16 -16 -16 -16 -16 -16 -16 -15 -16 -16 -16 -16 -16 -17 -17 -18 -18 -19 -19 -20 -21 -21 -22 -23 -23 -23 -23 -23 -23 -22 -21 -20 -20 -19 -19 -17 -15 -14 -13 -12 -11 -10 -10 -10 -10 -10 -11 -10
-14 -16 -15 -15 -16 -16 -17 -17 -17 -17 -16 -16 -16 -16 -16 -16 -16 -16 -16 -16 -17 -18 -18 -18 -19 -19 -20 -21 -22 -22 -22 -23 -23 -23 -23 -23 -21 -20 -20 -20 -19 -18 -16 -14 -13 -13 -12 -11 -10 -10 -10 -10 -11 -10
-16 -15 -15 -16 -16 -17 -17 -18 -17 -17 -16 -15 -16 -16 -16 -16 -16 -16 -16 -16 -17 -17 -18 -18 -18 -19 -20 -20 -21 -22 -22 -22 -22 -22 -22 -22 -22 -21 -21 -20 -19 -19 -16 -15 -14 -13 -11 -12 -12 -11 -10 -10 -10 -10
-16 -16 -16 -16 -16 -17 -17 -17 -17 -16 -16 -16 -16 -16 -16 -16 -16 -16 -16 -16 -16 -17 -17 -17 -18 -19 -19 -20 -20 -21 -21 -22 -22 -22 -22 -22 -21 -21 -21 -20 -19 -19 -18 -16 -14 -14 -12 -12 -12 -11 -9 -10 -9 -9
-16 -16 -16 -16 -16 -16 -16 -16 -16 -16 -16 -16 -16 -16 -16 -15 -16 -16 -16 -15 -16 -17 -17 -17 -18 -18 -19 -19 -19 -20 -20 -20 -20 -20 -21 -20 -21 -21 -21 -21 -20 -19 -18 -16 -14 -14 -13 -12 -12 -12 -10 -9 -9 -8
-16 -16 -16 -16 -16 -16 -16 -16 -16 -16 -16 -16 -16 -16 -16 -16 -16 -16 -16 -16 -17 -18 -18 -17 -18 -18 -19 -19 -19 -19 -19 -20 -19 -19 -20 -20 -20 -19 -19 -17 -17 -16 -15 -14 -12 -13 -13 -13 -12 -13 -11 -11 -10 -9
-16 -16 -16 -16 -16 -16 -16 -15 -15 -16 -16 -16 -16 -15 -15 -16 -16 -16 -16 -17 -17 -18 -18 -17 -18 -18 -18 -19 -19 -19 -19 -19 -19 -19 -19 -19 -18 -18 -17 -18 -17 -16 -16 -16 -15 -14 -13 -13 -13 -14 -13 -13 -12 -11
-16 -16 -16 -16 -16 -16 -16 -16 -16 -16 -16 -15 -15 -15 -16 -15 -16 -16 -17 -17 -17 -17 -16 -16 -17 -18 -17 -18 -18 -18 -18 -18 -18 -18 -18 -18 -17 -16 -17 -18 -17 -16 -16 -16 -15 -15 -15 -14 -12 -13 -13 -12 -12 -13
-16 -16 -16 -16 -16 -15 -16 -16 -16 -16 -15 -15 -15 -16 -16 -16 -16 -16 -16 -16 -16 -16 -16 -16 -16 -17 -17 -17 -17 -17 -18 -18 -18 -18 -18 -17 -18 -18 -18 -18 -17 -16 -16 -17 -16 -16 -15 -15 -15 -11 -11 -12 -12 -12
-16 -16 -16 -16 -16 -16 -16 -16 -16 -16 -16 -15 -15 -16 -16 -16 -16 -16 -16 -17 -17 -16 -17 -17 -17 -17 -17 -17 -18 -18 -17 -17 -17 -17 -17 -18 -18 -18 -18 -18 -18 -17 -16 -17 -18 -17 -18 -16 -14 -12 -11 -10 -10 -11
-16 -17 -17 -16 -16 -16 -16 -16 -17 -17 -16 -16 -16 -16 -16 -16 -16 -17 -17 -17 -17 -17 -17 -17 -17 -17 -17 -17 -17 -18 -18 -18 -17 -17 -17 -17 -17 -18 -18 -18 -18 -18 -17 -17 -17 -18 -18 -17 -17 -16 -14 -13 -11 -9
-16 -17 -17 -17 -17 -16 -16 -16 -16 -16 -16 -16 -16 -16 -17 -17 -17 -17 -17 -17 -17 -17 -17 -17 -18 -18 -18 -17 -17 -18 -18 -18 -18 -18 -18 -16 -17 -18 -17 -17 -18 -18 -18 -17 -17 -17 -17 -16 -15 -16 -16 -15 -15 -14
-16 -17 -16 -17 -17 -17 -16 -16 -16 -16 -16 -16 -16 -17 -17 -17 -17 -17 -17 -17 -17 -18 -17 -17 -17 -18 -18 -18 -18 -18 -18 -18 -18 -18 -18 -18 -18 -18 -18 -18 -17 -17 -17 -18 -18 -17 -16 -16 -16 -16 -16 -16 -15 -14
-16 -16 -16 -16 -16 -17 -16 -16 -16 -17 -16 -17 -17 -17 -17 -17 -17 -17 -17 -17 -18 -18 -18 -18 -18 -18 -18 -18 -18 -18 -18 -18 -18 -18 -18 -18 -18 -18 -18 -18 -18 -17 -17 -17 -17 -17 -17 -18 -17 -16 -15 -16 -15 -15
-17 -16 -17 -17 -17 -17 -17 -17 -17 -17 -17 -17 -17 -17 -17 -17 -17 -17 -17 -17 -17 -17 -18 -18 -18 -18 -18 -18 -18 -18 -18 -19 -18 -19 -19 -19 -19 -19 -18 -18 -18 -18 -18 -18 -18 -17 -17 -17 -17 -17 -17 -16 -16 -16
-16 -16 -17 -17 -17 -17 -17 -17 -17 -17 -17 -17 -17 -17 -17 -18 -18 -18 -18 -18 -18 -18 -17 -18 -18 -18 -18 -18 -18 -19 -19 -19 -19 -19 -20 -20 -20 -20 -19 -19 -19 -18 -18 -18 -18 -18 -18 -16 -17 -17 -16 -16 -16 -16
-16 -17 -16 -16 -16 -17 -17 -17 -17 -17 -17 -17 -17 -17 -17 -17 -18 -18 -18 -18 -18 -18 -18 -18 -18 -18 -18 -19 -19 -19 -19 -19 -20 -20 -20 -20 -20 -20 -20 -20 -20 -19 -18 -18 -18 -17 -18 -18 -18 -16 -16 -17 -16 -16
-16 -16 -16 -16 -16 -17 -17 -17 -17 -17 -17 -17 -17 -17 -17 -18 -18 -18 -18 -18 -18 -18 -18 -18 -18 -18 -19 -19 -19 -19 -19 -20 -20 -20 -20 -20 -20 -20 -20 -20 -20 -20 -20 -19 -19 -18 -17 -18 -18 -18 -18 -17 -16 -16
-16 -16 -16 -16 -16 -17 -17 -17 -17 -17 -17 -17 -17 -17 -18 -18 -18 -18 -18 -18 -18 -19 -19 -19 -19 -19 -19 -19 -19 -19 -20 -20 -20 -20 -20 -20 -20 -20 -20 -20 -20 -20 -20 -20 -20 -19 -19 -19 -18 -18 -18 -18 -18 -17
-16 -16 -16 -16 -16 -16 -17 -17 -17 -17 -17 -17 -17 -18 -18 -18 -18 -18 -18 -18 -19 -19 -19 -19 -19 -19 -19 -19 -19 -19 -20 -20 -20 -20 -21 -21 -21 -21 -21 -21 -21 -21 -21 -20 -20 -21 -20 -19 -19 -19 -18 -18 -18 -17
-16 -16 -16 -16 -16 -16 -17 -17 -17 -17 -17 -17 -17 -18 -18 -18 -18 -18 -19 -18 -19 -19 -19 -19 -19 -19 -20 -19 -19 -19 -20 -20 -20 -21 -21 -21 -21 -21 -21 -21 -21 -21 -21 -21 -21 -21 -21 -21 -20 -20 -19 -19 -19 -18
-16 -16 -16 -16 -16 -16 -16 -17 -17 -17 -17 -17 -17 -18 -18 -18 -18 -18 -19 -19 -19 -19 -19 -20 -20 -19 -19 -19 -20 -20 -20 -20 -21 -21 -21 -22 -22 -22 -22 -22 -22 -22 -22 -22 -22 -21 -21 -21 -21 -21 -21 -20 -20 -19
-16 -16 -16 -16 -16 -16 -16 -17 -17 -17 -17 -17 -18 -18 -18 -18 -18 -19 -19 -19 -19 -19 -19 -19 -19 -19 -20 -19 -20 -20 -21 -21 -21 -22 -22 -23 -23 -23 -23 -23 -22 -22 -23 -23 -22 -22 -22 -21 -22 -21 -22 -21 -21 -20
-16 -16 -16 -16 -16 -16 -16 -16 -16 -17 -17 -17 -17 -18 -19 -20 -19 -19 -19 -19 -20 -19 -19 -19 -20 -20 -20 -20 -20 -21 -21 -22 -22 -22 -23 -23 -23 -23 -23 -23 -23 -23 -24 -23 -23 -23 -23 -22 -22 -22 -22 -22 -21 -21
-16 -16 -16 -16 -16 -16 -16 -16 -17 -17 -17 -18 -18 -19 -19 -18 -19 -19 -18 -19 -20 -19 -20 -20 -20 -20 -21 -21 -22 -22 -22 -23 -23 -23 -23 -23 -23 -23 -23 -23 -23 -24 -24 -24 -24 -24 -24 -24 -23 -23 -23 -23 -22 -21
-16 -16 -16 -16 -16 -16 -16 -17 -17 -18 -18 -17 -18 -18 -18 -19 -19 -18 -19 -19 -19 -20 -20 -20 -21 -21 -21 -22 -22 -22 -22 -23 -23 -23 -23 -23 -23 -23 -23 -23 -24 -24 -24 -24 -25 -25 -25 -25 -25 -24 -24 -25 -24 -23
-16 -16 -16 -16 -16 -16 -16 -16 -17 -17 -17 -18 -18 -18 -18 -18 -18 -19 -18 -19 -19 -19 -20 -21 -21 -21 -22 -22 -23 -23 -23 -23 -23 -22 -22 -23 -23 -24 -24 -24 -24 -24 -24 -25 -25 -25 -26 -26 -26 -25 -25 -26 -26 -25
-16 -16 -16 -16 -16 -16 -17 -16 -16 -17 -17 -17 -18 -18 -18 -16 -18 -19 -19 -19 -20 -20 -20 -21 -21 -22 -22 -22 -22 -22 -22 -22 -23 -23 -23 -23 -24 -24 -25 -24 -25 -25 -26 -26 -26 -26 -26 -26 -26 -26 -26 -26 -26 -25
-16 -16 -16 -16 -17 -17 -17 -17 -17 -17 -17 -18 -18 -19 -19 -19 -19 -19 -19 -19 -20 -20 -20 -21 -22 -22 -22 -22 -22 -22 -22 -23 -24 -24 -24 -24 -25 -25 -25 -25 -26 -26 -25 -26 -26 -27 -27 -27 -27 -26 -26 -26 -26 -26
-15 -16 -16 -16 -16 -16 -16 -17 -17 -18 -17 -18 -18 -17 -18 -19 -19 -20 -20 -20 -20 -20 -21 -21 -22 -22 -22 -22 -23 -23 -23 -24 -24 -24 -24 -25 -25 -25 -25 -26 -26 -27 -27 -26 -26 -27 -27 -27 -27 -27 -27 -26 -26 -26
-16 -16 -16 -17 -16 -16 -17 -17 -15 -18 -17 -18 -18 -18 -19 -19 -19 -19 -20 -20 -20 -20 -21 -21 -22 -22 -22 -22 -23 -24 -24 -24 -24 -24 -25 -25 -25 -25 -26 -26 -27 -27 -27 -28 -28 -28 -27 -27 -27 -28 -27 -27 -27 -27
-16 -16 -16 -16 -17 -16 -17 -18 -18 -17 -17 -18 -18 -18 -18 -19 -19 -19 -20 -20 -21 -21 -21 -22 -22 -22 -22 -23 -23 -24 -24 -24 -24 -24 -24 -24 -25 -25 -26 -27 -27 -27 -28 -28 -28 -28 -28 -28 -28 -28 -28 -27 -27 -27
-16 -16 -16 -17 -17 -17 -17 -17 -17 -18 -17 -17 -18 -18 -19 -19 -19 -20 -19 -20 -20 -21 -21 -21 -22 -22 -22 -22 -23 -23 -23 -24 -24 -24 -24 -24 -25 -25 -26 -27 -27 -28 -28 -28 -28 -28 -28 -28 -28 -28 -27 -27 -27 -27

GFSWCAN_500_temp_042.txt.gz
Temp
-14 -15 -16 -16 -16 -16 -17 -17 -17 -17 -16 -16 -16 -16 -16 -16 -16 -16 -16 -15 -15 -17 -18 -18 -19 -19 -20 -21 -22 -22 -23 -23 -23 -22 -22 -21 -20 -20 -19 -18 -18 -15 -13 -13 -13 -12 -12 -10 -9 -10 -11 -10 -10 -10
-16 -17 -16 -16 -16 -16 -16 -16 -16 -16 -16 -16 -16 -16 -16 -16 -16 -16 -16 -15 -16 -17 -17 -18 -18 -19 -19 -20 -21 -22 -22 -23 -23 -22 -22 -22 -20 -19 -19 -19 -18 -16 -13 -13 -13 -12 -12 -10 -9 -10 -10 -10 -10 -10
-16 -16 -16 -16 -16 -16 -16 -16 -16 -16 -16 -16 -16 -16 -16 -16 -16 -16 -16 -16 -17 -17 -17 -18 -18 -18 -19 -19 -20 -21 -22 -22 -23 -23 -22 -21 -20 -20 -19 -19 -19 -18 -16 -13 -12 -12 -11 -12 -10 -10 -11 -10 -10 -10
-16 -16 -16 -16 -15 -15 -16 -16 -16 -16 -16 -16 -16 -16 -16 -16 -16 -16 -16 -16 -18 -18 -18 -17 -17 -17 -19 -19 -19 -19 -21 -21 -22 -22 -22 -21 -21 -20 -20 -20 -19 -17 -16 -14 -13 -12 -12 -12 -11 -10 -10 -11 -10 -9
-16 -16 -16 -16 -15 -15 -15 -15 -16 -16 -16 -16 -16 -16 -16 -16 -16 -16 -16 -16 -17 -18 -17 -17 -17 -18 -18 -19 -19 -19 -20 -21 -21 -22 -22 -22 -20 -19 -18 -17 -16 -16 -16 -15 -14 -13 -12 -12 -12 -11 -10 -10 -11 -9
-16 -16 -16 -16 -16 -16 -16 -16 -16 -16 -16 -16 -16 -16 -16 -16 -16 -16 -16 -17 -17 -18 -17 -17 -18 -18 -18 -18 -19 -19 -19 -20 -20 -21 -21 -20 -17 -15 -15 -15 -15 -15 -15 -15 -14 -13 -12 -13 -13 -12 -11 -10 -10 -9
-16 -16 -16 -16 -16 -15 -16 -16 -16 -16 -16 -16 -16 -16 -16 -16 -16 -16 -17 -17 -18 -18 -18 -17 -18 -18 -18 -18 -18 -18 -18 -18 -18 -18 -18 -18 -17 -16 -16 -15 -14 -14 -13 -14 -14 -14 -12 -12 -12 -13 -12 -11 -11 -10
-16 -16 -16 -16 -16 -16 -15 -16 -16 -16 -16 -16 -15 -16 -16 -17 -16 -17 -17 -17 -17 -17 -17 -17 -17 -18 -18 -18 -18 -18 -18 -18 -18 -17 -17 -16 -16 -16 -16 -16 -15 -15 -13 -12 -12 -13 -14 -13 -12 -12 -11 -12 -12 -11
-16 -16 -16 -16 -16 -16 -16 -16 -16 -17 -16 -16 -16 -16 -17 -17 -17 -17 -17 -17 -17 -17 -18 -18 -17 -18 -18 -18 -18 -18 -18 -18 -18 -17 -17 -17 -16 -16 -16 -16 -17 -16 -15 -14 -14 -14 -13 -13 -13 -12 -11 -13 -12 -13
-16 -16 -16 -17 -17 -16 -16 -16 -16 -16 -16 -16 -16 -16 -16 -17 -17 -17 -17 -17 -18 -18 -18 -18 -18 -18 -18 -18 -19 -18 -18 -18 -18 -17 -18 -17 -17 -17 -17 -16 -15 -15 -16 -16 -16 -16 -15 -14 -15 -13 -12 -11 -12 -13
-16 -16 -16 -16 -17 -16 -16 -16 -16 -16 -16 -16 -16 -16 -17 -17 -17 -17 -17 -18 -18 -17 -18 -18 -18 -18 -18 -18 -18 -18 -18 -18 -18 -18 -18 -18 -17 -17 -18 -18 -18 -17 -17 -17 -17 -16 -16 -17 -17 -14 -13 -11 -11 -11
-16 -16 -16 -16 -17 -16 -17 -16 -16 -16 -16 -17 -16 -17 -17 -17 -18 -17 -17 -17 -18 -18 -18 -18 -18 -18 -18 -18 -18 -18 -19 -18 -18 -18 -18 -18 -18 -17 -17 -18 -18 -18 -18 -18 -18 -17 -17 -17 -17 -17 -15 -14 -12 -10
-16 -16 -17 -17 -17 -17 -17 -17 -17 -17 -17 -17 -17 -17 -17 -17 -17 -17 -17 -17 -18 -18 -18 -18 -18 -18 -18 -19 -18 -19 -19 -19 -19 -18 -19 -18 -19 -18 -18 -18 -18 -18 -18 -18 -18 -18 -18 -17 -17 -16 -16 -15 -14 -14
-16 -17 -16 -17 -17 -17 -17 -17 -17 -17 -17 -17 -17 -17 -17 -17 -17 -17 -18 -18 -18 -18 -18 -18 -18 -18 -18 -18 -18 -19 -19 -19 -19 -19 -19 -19 -20 -20 -19 -19 -19 -18 -18 -18 -18 -18 -18 -18 -17 -17 -16 -16 -15 -15
-16 -16 -16 -17 -17 -17 -17 -17 -17 -17 -17 -17 -17 -17 -17 -17 -17 -18 -18 -18 -18 -18 -18 -18 -18 -18 -18 -18 -19 -19 -19 -19 -19 -19 -19 -19 -20 -20 -20 -20 -19 -19 -19 -18 -18 -18 -18 -18 -18 -18 -17 -16 -16 -16
-16 -16 -16 -16 -16 -16 -17 -17 -17 -17 -17 -17 -17 -17 -17 -18 -18 -18 -18 -18 -18 -18 -18 -18 -18 -18 -18 -19 -19 -19 -19 -19 -19 -20 -20 -20 -20 -20 -20 -20 -20 -20 -19 -19 -19 -19 -18 -18 -18 -18 -17 -17 -16 -16
-16 -16 -16 -16 -16 -16 -17 -17 -17 -17 -17 -17 -17 -17 -18 -18 -18 -18 -18 -18 -18 -19 -19 -19 -18 -18 -19 -19 -19 -19 -19 -19 -19 -20 -20 -20 -20 -20 -20 -20 -21 -20 -20 -20 -19 -19 -19 -19 -18 -18 -18 -18 -18 -18
-16 -16 -16 -16 -16 -16 -17 -17 -17 -17 -17 -17 -17 -17 -18 -18 -18 -18 -18 -19 -18 -18 -19 -19 -19 -19 -19 -19 -19 -19 -19 -19 -19 -20 -20 -20 -20 -20 -21 -21 -21 -21 -20 -20 -20 -19 -19 -19 -19 -18 -19 -19 -18 -18
-16 -16 -16 -16 -16 -16 -17 -17 -17 -17 -17 -17 -17 -17 -18 -18 -18 -18 -19 -18 -18 -19 -19 -19 -19 -19 -20 -19 -20 -20 -20 -20 -20 -20 -20 -21 -21 -21 -21 -21 -21 -21 -21 -21 -21 -20 -20 -20 -20 -20 -19 -18 -19 -19
-16 -16 -16 -16 -16 -16 -16 -17 -17 -17 -17 -17 -17 -18 -18 -18 -18 -18 -18 -18 -19 -19 -19 -19 -19 -19 -20 -20 -20 -20 -20 -20 -21 -21 -21 -21 -22 -22 -22 -22 -22 -22 -22 -22 -22 -21 -20 -20 -20 -20 -21 -20 -19 -18
-16 -16 -16 -16 -16 -16 -16 -16 -17 -17 -17 -17 -17 -17 -17 -18 -18 -18 -18 -19 -19 -19 -19 -19 -19 -20 -20 -20 -20 -20 -20 -20 -21 -22 -22 -22 -22 -22 -22 -22 -22 -23 -23 -22 -22 -22 -22 -21 -21 -21 -20 -21 -20 -20
-16 -16 -16 -16 -16 -16 -16 -16 -17 -17 -17 -17 -17 -17 -18 -18 -19 -19 -19 -19 -20 -19 -19 -19 -19 -20 -20 -20 -21 -21 -22 -22 -22 -22 -23 -23 -23 -23 -23 -23 -23 -23 -23 -23 -22 -22 -23 -23 -22 -21 -21 -21 -21 -21
-16 -16 -16 -16 -16 -16 -16 -16 -16 -16 -17 -17 -18 -18 -18 -18 -18 -19 -19 -19 -19 -20 -20 -20 -20 -20 -20 -20 -21 -21 -22 -22 -22 -23 -23 -23 -23 -23 -23 -23 -24 -24 -24 -23 -22 -23 -23 -23 -23 -22 -22 -22 -21 -21
-16 -16 -16 -16 -16 -16 -16 -16 -17 -17 -17 -17 -17 -17 -18 -18 -18 -18 -18 -18 -18 -19 -19 -20 -21 -21 -21 -21 -21 -22 -23 -22 -22 -22 -23 -23 -23 -23 -23 -23 -24 -24 -23 -23 -23 -23 -23 -23 -23 -24 -23 -22 -22 -22
-16 -16 -16 -15 -16 -16 -16 -17 -16 -16 -16 -17 -17 -18 -18 -18 -17 -18 -19 -18 -19 -19 -20 -20 -20 -21 -21 -22 -22 -22 -23 -23 -23 -23 -23 -24 -24 -23 -24 -24 -24 -24 -24 -24 -24 -24 -24 -24 -24 -25 -24 -24 -23 -23
-15 -16 -15 -15 -15 -16 -17 -17 -17 -17 -17 -17 -17 -18 -18 -18 -17 -18 -19 -19 -20 -20 -20 -20 -21 -21 -22 -22 -22 -22 -23 -23 -23 -23 -24 -24 -24 -25 -25 -25 -25 -25 -25 -25 -25 -25 -25 -25 -25 -26 -25 -25 -25 -25
-15 -15 -16 -16 -16 -16 -17 -16 -17 -17 -17 -17 -18 -18 -18 -18 -19 -19 -20 -20 -20 -20 -20 -21 -21 -22 -22 -22 -22 -22 -23 -23 -23 -24 -23 -23 -24 -24 -25 -25 -25 -26 -26 -26 -26 -26 -26 -25 -26 -26 -26 -26 -26 -25
-15 -15 -15 -15 -16 -16 -17 -17 -16 -17 -17 -18 -18 -18 -18 -19 -19 -19 -19 -20 -20 -20 -21 -21 -22 -22 -22 -22 -22 -23 -23 -23 -24 -24 -24 -24 -24 -24 -25 -25 -25 -26 -26 -26 -27 -27 -26 -26 -26 -27 -26 -26 -26 -26
-16 -16 -16 -16 -16 -17 -17 -17 -17 -17 -17 -17 -18 -18 -18 -18 -19 -19 -19 -20 -20 -20 -21 -21 -21 -22 -22 -22 -23 -23 -23 -24 -24 -24 -24 -24 -25 -25 -25 -25 -26 -26 -27 -27 -27 -28 -27 -27 -27 -27 -27 -27 -26 -26
-16 -15 -16 -16 -16 -16 -16 -17 -16 -17 -17 -17 -18 -19 -19 -19 -19 -19 -20 -20 -20 -21 -21 -21 -21 -22 -22 -23 -23 -23 -23 -24 -24 -25 -25 -25 -25 -25 -26 -26 -27 -28 -28 -28 -28 -28 -28 -28 -27 -27 -27 -27 -27 -27
-16 -16 -16 -16 -17 -16 -16 -16 -17 -17 -17 -18 -18 -19 -19 -19 -19 -20 -20 -20 -20 -21 -22 -22 -22 -22 -23 -23 -24 -23 -23 -23 -24 -24 -24 -25 -25 -25 -26 -27 -28 -28 -28 -28 -28 -28 -28 -28 -28 -28 -27 -27 -27 -27
-16 -16 -16 -17 -17 -17 -17 -17 -17 -17 -17 -18 -18 -19 -19 -19 -19 -19 -20 -20 -20 -21 -21 -22 -22 -22 -23 -23 -22 -23 -22 -23 -23 -24 -24 -25 -25 -25 -26 -27 -27 -28 -28 -28 -28 -28 -28 -28 -28 -27 -27 -27 -27 -27
-16 -16 -16 -17 -17 -17 -17 -17 -17 -17 -17 -17 -18 -18 -18 -18 -19 -20 -20 -20 -20 -21 -21 -21 -22 -22 -22 -22 -22 -23 -23 -23 -23 -23 -24 -24 -24 -24 -25 -26 -27 -27 -27 -28 -28 -28 -28 -27 -27 -27 -27 -27 -27 -27

GFSWCAN_500_temp_045.txt.gz
Temp
-15 -16 -16 -16 -15 -15 -15 -15 -16 -16 -16 -16 -16 -16 -16 -16 -16 -16 -16 -15 -16 -17 -17 -17 -18 -19 -20 -21 -22 -22 -23 -22 -23 -22 -22 -22 -21 -20 -19 -18 -18 -18 -16 -14 -14 -13 -13 -12 -12 -12 -11 -10 -10 -9
-16 -16 -16 -16 -15 -15 -15 -15 -16 -16 -16 -16 -16 -16 -16 -16 -16 -16 -15 -16 -16 -17 -17 -17 -18 -19 -19 -20 -21 -22 -22 -22 -22 -22 -22 -20 -20 -19 -19 -18 -18 -18 -15 -14 -13 -13 -13 -12 -12 -11 -11 -10 -9 -9
-16 -16 -16 -16 -15 -15 -15 -15 -16 -16 -16 -16 -16 -16 -16 -16 -16 -15 -16 -16 -16 -17 -18 -18 -18 -18 -19 -20 -20 -21 -22 -22 -22 -22 -21 -20 -19 -19 -19 -19 -19 -18 -17 -15 -13 -13 -13 -12 -12 -11 -10 -11 -9 -9
-16 -16 -16 -16 -16 -15 -15 -16 -16 -16 -16 -16 -16 -16 -16 -16 -16 -16 -16 -17 -17 -17 -17 -18 -18 -19 -19 -19 -20 -21 -21 -22 -22 -22 -20 -20 -20 -20 -18 -18 -18 -18 -16 -14 -13 -13 -13 -12 -12 -11 -11 -11 -10 -9
-16 -16 -16 -16 -16 -16 -16 -16 -16 -16 -16 -16 -16 -16 -16 -16 -16 -16 -17 -17 -17 -17 -17 -17 -18 -18 -19 -19 -19 -20 -21 -22 -21 -21 -20 -20 -18 -17 -17 -17 -17 -16 -14 -12 -13 -13 -13 -12 -12 -11 -11 -10 -10 -9
-16 -16 -16 -16 -16 -16 -16 -16 -16 -16 -16 -16 -16 -16 -17 -16 -16 -17 -17 -17 -18 -18 -18 -18 -18 -18 -18 -18 -19 -19 -19 -20 -20 -21 -20 -17 -16 -16 -15 -16 -15 -15 -16 -14 -13 -12 -12 -12 -12 -12 -11 -11 -11 -10
-16 -16 -16 -16 -16 -16 -16 -16 -16 -16 -16 -17 -16 -16 -16 -17 -17 -17 -17 -17 -18 -18 -18 -18 -18 -18 -18 -18 -18 -18 -18 -18 -18 -18 -18 -18 -15 -16 -16 -14 -14 -14 -14 -15 -14 -12 -12 -11 -12 -12 -11 -12 -11 -11
-16 -16 -16 -16 -17 -17 -16 -16 -17 -16 -16 -17 -17 -17 -17 -17 -17 -17 -17 -17 -17 -18 -18 -18 -18 -18 -18 -18 -18 -18 -18 -18 -17 -18 -18 -18 -17 -17 -16 -16 -16 -15 -13 -14 -15 -15 -13 -12 -11 -11 -12 -13 -12 -10
-16 -16 -16 -16 -16 -17 -17 -17 -16 -16 -16 -17 -17 -17 -17 -17 -17 -17 -17 -18 -18 -18 -18 -18 -18 -18 -18 -18 -18 -18 -18 -18 -18 -17 -17 -17 -17 -17 -17 -16 -17 -17 -17 -15 -13 -14 -14 -14 -13 -12 -11 -11 -11 -12
-16 -16 -16 -16 -16 -17 -17 -17 -16 -16 -16 -17 -17 -17 -17 -17 -17 -17 -18 -18 -18 -18 -18 -18 -18 -18 -18 -18 -18 -19 -18 -18 -18 -17 -17 -17 -16 -16 -17 -16 -17 -16 -16 -16 -15 -15 -13 -13 -13 -12 -11 -12 -12 -12
-16 -16 -16 -16 -16 -17 -17 -17 -17 -17 -17 -17 -17 -17 -17 -17 -18 -18 -18 -18 -18 -18 -18 -18 -18 -18 -18 -18 -18 -18 -18 -18 -18 -18 -17 -17 -17 -17 -16 -16 -16 -16 -16 -15 -15 -15 -14 -13 -13 -14 -13 -12 -12 -12
-16 -17 -17 -16 -17 -17 -17 -17 -17 -17 -17 -17 -17 -18 -18 -18 -18 -17 -17 -18 -18 -18 -18 -18 -18 -18 -18 -18 -18 -18 -18 -18 -18 -18 -18 -18 -17 -17 -17 -17 -17 -17 -17 -17 -16 -15 -15 -15 -15 -15 -14 -15 -13 -12
-16 -16 -16 -16 -17 -17 -17 -17 -17 -17 -17 -17 -17 -18 -18 -17 -17 -17 -18 -18 -18 -18 -18 -18 -18 -18 -18 -18 -18 -18 -18 -18 -18 -18 -19 -19 -18 -18 -18 -18 -18 -18 -17 -17 -17 -17 -16 -16 -16 -17 -16 -16 -16 -13
-16 -16 -16 -16 -16 -16 -17 -17 -17 -17 -17 -17 -17 -17 -17 -17 -17 -18 -18 -18 -18 -19 -19 -18 -19 -19 -19 -19 -19 -19 -19 -19 -19 -19 -19 -19 -19 -19 -19 -19 -18 -18 -19 -18 -18 -18 -17 -18 -17 -17 -17 -17 -17 -17
-16 -16 -16 -16 -16 -16 -17 -17 -17 -17 -17 -17 -17 -17 -17 -18 -18 -18 -18 -18 -18 -19 -19 -19 -19 -19 -19 -19 -19 -19 -19 -19 -19 -19 -19 -19 -19 -19 -19 -19 -19 -19 -19 -19 -19 -19 -18 -18 -18 -19 -19 -18 -17 -17
-16 -16 -16 -16 -16 -16 -17 -17 -17 -17 -17 -17 -17 -18 -18 -18 -18 -18 -18 -18 -19 -19 -19 -19 -19 -19 -19 -19 -19 -19 -19 -19 -19 -19 -19 -19 -20 -20 -20 -20 -20 -20 -20 -19 -19 -20 -20 -19 -19 -19 -19 -19 -18 -17
-16 -16 -16 -16 -16 -16 -17 -17 -17 -17 -17 -17 -17 -17 -18 -18 -18 -18 -18 -18 -19 -19 -19 -19 -19 -19 -19 -19 -19 -19 -19 -19 -20 -20 -20 -20 -20 -20 -21 -21 -21 -21 -21 -20 -20 -20 -20 -20 -20 -19 -19 -19 -19 -18
-16 -16 -16 -16 -16 -16 -16 -17 -17 -17 -17 -17 -17 -17 -17 -18 -18 -18 -18 -19 -19 -19 -19 -19 -19 -19 -19 -19 -19 -20 -20 -20 -20 -20 -20 -21 -21 -21 -21 -22 -22 -22 -22 -21 -21 -20 -21 -20 -20 -20 -20 -20 -19 -19
-16 -16 -16 -16 -16 -16 -16 -16 -16 -17 -16 -17 -17 -16 -17 -17 -18 -18 -18 -18 -18 -18 -18 -19 -19 -19 -19 -19 -19 -20 -20 -20 -20 -21 -21 -21 -22 -22 -22 -22 -23 -23 -22 -22 -22 -21 -21 -21 -21 -21 -20 -20 -20 -20
-16 -16 -16 -16 -16 -16 -16 -16 -16 -16 -17 -17 -17 -17 -17 -18 -18 -19 -19 -18 -18 -18 -19 -19 -19 -20 -20 -20 -20 -20 -20 -21 -21 -22 -22 -22 -22 -22 -23 -23 -23 -23 -23 -23 -23 -22 -22 -21 -21 -21 -21 -21 -20 -20
-16 -16 -16 -16 -16 -16 -16 -16 -16 -16 -17 -17 -17 -17 -18 -18 -18 -18 -18 -19 -19 -19 -19 -19 -20 -20 -21 -21 -21 -21 -21 -22 -22 -23 -23 -23 -23 -23 -23 -23 -23 -23 -23 -23 -23 -23 -23 -22 -22 -22 -22 -22 -22 -21
-16 -16 -16 -16 -16 -16 -16 -16 -16 -17 -17 -17 -17 -17 -18 -18 -18 -18 -19 -18 -19 -19 -20 -20 -19 -20 -20 -21 -21 -21 -22 -22 -22 -23 -22 -23 -23 -23 -23 -23 -23 -23 -23 -22 -23 -23 -24 -23 -23 -22 -22 -22 -22 -22
-16 -16 -16 -16 -16 -16 -16 -16 -17 -16 -16 -17 -17 -18 -18 -18 -18 -18 -18 -18 -19 -19 -19 -19 -20 -20 -20 -21 -21 -22 -22 -22 -22 -23 -22 -22 -23 -23 -23 -23 -23 -23 -23 -23 -23 -23 -24 -23 -24 -23 -23 -23 -23 -22
-16 -16 -16 -16 -16 -16 -16 -16 -17 -17 -17 -17 -17 -17 -18 -18 -18 -18 -18 -19 -19 -19 -19 -19 -19 -20 -20 -21 -22 -22 -22 -23 -23 -24 -23 -24 -24 -24 -24 -24 -24 -24 -24 -24 -24 -24 -24 -24 -24 -24 -24 -24 -23 -23
-15 -15 -15 -16 -16 -16 -16 -16 -17 -17 -17 -17 -17 -17 -18 -18 -18 -18 -19 -19 -20 -20 -20 -20 -20 -21 -21 -22 -22 -23 -23 -23 -24 -24 -25 -25 -25 -25 -25 -24 -24 -25 -25 -25 -25 -25 -25 -25 -25 -25 -25 -24 -24 -24
-15 -15 -15 -16 -16 -16 -17 -17 -17 -17 -17 -17 -18 -17 -18 -18 -19 -19 -19 -19 -20 -20 -20 -21 -21 -22 -22 -22 -22 -23 -23 -23 -24 -24 -25 -25 -26 -26 -26 -26 -26 -26 -26 -26 -26 -26 -26 -26 -26 -25 -25 -25 -25 -25
-15 -15 -16 -16 -16 -17 -17 -17 -17 -17 -17 -17 -18 -18 -18 -19 -19 -19 -20 -20 -20 -20 -21 -21 -22 -22 -22 -22 -23 -23 -23 -23 -23 -24 -24 -24 -25 -25 -25 -26 -26 -26 -27 -27 -26 -26 -27 -27 -27 -26 -26 -26 -26 -26
-15 -15 -16 -16 -16 -16 -17 -17 -17 -17 -18 -18 -18 -18 -18 -19 -19 -19 -20 -20 -20 -21 -21 -21 -22 -22 -22 -22 -23 -23 -23 -23 -23 -24 -24 -24 -25 -25 -26 -26 -27 -27 -28 -28 -28 -28 -27 -27 -27 -27 -27 -27 -26 -26
-15 -16 -16 -16 -17 -17 -17 -17 -17 -17 -17 -18 -18 -18 -18 -19 -19 -19 -20 -20 -21 -21 -21 -21 -22 -22 -22 -22 -22 -22 -22 -23 -23 -23 -24 -24 -25 -25 -26 -27 -28 -29 -29 -29 -29 -28 -28 -28 -28 -27 -27 -27 -27 -27
-16 -16 -16 -16 -16 -17 -17 -17 -17 -17 -17 -18 -18 -18 -18 -19 -19 -20 -20 -21 -21 -21 -21 -21 -22 -22 -22 -22 -22 -23 -23 -23 -23 -24 -24 -24 -25 -26 -26 -27 -28 -28 -29 -29 -29 -29 -29 -28 -28 -28 -27 -28 -27 -27
-16 -16 -16 -17 -17 -17 -17 -17 -17 -17 -18 -18 -18 -18 -18 -19 -19 -20 -20 -20 -21 -21 -22 -22 -22 -22 -23 -23 -22 -23 -23 -23 -23 -23 -24 -24 -25 -25 -26 -27 -27 -28 -28 -28 -28 -28 -28 -28 -28 -27 -27 -28 -28 -27
-16 -16 -16 -16 -17 -17 -17 -17 -17 -17 -18 -18 -18 -18 -18 -19 -19 -19 -20 -20 -21 -21 -22 -22 -22 -22 -23 -23 -22 -22 -22 -22 -22 -23 -23 -24 -24 -25 -25 -25 -26 -27 -27 -27 -27 -27 -27 -27 -27 -27 -27 -27 -27 -27
-16 -16 -17 -17 -17 -17 -17 -17 -17 -17 -17 -18 -18 -18 -18 -19 -19 -19 -19 -20 -20 -21 -21 -22 -22 -22 -22 -22 -22 -22 -22 -22 -23 -23 -23 -23 -23 -23 -24 -24 -25 -25 -25 -26 -26 -26 -26 -26 -26 -26 -27 -27 -27 -27

GFSWCAN_500_temp_048.txt.gz
Temp
-15 -16 -16 -16 -16 -15 -15 -15 -15 -15 -16 -16 -16 -16 -16 -16 -16 -16 -16 -16 -16 -16 -16 -17 -18 -19 -20 -21 -22 -22 -22 -21 -22 -22 -22 -22 -22 -22 -22 -21 -20 -20 -18 -18 -16 -16 -15 -14 -13 -13 -12 -12 -11 -9
-15 -16 -16 -16 -16 -15 -16 -16 -16 -16 -16 -16 -16 -16 -16 -16 -16 -16 -16 -16 -16 -17 -17 -17 -18 -19 -20 -20 -22 -22 -21 -21 -21 -21 -21 -21 -21 -21 -21 -20 -20 -19 -19 -17 -16 -14 -15 -14 -14 -13 -12 -12 -11 -9
-16 -16 -16 -16 -16 -16 -15 -16 -16 -16 -16 -16 -16 -16 -16 -17 -16 -16 -16 -16 -17 -17 -17 -18 -18 -19 -19 -20 -21 -21 -20 -20 -20 -20 -20 -20 -20 -19 -19 -19 -18 -18 -18 -17 -16 -15 -15 -14 -14 -13 -13 -12 -11 -10
-16 -16 -16 -16 -16 -16 -16 -15 -16 -16 -16 -16 -16 -16 -17 -17 -17 -16 -17 -17 -17 -17 -18 -18 -18 -19 -19 -20 -20 -19 -19 -19 -18 -18 -19 -19 -18 -18 -18 -18 -18 -18 -17 -17 -16 -14 -14 -14 -13 -13 -12 -11 -11 -10
-16 -16 -16 -16 -16 -16 -16 -16 -16 -16 -16 -17 -17 -17 -17 -17 -17 -17 -17 -17 -17 -18 -18 -18 -18 -18 -19 -19 -20 -20 -20 -19 -19 -20 -19 -18 -18 -17 -17 -16 -17 -17 -16 -16 -15 -14 -13 -13 -13 -13 -12 -12 -11 -10
-16 -16 -16 -16 -16 -17 -16 -16 -16 -16 -16 -16 -17 -17 -17 -17 -17 -17 -18 -18 -18 -18 -18 -19 -19 -19 -19 -19 -20 -20 -20 -20 -20 -19 -19 -18 -19 -18 -16 -15 -15 -16 -16 -14 -13 -14 -13 -13 -12 -12 -13 -12 -11 -10
-16 -16 -16 -16 -16 -16 -16 -17 -17 -16 -16 -16 -17 -17 -17 -17 -17 -18 -18 -18 -18 -19 -19 -19 -19 -19 -19 -19 -19 -19 -20 -20 -19 -19 -19 -19 -19 -18 -17 -15 -15 -15 -15 -15 -15 -14 -13 -13 -13 -12 -12 -13 -12 -11
-15 -16 -16 -16 -16 -16 -17 -16 -17 -17 -17 -16 -17 -17 -17 -17 -17 -17 -17 -18 -18 -18 -19 -19 -19 -18 -19 -19 -19 -19 -19 -20 -19 -19 -19 -19 -18 -18 -18 -17 -17 -17 -16 -15 -14 -14 -14 -13 -13 -13 -13 -12 -12 -12
-16 -16 -16 -16 -16 -16 -17 -17 -17 -17 -17 -17 -17 -17 -17 -17 -17 -18 -18 -18 -18 -18 -18 -19 -19 -18 -19 -19 -19 -19 -19 -19 -19 -19 -19 -18 -18 -18 -18 -18 -18 -18 -18 -17 -15 -15 -15 -14 -14 -13 -13 -12 -12 -12
-16 -16 -16 -16 -16 -16 -17 -17 -17 -17 -17 -17 -17 -17 -17 -18 -18 -18 -18 -18 -18 -18 -18 -18 -18 -18 -19 -19 -19 -19 -19 -19 -19 -19 -19 -18 -18 -18 -18 -18 -18 -18 -18 -18 -17 -16 -14 -14 -14 -14 -13 -13 -12 -11
-16 -16 -16 -16 -16 -17 -17 -17 -17 -17 -17 -17 -17 -17 -18 -18 -18 -18 -18 -18 -18 -18 -18 -18 -18 -18 -18 -18 -18 -19 -19 -19 -19 -19 -18 -18 -18 -18 -18 -18 -18 -18 -18 -18 -17 -17 -17 -16 -15 -13 -13 -13 -13 -12
-16 -16 -16 -16 -16 -16 -17 -17 -17 -17 -17 -17 -17 -17 -18 -18 -18 -18 -18 -18 -18 -18 -18 -19 -18 -18 -19 -19 -19 -19 -19 -19 -19 -19 -19 -19 -19 -19 -19 -18 -18 -18 -18 -18 -17 -17 -16 -16 -16 -14 -13 -13 -12 -12
-16 -16 -16 -16 -16 -16 -16 -17 -17 -17 -17 -17 -17 -17 -18 -18 -18 -18 -18 -18 -18 -18 -19 -19 -19 -19 -19 -19 -19 -19 -19 -19 -19 -19 -19 -19 -19 -19 -19 -19 -19 -19 -19 -18 -18 -18 -17 -16 -16 -16 -15 -14 -13 -12
-16 -16 -16 -16 -16 -16 -16 -17 -17 -17 -17 -17 -17 -17 -18 -18 -18 -18 -18 -18 -18 -18 -18 -19 -19 -19 -19 -19 -19 -19 -19 -19 -19 -19 -19 -19 -19 -19 -19 -19 -20 -19 -19 -19 -19 -19 -18 -17 -17 -16 -16 -16 -15 -15
-16 -16 -16 -16 -16 -16 -16 -17 -17 -17 -17 -17 -17 -17 -17 -18 -18 -18 -18 -18 -18 -18 -18 -18 -18 -19 -18 -19 -19 -19 -19 -19 -19 -20 -20 -20 -20 -20 -20 -20 -20 -20 -20 -20 -20 -20 -19 -19 -18 -18 -17 -16 -16 -17
-16 -16 -16 -16 -16 -16 -16 -16 -17 -17 -17 -17 -17 -17 -17 -17 -18 -18 -18 -18 -18 -18 -18 -18 -18 -18 -18 -18 -19 -19 -19 -19 -19 -20 -20 -20 -20 -20 -20 -21 -21 -21 -20 -20 -20 -20 -20 -20 -20 -19 -19 -18 -18 -18
-15 -15 -15 -16 -16 -16 -16 -17 -17 -17 -17 -17 -17 -17 -17 -17 -17 -18 -18 -18 -18 -18 -18 -18 -18 -18 -19 -19 -19 -19 -19 -20 -20 -20 -20 -21 -21 -21 -22 -22 -21 -21 -21 -21 -21 -21 -21 -21 -21 -20 -20 -19 -19 -19
-15 -15 -15 -16 -16 -16 -16 -16 -16 -16 -16 -17 -17 -17 -17 -17 -18 -18 -18 -18 -18 -18 -18 -19 -19 -19 -19 -19 -19 -20 -20 -20 -20 -21 -21 -21 -22 -22 -22 -22 -22 -22 -22 -22 -22 -21 -21 -21 -21 -21 -21 -21 -21 -19
-15 -16 -16 -16 -16 -16 -16 -16 -16 -16 -17 -17 -17 -17 -17 -17 -18 -18 -18 -18 -18 -18 -18 -19 -19 -19 -19 -19 -20 -20 -21 -21 -21 -21 -21 -22 -22 -22 -22 -22 -23 -23 -23 -23 -23 -23 -22 -22 -22 -22 -21 -21 -21 -21
-15 -16 -16 -16 -16 -16 -16 -16 -16 -16 -16 -16 -17 -17 -17 -18 -18 -18 -18 -18 -18 -19 -19 -19 -19 -19 -19 -20 -20 -20 -21 -21 -22 -21 -22 -22 -22 -22 -22 -22 -22 -22 -22 -22 -23 -23 -23 -23 -23 -22 -22 -22 -21 -21
-16 -16 -16 -16 -16 -16 -16 -16 -16 -16 -17 -17 -17 -17 -18 -18 -18 -18 -18 -18 -18 -18 -18 -19 -19 -19 -20 -19 -20 -20 -22 -21 -22 -22 -22 -23 -23 -23 -23 -23 -23 -23 -23 -23 -23 -23 -23 -23 -23 -23 -22 -22 -22 -22
-16 -16 -16 -16 -16 -16 -16 -16 -16 -17 -17 -17 -17 -18 -18 -18 -17 -18 -18 -18 -18 -19 -19 -19 -19 -19 -19 -20 -20 -21 -21 -21 -22 -23 -23 -23 -23 -23 -23 -23 -24 -24 -24 -24 -24 -24 -24 -23 -23 -23 -23 -23 -22 -23
-16 -16 -16 -16 -16 -16 -16 -16 -16 -17 -17 -17 -17 -17 -17 -18 -17 -18 -18 -18 -19 -19 -20 -20 -20 -20 -21 -21 -21 -21 -22 -22 -23 -23 -24 -24 -24 -24 -24 -24 -24 -24 -24 -25 -24 -24 -24 -24 -24 -24 -23 -23 -23 -23
-16 -16 -16 -16 -16 -16 -16 -17 -17 -17 -17 -17 -17 -18 -17 -18 -18 -19 -19 -19 -20 -20 -20 -21 -21 -21 -21 -21 -22 -22 -23 -23 -24 -24 -24 -24 -24 -25 -25 -24 -24 -25 -25 -25 -25 -25 -25 -25 -25 -25 -24 -24 -23 -24
-16 -16 -16 -16 -16 -16 -16 -17 -17 -17 -17 -18 -18 -18 -18 -18 -19 -19 -19 -20 -20 -20 -21 -21 -21 -22 -22 -22 -23 -23 -23 -23 -24 -25 -25 -25 -25 -25 -25 -25 -25 -25 -25 -26 -26 -26 -26 -26 -26 -25 -25 -25 -24 -24
-15 -15 -16 -16 -16 -16 -17 -17 -17 -17 -18 -18 -18 -18 -18 -18 -18 -19 -19 -20 -20 -21 -21 -21 -22 -22 -22 -23 -23 -23 -23 -23 -23 -24 -24 -25 -25 -26 -26 -26 -26 -26 -26 -26 -26 -26 -26 -26 -26 -26 -26 -26 -25 -25
-16 -16 -16 -16 -16 -17 -17 -17 -17 -17 -18 -18 -18 -17 -18 -18 -19 -19 -19 -20 -20 -21 -21 -22 -22 -22 -23 -23 -22 -23 -23 -23 -23 -24 -24 -25 -25 -26 -27 -28 -29 -28 -28 -28 -27 -27 -27 -27 -27 -27 -26 -26 -26 -26
-16 -16 -16 -16 -17 -17 -17 -17 -17 -18 -18 -18 -18 -18 -18 -19 -19 -19 -20 -20 -20 -21 -21 -22 -22 -22 -23 -22 -22 -23 -22 -23 -23 -23 -24 -24 -25 -26 -26 -27 -28 -29 -29 -29 -29 -29 -28 -28 -28 -27 -27 -27 -27 -27
-16 -16 -16 -16 -17 -17 -17 -17 -17 -17 -18 -18 -18 -18 -18 -19 -19 -19 -20 -20 -21 -21 -21 -21 -22 -22 -22 -22 -22 -22 -22 -22 -22 -23 -23 -24 -25 -26 -26 -27 -28 -30 -29 -29 -29 -29 -29 -28 -28 -28 -27 -27 -27 -27
-16 -16 -16 -17 -17 -17 -17 -17 -17 -17 -18 -18 -18 -18 -18 -19 -19 -20 -20 -20 -21 -21 -21 -21 -22 -22 -22 -22 -22 -22 -22 -23 -23 -23 -23 -24 -24 -25 -25 -26 -27 -28 -28 -28 -28 -28 -28 -28 -28 -28 -27 -27 -27 -27
-16 -16 -16 -17 -17 -17 -17 -17 -17 -17 -17 -17 -17 -18 -18 -19 -19 -20 -20 -20 -21 -21 -21 -21 -22 -22 -22 -22 -22 -22 -22 -23 -23 -23 -23 -23 -23 -24 -25 -25 -26 -26 -27 -27 -27 -27 -27 -27 -27 -27 -27 -27 -27 -27
-16 -16 -17 -17 -17 -17 -17 -17 -17 -17 -17 -17 -17 -18 -18 -19 -19 -19 -19 -20 -20 -21 -21 -21 -22 -22 -22 -22 -22 -22 -22 -22 -22 -22 -23 -23 -23 -23 -23 -24 -24 -25 -25 -26 -26 -26 -26 -26 -26 -27 -27 -27 -27 -27
-16 -16 -16 -16 -17 -17 -17 -17 -17 -17 -17 -17 -17 -18 -18 -18 -19 -19 -19 -20 -20 -21 -21 -21 -21 -21 -21 -21 -21 -22 -22 -22 -22 -22 -23 -23 -23 -23 -23 -24 -24 -24 -24 -25 -25 -25 -25 -26 -26 -26 -26 -26 -26 -26

GFSWCAN_500_temp_051.txt.gz
Temp
-14 -15 -16 -16 -16 -16 -16 -16 -16 -16 -16 -16 -16 -16 -16 -17 -16 -17 -16 -17 -17 -17 -17 -18 -18 -17 -19 -19 -19 -20 -20 -21 -21 -21 -21 -22 -22 -22 -23 -24 -24 -24 -22 -19 -18 -18 -17 -15 -16 -15 -14 -14 -13 -11
-14 -15 -16 -16 -16 -16 -16 -15 -16 -16 -16 -16 -16 -16 -16 -16 -17 -17 -17 -17 -17 -17 -18 -18 -18 -18 -18 -19 -19 -19 -20 -21 -21 -21 -21 -21 -21 -22 -22 -22 -22 -22 -21 -19 -18 -17 -17 -15 -15 -15 -15 -14 -13 -12
-15 -16 -16 -16 -16 -16 -16 -16 -16 -16 -16 -16 -16 -17 -17 -17 -17 -17 -17 -17 -18 -18 -18 -18 -19 -19 -18 -19 -19 -19 -19 -20 -20 -20 -21 -21 -20 -21 -21 -20 -20 -20 -19 -18 -17 -17 -17 -16 -14 -15 -14 -14 -13 -12
-15 -16 -16 -16 -16 -16 -16 -16 -16 -16 -16 -17 -16 -17 -17 -17 -17 -17 -17 -18 -18 -18 -19 -19 -19 -19 -19 -19 -19 -19 -19 -20 -20 -20 -20 -20 -20 -20 -20 -20 -19 -19 -18 -17 -16 -17 -17 -16 -15 -14 -14 -13 -13 -12
-15 -16 -16 -16 -16 -16 -16 -16 -16 -16 -16 -16 -16 -17 -17 -18 -18 -17 -17 -18 -18 -19 -19 -19 -19 -19 -19 -19 -19 -20 -20 -20 -20 -20 -20 -19 -19 -19 -20 -19 -19 -18 -18 -16 -15 -16 -16 -16 -14 -15 -14 -13 -13 -12
-15 -15 -16 -16 -16 -16 -16 -16 -16 -16 -16 -16 -17 -17 -17 -17 -17 -17 -17 -18 -18 -18 -19 -19 -19 -18 -19 -19 -20 -20 -20 -20 -20 -20 -20 -19 -19 -19 -18 -18 -18 -18 -18 -17 -17 -16 -16 -14 -14 -14 -14 -13 -13 -12
-15 -15 -16 -16 -16 -16 -16 -17 -17 -17 -17 -17 -17 -17 -17 -17 -17 -17 -18 -18 -18 -18 -18 -19 -19 -19 -18 -19 -19 -20 -20 -20 -19 -19 -19 -19 -19 -19 -19 -19 -19 -18 -18 -17 -17 -15 -15 -15 -14 -14 -13 -13 -12 -12
-15 -15 -16 -16 -16 -16 -17 -17 -17 -17 -17 -17 -17 -17 -17 -17 -18 -18 -18 -18 -18 -18 -18 -18 -19 -19 -19 -19 -19 -19 -20 -20 -20 -20 -19 -19 -19 -19 -18 -18 -18 -18 -18 -18 -16 -16 -15 -14 -15 -14 -14 -13 -13 -12
-15 -15 -16 -16 -16 -16 -16 -17 -17 -17 -17 -17 -17 -17 -17 -18 -18 -18 -18 -18 -18 -18 -18 -18 -18 -18 -19 -19 -19 -19 -19 -19 -19 -20 -20 -19 -19 -18 -19 -19 -18 -19 -19 -18 -17 -16 -15 -14 -14 -14 -13 -12 -12 -12
-15 -15 -16 -16 -16 -16 -16 -17 -17 -17 -17 -17 -17 -17 -17 -18 -18 -18 -18 -18 -18 -18 -18 -19 -19 -19 -19 -19 -19 -19 -19 -19 -19 -19 -19 -19 -19 -19 -19 -19 -18 -18 -18 -18 -18 -17 -17 -15 -14 -14 -14 -13 -14 -14
-15 -15 -15 -16 -16 -16 -16 -16 -17 -17 -17 -17 -17 -17 -17 -18 -18 -18 -18 -18 -18 -18 -19 -19 -19 -19 -19 -19 -19 -19 -19 -19 -19 -19 -19 -19 -19 -19 -19 -19 -19 -18 -18 -18 -18 -18 -18 -17 -16 -16 -14 -14 -13 -13
-15 -15 -16 -16 -16 -16 -16 -16 -17 -17 -17 -17 -17 -17 -17 -17 -18 -18 -18 -18 -18 -18 -18 -19 -19 -19 -19 -19 -19 -19 -19 -19 -19 -19 -19 -19 -19 -19 -19 -19 -19 -19 -19 -18 -18 -17 -17 -17 -17 -17 -16 -16 -15 -14
-15 -15 -16 -16 -16 -16 -16 -16 -17 -17 -17 -17 -17 -17 -17 -18 -18 -18 -18 -18 -18 -18 -18 -18 -18 -18 -18 -18 -19 -19 -19 -19 -19 -19 -19 -19 -19 -19 -20 -20 -20 -20 -19 -19 -19 -19 -18 -17 -17 -17 -17 -16 -15 -15
-15 -16 -16 -16 -16 -16 -16 -16 -16 -16 -16 -17 -17 -17 -17 -17 -17 -18 -18 -18 -18 -18 -18 -18 -18 -18 -18 -18 -18 -18 -18 -19 -19 -19 -19 -20 -20 -20 -20 -20 -20 -20 -20 -20 -20 -19 -19 -19 -18 -17 -16 -16 -16 -16
-15 -15 -16 -16 -16 -16 -16 -16 -16 -16 -16 -17 -17 -16 -16 -17 -17 -18 -18 -18 -18 -18 -18 -18 -18 -18 -18 -18 -18 -18 -19 -19 -19 -19 -19 -20 -20 -20 -20 -21 -21 -21 -21 -20 -20 -20 -20 -19 -19 -19 -18 -18 -17 -16
-15 -15 -16 -16 -16 -16 -16 -16 -16 -16 -16 -17 -17 -17 -17 -17 -17 -17 -18 -18 -18 -18 -18 -18 -18 -18 -19 -19 -19 -19 -19 -19 -19 -20 -20 -20 -20 -21 -21 -22 -22 -22 -21 -21 -21 -21 -20 -20 -20 -20 -19 -19 -19 -18
-15 -15 -16 -16 -16 -16 -16 -16 -16 -16 -16 -16 -17 -17 -17 -17 -17 -18 -18 -18 -18 -18 -18 -18 -19 -19 -19 -19 -19 -20 -20 -20 -20 -20 -21 -21 -21 -22 -22 -22 -22 -22 -22 -22 -22 -21 -21 -21 -21 -21 -21 -20 -19 -19
-15 -15 -15 -16 -16 -16 -16 -16 -16 -16 -16 -16 -17 -17 -17 -17 -18 -18 -18 -18 -18 -18 -18 -19 -19 -18 -19 -19 -19 -20 -20 -20 -21 -22 -22 -22 -22 -22 -22 -22 -22 -22 -22 -22 -22 -22 -22 -22 -22 -21 -21 -21 -21 -20
-15 -15 -16 -16 -16 -16 -16 -16 -16 -16 -16 -16 -17 -17 -17 -18 -18 -18 -18 -18 -18 -18 -18 -18 -18 -18 -19 -19 -19 -20 -20 -20 -22 -23 -22 -22 -22 -22 -22 -23 -23 -23 -23 -23 -22 -22 -22 -22 -22 -22 -22 -21 -21 -21
-15 -15 -16 -16 -16 -16 -16 -16 -16 -16 -16 -16 -17 -17 -17 -18 -17 -17 -17 -18 -18 -19 -19 -19 -19 -19 -20 -20 -20 -21 -22 -22 -22 -22 -22 -23 -23 -23 -23 -23 -23 -23 -23 -23 -23 -23 -23 -23 -22 -22 -22 -22 -22 -22
-15 -16 -16 -16 -16 -16 -16 -16 -16 -16 -17 -16 -17 -17 -17 -17 -17 -18 -18 -18 -19 -19 -19 -20 -20 -20 -21 -21 -21 -21 -22 -23 -23 -23 -22 -23 -23 -23 -24 -24 -24 -24 -24 -24 -24 -24 -24 -23 -23 -22 -22 -22 -22 -22
-16 -16 -16 -16 -16 -16 -16 -16 -16 -16 -17 -17 -17 -17 -17 -17 -18 -18 -18 -19 -19 -20 -20 -20 -21 -21 -21 -21 -22 -22 -22 -23 -23 -23 -23 -23 -23 -23 -24 -24 -25 -25 -25 -25 -25 -25 -24 -24 -24 -24 -23 -23 -23 -23
-16 -16 -15 -16 -16 -16 -16 -16 -16 -17 -17 -17 -17 -18 -18 -17 -18 -18 -19 -19 -20 -20 -21 -21 -21 -21 -21 -22 -22 -22 -23 -23 -23 -23 -23 -23 -23 -24 -24 -24 -25 -25 -25 -26 -26 -25 -25 -25 -25 -24 -24 -24 -24 -24
-15 -15 -15 -16 -16 -16 -16 -17 -17 -17 -17 -17 -17 -17 -18 -18 -18 -19 -19 -19 -20 -20 -21 -21 -21 -22 -22 -22 -23 -23 -23 -23 -23 -23 -24 -24 -24 -25 -25 -25 -25 -26 -26 -26 -26 -26 -26 -26 -26 -25 -25 -25 -24 -24
-15 -15 -15 -16 -16 -16 -16 -17 -17 -17 -17 -17 -17 -18 -18 -18 -18 -19 -19 -20 -20 -20 -21 -21 -22 -22 -23 -23 -23 -23 -23 -23 -23 -23 -24 -24 -25 -25 -26 -26 -26 -27 -27 -27 -27 -27 -27 -27 -26 -26 -26 -26 -25 -25
-15 -16 -16 -16 -16 -16 -17 -17 -17 -17 -17 -17 -17 -18 -18 -18 -18 -18 -19 -20 -20 -21 -21 -22 -22 -23 -23 -23 -23 -23 -23 -23 -23 -23 -23 -24 -25 -25 -26 -27 -27 -28 -29 -28 -28 -29 -28 -28 -27 -27 -26 -26 -26 -26
-16 -16 -16 -16 -16 -17 -17 -17 -17 -17 -17 -17 -17 -18 -18 -18 -18 -19 -19 -20 -20 -21 -22 -22 -23 -23 -23 -23 -22 -22 -23 -23 -23 -23 -23 -24 -25 -25 -26 -27 -29 -29 -29 -29 -29 -29 -29 -29 -28 -27 -27 -27 -26 -26
-16 -16 -16 -16 -16 -17 -17 -17 -17 -17 -17 -17 -17 -17 -18 -18 -19 -19 -19 -19 -20 -21 -22 -22 -22 -22 -22 -22 -22 -22 -22 -23 -23 -23 -23 -24 -24 -25 -26 -27 -28 -28 -29 -29 -29 -29 -29 -28 -28 -28 -27 -27 -27 -27
-16 -16 -16 -16 -17 -17 -17 -17 -17 -17 -17 -17 -17 -18 -18 -18 -19 -19 -19 -19 -20 -21 -21 -22 -22 -22 -21 -21 -22 -22 -22 -22 -22 -23 -23 -23 -24 -24 -25 -26 -26 -27 -28 -28 -28 -28 -28 -28 -28 -27 -27 -27 -27 -27
-16 -16 -16 -16 -17 -17 -17 -17 -17 -17 -17 -17 -17 -18 -18 -19 -19 -19 -19 -19 -20 -21 -21 -21 -21 -21 -21 -21 -22 -22 -22 -22 -22 -23 -23 -23 -23 -24 -24 -25 -26 -26 -26 -27 -27 -27 -27 -27 -27 -27 -27 -27 -27 -27
-16 -16 -16 -16 -17 -17 -17 -17 -17 -17 -17 -17 -17 -18 -18 -19 -19 -19 -19 -19 -20 -21 -21 -21 -21 -21 -21 -21 -21 -22 -22 -22 -22 -22 -23 -23 -23 -23 -24 -24 -24 -25 -25 -26 -26 -26 -26 -26 -26 -27 -27 -27 -27 -27
-16 -16 -16 -17 -17 -17 -17 -17 -17 -17 -17 -17 -17 -17 -18 -18 -19 -19 -19 -19 -20 -20 -20 -21 -21 -21 -21 -21 -21 -21 -21 -22 -22 -22 -22 -22 -23 -23 -23 -23 -24 -24 -24 -25 -25 -25 -25 -25 -26 -26 -26 -26 -26 -26
-16 -16 -16 -17 -17 -17 -17 -17 -17 -17 -17 -17 -17 -17 -18 -18 -19 -19 -19 -19 -19 -20 -20 -21 -21 -21 -21 -21 -21 -21 -21 -21 -22 -22 -22 -22 -22 -22 -23 -23 -23 -23 -23 -24 -24 -24 -24 -25 -25 -25 -25 -25 -25 -25

GFSWCAN_500_temp_054.txt.gz
Temp
-13 -14 -14 -15 -15 -15 -16 -16 -15 -16 -16 -16 -16 -16 -17 -17 -17 -17 -17 -18 -18 -18 -18 -18 -18 -18 -18 -19 -19 -19 -19 -20 -21 -21 -21 -21 -21 -22 -23 -23 -24 -24 -24 -24 -23 -22 -21 -19 -18 -18 -17 -17 -15 -15
-13 -14 -15 -15 -15 -15 -16 -16 -16 -16 -16 -17 -16 -16 -16 -17 -17 -18 -18 -18 -18 -19 -18 -18 -18 -18 -18 -18 -18 -18 -19 -20 -21 -21 -21 -21 -21 -22 -23 -23 -23 -24 -24 -23 -22 -21 -20 -18 -17 -17 -17 -16 -15 -14
-13 -14 -15 -15 -15 -16 -16 -16 -16 -16 -16 -16 -16 -16 -16 -17 -17 -17 -17 -18 -18 -18 -19 -19 -19 -19 -19 -19 -19 -19 -20 -20 -21 -21 -21 -20 -21 -21 -22 -22 -22 -22 -22 -21 -21 -20 -20 -19 -17 -16 -15 -14 -14 -14
-14 -14 -15 -15 -15 -16 -16 -16 -16 -16 -16 -17 -17 -17 -17 -17 -17 -17 -17 -18 -18 -18 -19 -19 -19 -19 -19 -19 -19 -19 -19 -20 -20 -21 -21 -21 -20 -20 -21 -21 -21 -20 -20 -19 -19 -19 -19 -18 -18 -16 -15 -14 -14 -14
-14 -14 -15 -15 -15 -16 -16 -16 -16 -16 -17 -17 -17 -17 -17 -17 -17 -18 -18 -18 -18 -18 -19 -19 -19 -19 -19 -19 -19 -19 -19 -19 -20 -20 -20 -20 -20 -20 -20 -20 -20 -20 -19 -19 -18 -18 -18 -18 -17 -16 -16 -13 -14 -14
-14 -14 -15 -15 -16 -16 -16 -16 -16 -16 -17 -17 -17 -17 -17 -17 -18 -18 -18 -18 -18 -18 -18 -18 -19 -19 -19 -19 -19 -19 -19 -20 -20 -20 -20 -20 -20 -20 -19 -19 -19 -19 -19 -19 -18 -18 -17 -18 -17 -16 -16 -13 -14 -14
-14 -14 -15 -15 -15 -16 -16 -16 -16 -17 -17 -17 -17 -17 -17 -17 -17 -18 -18 -18 -18 -18 -18 -18 -19 -19 -19 -19 -19 -19 -19 -20 -20 -20 -20 -19 -20 -19 -19 -19 -19 -19 -18 -19 -18 -17 -17 -16 -17 -16 -15 -15 -14 -14
-14 -14 -15 -15 -15 -16 -16 -16 -16 -16 -17 -17 -17 -17 -17 -17 -18 -18 -18 -18 -18 -18 -19 -18 -19 -19 -19 -19 -19 -19 -19 -19 -20 -20 -20 -20 -20 -20 -19 -20 -19 -19 -18 -18 -18 -18 -17 -16 -17 -16 -14 -15 -14 -14
-14 -14 -15 -15 -15 -16 -16 -16 -16 -17 -17 -17 -17 -17 -17 -17 -18 -18 -18 -18 -18 -18 -19 -19 -19 -19 -19 -19 -19 -19 -19 -19 -19 -19 -19 -19 -19 -19 -19 -19 -19 -19 -19 -20 -18 -17 -18 -16 -15 -15 -15 -14 -14 -14
-14 -14 -15 -15 -15 -15 -16 -16 -16 -17 -17 -17 -17 -17 -17 -17 -18 -18 -18 -18 -19 -18 -18 -18 -19 -19 -19 -19 -19 -19 -19 -19 -19 -19 -19 -19 -19 -19 -19 -19 -19 -19 -19 -19 -18 -18 -18 -16 -16 -15 -15 -14 -14 -14
-14 -14 -15 -15 -15 -15 -16 -16 -16 -16 -16 -17 -17 -17 -17 -17 -17 -18 -18 -18 -18 -18 -18 -18 -18 -18 -18 -18 -18 -18 -18 -18 -19 -19 -19 -19 -19 -19 -19 -19 -19 -19 -19 -19 -19 -19 -18 -17 -17 -16 -16 -14 -14 -13
-14 -14 -15 -15 -15 -15 -16 -16 -16 -16 -16 -17 -16 -16 -17 -17 -17 -17 -18 -18 -18 -18 -18 -18 -18 -18 -18 -18 -18 -18 -18 -18 -18 -19 -19 -19 -19 -19 -19 -19 -19 -19 -19 -19 -19 -19 -19 -18 -18 -18 -17 -15 -15 -14
-14 -15 -15 -15 -15 -15 -16 -16 -16 -16 -16 -17 -16 -16 -16 -17 -17 -17 -18 -18 -18 -18 -18 -18 -18 -18 -18 -18 -18 -18 -18 -18 -18 -18 -18 -18 -19 -19 -19 -19 -19 -20 -20 -19 -19 -19 -19 -19 -19 -18 -18 -17 -16 -16
-15 -15 -15 -15 -15 -15 -16 -16 -16 -16 -16 -16 -16 -16 -17 -17 -17 -17 -18 -18 -18 -18 -18 -18 -18 -18 -18 -18 -19 -19 -19 -19 -19 -19 -19 -19 -19 -19 -19 -19 -20 -20 -20 -21 -20 -20 -19 -19 -19 -19 -18 -18 -17 -17
-15 -15 -15 -15 -15 -16 -16 -16 -16 -16 -16 -16 -16 -16 -17 -17 -17 -17 -18 -18 -18 -18 -18 -18 -18 -18 -18 -19 -19 -19 -19 -19 -19 -20 -19 -20 -20 -19 -19 -19 -19 -20 -20 -21 -21 -20 -20 -20 -19 -19 -19 -19 -18 -17
-15 -15 -15 -16 -16 -16 -16 -16 -16 -16 -16 -16 -16 -16 -17 -17 -17 -17 -18 -18 -18 -18 -17 -18 -18 -18 -18 -18 -19 -19 -19 -19 -20 -21 -20 -20 -21 -20 -20 -20 -21 -21 -21 -21 -21 -21 -21 -21 -20 -20 -19 -19 -19 -19
-14 -15 -15 -16 -16 -16 -16 -16 -16 -16 -16 -16 -16 -16 -17 -17 -17 -17 -17 -18 -18 -18 -18 -18 -18 -18 -18 -19 -19 -19 -20 -20 -20 -20 -20 -21 -21 -22 -21 -22 -22 -22 -22 -22 -21 -21 -21 -21 -21 -21 -21 -20 -20 -19
-14 -15 -15 -16 -16 -16 -16 -16 -16 -16 -16 -16 -16 -16 -17 -17 -17 -17 -17 -18 -18 -18 -19 -19 -19 -19 -20 -20 -20 -20 -21 -21 -22 -22 -22 -22 -22 -22 -22 -23 -23 -23 -23 -23 -22 -22 -22 -22 -21 -21 -22 -21 -21 -20
-14 -15 -15 -15 -16 -16 -16 -16 -16 -16 -16 -16 -16 -17 -17 -17 -17 -17 -18 -18 -18 -18 -19 -19 -20 -20 -20 -20 -21 -21 -21 -22 -22 -23 -23 -23 -23 -23 -23 -23 -24 -23 -24 -23 -23 -23 -23 -22 -22 -22 -22 -22 -22 -22
-15 -15 -15 -16 -16 -16 -16 -16 -16 -16 -16 -16 -16 -17 -17 -17 -17 -18 -18 -18 -19 -19 -20 -20 -20 -21 -21 -21 -22 -22 -22 -22 -23 -23 -23 -24 -24 -24 -23 -23 -24 -24 -24 -24 -24 -24 -23 -23 -23 -22 -22 -22 -22 -22
-15 -15 -16 -16 -16 -16 -16 -16 -16 -16 -16 -16 -17 -17 -17 -17 -18 -18 -19 -19 -19 -20 -20 -21 -21 -21 -22 -22 -22 -22 -22 -23 -23 -23 -24 -23 -23 -23 -23 -24 -24 -25 -25 -25 -25 -25 -25 -24 -24 -24 -23 -23 -23 -23
-15 -15 -15 -15 -16 -16 -16 -16 -16 -16 -17 -17 -17 -17 -17 -18 -18 -19 -19 -19 -19 -20 -20 -21 -21 -21 -22 -22 -22 -22 -22 -23 -23 -23 -23 -23 -24 -24 -24 -25 -25 -25 -25 -26 -26 -26 -25 -25 -25 -24 -24 -24 -24 -23
-15 -15 -15 -15 -16 -16 -16 -16 -16 -17 -17 -17 -17 -17 -18 -18 -18 -19 -19 -19 -20 -20 -21 -21 -21 -22 -22 -22 -22 -22 -22 -23 -23 -23 -23 -24 -24 -25 -25 -25 -26 -26 -26 -26 -26 -26 -26 -26 -25 -25 -25 -25 -25 -24
-15 -15 -15 -15 -16 -16 -16 -16 -17 -17 -17 -17 -17 -18 -18 -18 -19 -19 -19 -19 -20 -20 -21 -21 -22 -22 -22 -22 -22 -22 -22 -22 -23 -23 -23 -23 -24 -25 -26 -26 -27 -27 -28 -28 -28 -27 -27 -27 -26 -26 -26 -26 -25 -25
-15 -15 -15 -15 -16 -16 -16 -16 -17 -17 -17 -17 -17 -18 -18 -18 -19 -19 -19 -20 -20 -21 -21 -21 -21 -21 -22 -22 -22 -22 -22 -23 -23 -23 -23 -24 -25 -25 -26 -27 -28 -28 -28 -28 -29 -29 -28 -28 -27 -27 -26 -26 -26 -25
-15 -16 -15 -15 -16 -16 -17 -17 -17 -17 -17 -17 -17 -17 -18 -18 -18 -19 -19 -20 -20 -21 -21 -21 -21 -21 -21 -22 -22 -22 -22 -23 -23 -23 -23 -24 -24 -25 -26 -27 -28 -29 -29 -29 -29 -29 -29 -29 -28 -27 -27 -26 -26 -26
-16 -16 -16 -16 -16 -16 -16 -17 -17 -17 -17 -17 -17 -17 -18 -18 -18 -19 -19 -20 -20 -21 -21 -21 -21 -21 -22 -22 -22 -22 -22 -23 -23 -23 -23 -23 -24 -25 -26 -26 -27 -28 -29 -29 -29 -29 -29 -29 -28 -28 -27 -27 -26 -26
-16 -16 -16 -16 -16 -16 -16 -16 -17 -17 -17 -17 -17 -17 -18 -18 -19 -19 -19 -19 -20 -20 -20 -21 -21 -21 -21 -21 -22 -22 -22 -22 -23 -23 -23 -23 -23 -24 -25 -26 -26 -27 -28 -28 -28 -28 -28 -28 -28 -28 -27 -27 -26 -26
-16 -16 -16 -16 -16 -16 -17 -17 -17 -17 -17 -17 -17 -17 -18 -18 -19 -19 -19 -19 -20 -20 -20 -20 -21 -21 -21 -21 -21 -21 -21 -22 -22 -22 -22 -23 -23 -23 -24 -25 -25 -26 -26 -27 -27 -27 -27 -27 -27 -27 -27 -27 -27 -27
-16 -16 -16 -16 -16 -17 -17 -17 -17 -17 -17 -17 -17 -17 -18 -18 -19 -19 -19 -19 -19 -20 -20 -20 -21 -21 -21 -21 -21 -21 -21 -21 -21 -22 -22 -22 -22 -23 -23 -24 -24 -24 -25 -26 -26 -26 -27 -27 -27 -27 -27 -27 -27 -27
-16 -16 -16 -16 -17 -17 -17 -17 -17 -17 -17 -17 -17 -17 -18 -18 -18 -19 -19 -19 -19 -20 -20 -21 -21 -21 -21 -21 -21 -21 -21 -21 -21 -21 -22 -22 -22 -22 -22 -23 -23 -24 -24 -24 -25 -25 -25 -26 -26 -26 -26 -26 -26 -26
-16 -16 -16 -17 -17 -17 -17 -17 -17 -17 -17 -17 -17 -18 -18 -18 -18 -19 -19 -19 -19 -19 -20 -21 -21 -20 -21 -21 -21 -21 -21 -21 -21 -21 -21 -22 -22 -22 -22 -22 -23 -23 -23 -23 -24 -24 -24 -25 -25 -25 -25 -25 -25 -25
-16 -16 -16 -17 -17 -17 -17 -17 -17 -17 -17 -17 -17 -18 -18 -18 -18 -18 -19 -19 -19 -19 -20 -20 -20 -20 -21 -21 -21 -21 -21 -21 -21 -21 -21 -21 -22 -22 -22 -22 -22 -23 -23 -23 -23 -24 -24 -24 -24 -25 -25 -25 -25 -25

GFSWCAN_500_temp_057.txt.gz
Temp
-13 -13 -13 -14 -15 -15 -15 -16 -16 -16 -16 -16 -16 -16 -17 -17 -17 -17 -17 -17 -18 -18 -18 -18 -18 -18 -18 -18 -18 -18 -18 -18 -19 -20 -21 -21 -21 -22 -22 -23 -22 -23 -23 -22 -23 -23 -22 -22 -21 -21 -19 -18 -16 -16
-13 -13 -13 -14 -15 -15 -15 -16 -16 -16 -16 -16 -16 -16 -17 -17 -17 -17 -17 -17 -18 -18 -18 -18 -18 -19 -18 -18 -18 -18 -19 -19 -19 -20 -21 -21 -21 -21 -22 -22 -22 -22 -22 -23 -23 -22 -22 -22 -21 -20 -19 -18 -17 -16
-13 -13 -13 -14 -15 -15 -15 -16 -16 -16 -16 -16 -16 -17 -17 -17 -17 -17 -18 -18 -18 -18 -18 -18 -18 -19 -19 -18 -19 -19 -19 -20 -20 -20 -21 -21 -21 -21 -21 -21 -22 -22 -22 -22 -22 -21 -21 -21 -20 -19 -19 -17 -17 -16
-13 -13 -13 -14 -15 -15 -15 -16 -16 -16 -16 -16 -17 -17 -17 -17 -17 -17 -18 -18 -18 -18 -18 -18 -18 -18 -19 -19 -19 -19 -19 -19 -19 -20 -21 -21 -21 -21 -21 -21 -21 -21 -21 -21 -20 -20 -20 -19 -19 -19 -18 -17 -15 -16
-13 -13 -13 -14 -14 -15 -15 -16 -16 -16 -16 -17 -17 -17 -17 -17 -17 -18 -18 -18 -18 -18 -18 -18 -18 -19 -19 -19 -19 -19 -19 -19 -20 -20 -20 -21 -20 -21 -21 -21 -20 -20 -19 -19 -19 -19 -19 -19 -19 -18 -18 -17 -16 -16
-13 -13 -14 -14 -14 -15 -15 -15 -16 -16 -16 -17 -17 -17 -17 -17 -18 -18 -18 -18 -18 -18 -18 -19 -19 -19 -19 -19 -19 -19 -19 -19 -19 -20 -20 -20 -21 -20 -20 -20 -20 -19 -19 -19 -19 -19 -18 -19 -18 -18 -17 -16 -16 -15
-13 -13 -14 -14 -15 -15 -15 -15 -16 -16 -17 -17 -17 -17 -17 -17 -18 -18 -18 -18 -18 -18 -18 -19 -18 -18 -19 -19 -19 -19 -19 -19 -19 -19 -19 -20 -20 -19 -20 -20 -19 -19 -19 -19 -19 -18 -18 -17 -17 -18 -17 -17 -16 -16
-13 -13 -14 -14 -15 -15 -15 -15 -16 -16 -16 -16 -16 -17 -17 -17 -17 -18 -18 -18 -18 -18 -18 -18 -18 -18 -19 -19 -19 -19 -19 -19 -19 -19 -19 -20 -20 -20 -19 -19 -19 -20 -20 -20 -19 -19 -18 -18 -17 -17 -17 -17 -15 -16
-13 -14 -14 -15 -15 -15 -15 -16 -16 -16 -16 -16 -16 -16 -16 -17 -17 -17 -18 -18 -18 -18 -18 -18 -18 -18 -18 -18 -19 -19 -19 -19 -19 -19 -19 -19 -20 -19 -19 -19 -19 -20 -19 -19 -19 -20 -19 -18 -18 -17 -17 -16 -16 -16
-13 -14 -14 -15 -15 -15 -16 -16 -16 -16 -16 -16 -16 -16 -16 -16 -17 -17 -17 -18 -18 -18 -18 -18 -18 -18 -18 -18 -18 -18 -18 -18 -18 -18 -18 -19 -19 -19 -19 -19 -19 -19 -20 -20 -19 -19 -19 -20 -18 -18 -17 -16 -16 -15
-13 -14 -14 -15 -15 -15 -16 -16 -16 -16 -16 -16 -16 -16 -16 -17 -17 -17 -17 -17 -18 -18 -18 -17 -17 -17 -17 -18 -18 -18 -18 -19 -18 -19 -19 -19 -19 -19 -19 -19 -19 -19 -18 -19 -20 -19 -19 -19 -19 -19 -17 -16 -15 -15
-14 -14 -15 -15 -15 -15 -16 -16 -16 -16 -16 -16 -16 -16 -17 -17 -17 -17 -17 -17 -18 -18 -18 -18 -17 -17 -17 -18 -18 -18 -18 -19 -19 -19 -19 -19 -19 -19 -19 -19 -19 -19 -19 -19 -19 -19 -19 -19 -19 -18 -18 -17 -16 -15
-14 -14 -15 -15 -15 -15 -16 -16 -16 -16 -16 -16 -16 -16 -16 -17 -17 -17 -17 -18 -18 -18 -18 -18 -18 -18 -18 -18 -18 -18 -18 -19 -19 -19 -19 -19 -19 -19 -19 -19 -19 -19 -19 -19 -19 -19 -19 -19 -19 -19 -18 -19 -18 -17
-14 -15 -15 -15 -15 -15 -16 -16 -16 -16 -16 -16 -16 -16 -16 -16 -17 -17 -18 -18 -18 -18 -18 -18 -18 -18 -18 -18 -18 -18 -19 -19 -20 -20 -20 -20 -20 -20 -20 -19 -19 -19 -19 -19 -19 -19 -19 -19 -19 -19 -19 -19 -19 -19
-14 -15 -15 -15 -15 -15 -16 -16 -16 -16 -16 -16 -16 -16 -16 -17 -17 -18 -18 -17 -18 -18 -18 -18 -18 -18 -18 -17 -19 -19 -19 -20 -20 -20 -21 -20 -20 -20 -20 -20 -20 -20 -20 -20 -21 -20 -20 -20 -20 -19 -19 -19 -19 -18
-15 -15 -15 -15 -15 -16 -16 -16 -16 -16 -16 -16 -16 -16 -17 -17 -18 -17 -18 -18 -18 -18 -18 -18 -19 -19 -19 -20 -20 -20 -19 -20 -20 -21 -21 -21 -21 -21 -21 -21 -21 -21 -21 -21 -22 -22 -21 -21 -21 -21 -20 -20 -19 -19
-14 -14 -15 -15 -15 -16 -16 -16 -16 -16 -16 -16 -16 -16 -16 -17 -17 -17 -17 -17 -18 -18 -18 -19 -20 -20 -20 -20 -20 -21 -21 -21 -21 -21 -22 -22 -22 -22 -22 -22 -22 -22 -22 -22 -22 -22 -22 -22 -22 -21 -21 -20 -20 -19
-14 -15 -15 -15 -16 -16 -16 -16 -16 -16 -16 -16 -16 -16 -17 -17 -17 -17 -17 -18 -18 -19 -19 -20 -20 -20 -21 -21 -21 -21 -21 -21 -22 -22 -22 -22 -23 -23 -23 -23 -23 -23 -23 -22 -22 -22 -23 -23 -22 -22 -22 -21 -21 -20
-14 -15 -15 -15 -16 -16 -16 -16 -16 -16 -16 -16 -16 -16 -17 -17 -17 -18 -18 -18 -19 -19 -20 -20 -20 -20 -21 -21 -21 -22 -22 -22 -22 -22 -23 -23 -24 -24 -24 -23 -23 -23 -23 -23 -23 -23 -23 -23 -23 -23 -23 -22 -22 -21
-14 -15 -15 -16 -16 -16 -16 -16 -16 -16 -16 -16 -16 -17 -17 -17 -18 -18 -18 -18 -19 -20 -20 -20 -21 -21 -21 -22 -22 -22 -22 -22 -22 -22 -23 -23 -23 -23 -23 -24 -24 -24 -24 -24 -24 -24 -24 -24 -23 -23 -23 -23 -23 -22
-15 -15 -15 -16 -16 -16 -16 -16 -16 -16 -16 -17 -17 -17 -17 -17 -18 -18 -19 -19 -20 -20 -20 -21 -21 -21 -22 -22 -22 -22 -22 -22 -22 -22 -23 -23 -23 -23 -24 -24 -24 -25 -25 -25 -25 -25 -25 -25 -25 -24 -24 -24 -24 -23
-15 -15 -15 -15 -16 -16 -16 -16 -16 -16 -16 -17 -17 -17 -18 -18 -18 -18 -19 -19 -20 -20 -20 -21 -21 -21 -21 -21 -22 -21 -22 -22 -22 -22 -23 -23 -24 -24 -25 -25 -26 -26 -26 -27 -27 -27 -26 -26 -26 -26 -25 -25 -25 -24
-15 -15 -15 -15 -15 -16 -16 -16 -16 -16 -17 -17 -17 -17 -18 -18 -18 -18 -18 -19 -19 -20 -20 -20 -20 -21 -21 -21 -21 -22 -22 -22 -22 -23 -23 -23 -23 -24 -25 -25 -26 -27 -28 -28 -28 -28 -27 -28 -27 -27 -26 -26 -25 -25
-15 -15 -15 -15 -16 -16 -16 -16 -16 -17 -17 -17 -17 -17 -18 -18 -18 -18 -19 -19 -20 -20 -20 -20 -21 -21 -21 -21 -21 -22 -22 -22 -22 -23 -23 -23 -24 -25 -26 -27 -27 -28 -28 -28 -28 -27 -28 -28 -28 -27 -27 -26 -26 -25
-15 -15 -15 -15 -16 -16 -16 -17 -17 -17 -17 -17 -17 -17 -17 -18 -18 -18 -19 -19 -20 -20 -20 -20 -20 -21 -21 -21 -21 -21 -21 -22 -22 -23 -23 -23 -24 -25 -26 -27 -27 -28 -28 -29 -29 -29 -29 -29 -28 -28 -28 -27 -26 -26
-15 -15 -15 -16 -16 -16 -17 -17 -17 -17 -17 -17 -17 -17 -17 -18 -18 -18 -19 -19 -19 -20 -20 -21 -21 -21 -21 -21 -21 -21 -21 -22 -22 -22 -23 -23 -24 -25 -25 -27 -27 -28 -28 -29 -29 -29 -28 -28 -29 -28 -27 -27 -26 -26
-15 -15 -15 -16 -16 -16 -16 -17 -17 -17 -17 -17 -17 -17 -17 -17 -18 -18 -18 -19 -19 -20 -20 -20 -20 -20 -20 -21 -21 -21 -21 -21 -21 -22 -22 -23 -23 -24 -24 -25 -26 -27 -27 -28 -28 -28 -28 -28 -28 -28 -27 -27 -26 -26
-15 -15 -16 -16 -16 -16 -16 -17 -16 -16 -17 -17 -17 -17 -17 -18 -18 -18 -18 -19 -19 -20 -20 -20 -20 -20 -20 -20 -20 -21 -21 -21 -21 -21 -21 -22 -22 -23 -23 -24 -25 -25 -26 -26 -27 -27 -27 -27 -27 -27 -27 -26 -26 -26
-15 -16 -16 -16 -16 -16 -16 -17 -17 -17 -17 -17 -17 -17 -17 -18 -18 -18 -18 -19 -19 -19 -20 -20 -20 -20 -20 -20 -20 -21 -21 -21 -21 -21 -21 -22 -22 -22 -22 -23 -23 -24 -24 -25 -26 -26 -26 -26 -26 -26 -26 -26 -26 -26
-15 -16 -16 -16 -16 -16 -17 -17 -17 -17 -17 -17 -17 -17 -17 -18 -18 -18 -18 -18 -19 -19 -19 -20 -20 -20 -20 -20 -21 -21 -21 -21 -21 -21 -21 -21 -22 -22 -22 -22 -23 -23 -23 -24 -24 -25 -25 -26 -26 -26 -26 -26 -26 -26
-15 -16 -16 -16 -16 -17 -17 -17 -17 -17 -17 -17 -17 -17 -17 -17 -18 -18 -18 -18 -18 -19 -19 -19 -20 -20 -21 -21 -21 -21 -21 -21 -21 -21 -21 -22 -22 -22 -22 -22 -22 -23 -23 -23 -24 -24 -24 -25 -25 -25 -25 -25 -26 -26
-16 -16 -16 -16 -16 -16 -16 -17 -17 -17 -17 -17 -17 -18 -18 -18 -18 -18 -18 -18 -19 -19 -19 -19 -20 -20 -21 -21 -21 -21 -21 -21 -21 -21 -21 -21 -21 -22 -22 -22 -22 -22 -23 -23 -23 -23 -24 -24 -24 -25 -25 -25 -25 -25
-16 -16 -16 -16 -16 -16 -16 -17 -17 -17 -17 -17 -17 -18 -18 -18 -18 -18 -18 -18 -18 -19 -19 -19 -20 -20 -20 -21 -21 -21 -21 -21 -21 -21 -21 -21 -22 -22 -22 -22 -22 -22 -22 -23 -23 -23 -23 -23 -24 -24 -24 -24 -24 -25

GFSWCAN_500_temp_063.txt.gz
Temp
-12 -12 -13 -14 -14 -14 -14 -14 -14 -15 -15 -15 -15 -16 -16 -17 -17 -17 -17 -17 -17 -17 -17 -18 -18 -18 -18 -18 -18 -17 -17 -17 -18 -17 -18 -18 -19 -19 -19 -19 -20 -21 -21 -21 -21 -21 -21 -20 -20 -20 -20 -20 -19 -18
-12 -12 -13 -14 -14 -14 -14 -14 -14 -15 -15 -15 -15 -15 -16 -17 -17 -17 -17 -18 -17 -17 -17 -18 -18 -18 -18 -18 -18 -18 -18 -18 -18 -18 -18 -18 -19 -19 -20 -21 -20 -21 -21 -21 -21 -21 -21 -21 -21 -20 -20 -20 -20 -19
-12 -12 -13 -14 -14 -14 -14 -14 -14 -15 -15 -15 -15 -15 -16 -16 -17 -17 -17 -17 -18 -17 -17 -18 -18 -18 -18 -18 -18 -18 -18 -18 -18 -18 -18 -19 -19 -19 -19 -20 -20 -20 -21 -21 -21 -21 -21 -21 -21 -21 -20 -20 -19 -19
-12 -12 -13 -14 -14 -14 -14 -14 -15 -15 -15 -15 -15 -15 -15 -16 -16 -17 -17 -17 -17 -17 -17 -17 -17 -17 -17 -17 -17 -17 -18 -18 -18 -18 -19 -19 -19 -18 -19 -19 -19 -20 -20 -20 -20 -20 -20 -20 -21 -21 -21 -20 -20 -19
-12 -13 -13 -15 -14 -14 -14 -15 -15 -15 -15 -15 -15 -15 -15 -16 -16 -16 -17 -17 -17 -17 -16 -16 -16 -17 -16 -17 -17 -17 -17 -17 -18 -18 -18 -19 -19 -19 -19 -19 -20 -20 -20 -20 -20 -20 -19 -20 -20 -20 -19 -20 -20 -20
-12 -12 -13 -15 -14 -14 -14 -15 -15 -15 -15 -15 -15 -15 -15 -16 -16 -16 -16 -16 -16 -16 -16 -16 -17 -16 -16 -16 -17 -17 -17 -17 -17 -17 -18 -18 -18 -19 -19 -19 -20 -20 -19 -20 -20 -20 -20 -19 -20 -19 -19 -19 -19 -18
-13 -13 -13 -15 -14 -14 -14 -15 -15 -15 -15 -15 -15 -15 -15 -15 -16 -16 -16 -16 -16 -16 -16 -16 -16 -16 -17 -17 -17 -17 -17 -18 -18 -18 -18 -18 -18 -18 -18 -18 -19 -20 -20 -20 -19 -20 -20 -19 -19 -19 -19 -19 -19 -19
-13 -13 -14 -14 -14 -14 -14 -15 -15 -15 -15 -15 -15 -15 -15 -15 -16 -16 -16 -16 -17 -17 -16 -16 -16 -17 -17 -17 -17 -17 -17 -18 -18 -18 -18 -18 -18 -18 -19 -19 -19 -19 -19 -19 -20 -20 -20 -20 -20 -19 -19 -19 -19 -19
-13 -13 -15 -14 -14 -14 -15 -15 -15 -15 -16 -15 -15 -15 -15 -15 -16 -16 -16 -16 -17 -17 -17 -17 -16 -16 -16 -17 -17 -18 -17 -18 -18 -18 -18 -19 -19 -19 -19 -19 -19 -19 -19 -19 -19 -18 -19 -20 -20 -19 -19 -20 -19 -19
-13 -14 -15 -14 -14 -14 -15 -15 -15 -16 -16 -15 -15 -15 -15 -15 -15 -16 -16 -16 -17 -17 -17 -17 -18 -17 -17 -17 -16 -18 -17 -18 -18 -18 -18 -18 -19 -19 -19 -20 -20 -20 -19 -19 -20 -20 -19 -19 -20 -20 -19 -19 -19 -19
-13 -15 -14 -14 -14 -15 -15 -15 -15 -16 -15 -15 -15 -15 -15 -15 -15 -16 -16 -16 -17 -17 -17 -17 -18 -18 -18 -18 -18 -18 -17 -18 -18 -18 -18 -18 -19 -19 -19 -20 -20 -20 -20 -20 -20 -20 -20 -19 -19 -20 -19 -20 -19 -19
-14 -15 -14 -14 -15 -15 -15 -15 -15 -15 -15 -15 -15 -15 -15 -15 -15 -15 -16 -16 -17 -18 -17 -16 -17 -18 -18 -18 -18 -18 -17 -18 -18 -19 -18 -19 -19 -20 -20 -19 -20 -20 -20 -20 -21 -21 -20 -20 -20 -20 -20 -19 -20 -19
-15 -14 -14 -15 -15 -15 -15 -15 -15 -15 -15 -15 -15 -15 -15 -15 -16 -16 -17 -17 -17 -17 -17 -17 -17 -18 -19 -19 -19 -18 -19 -19 -19 -19 -19 -20 -19 -20 -20 -20 -20 -21 -20 -20 -21 -20 -20 -20 -20 -21 -20 -20 -19 -20
-14 -14 -14 -15 -15 -15 -15 -15 -15 -15 -15 -15 -15 -15 -16 -16 -17 -17 -17 -16 -17 -16 -17 -18 -18 -19 -19 -19 -19 -19 -20 -20 -20 -20 -20 -20 -20 -20 -20 -20 -21 -21 -21 -21 -21 -21 -21 -21 -20 -21 -20 -21 -21 -20
-14 -14 -15 -15 -15 -15 -15 -15 -15 -16 -15 -15 -15 -15 -16 -16 -17 -17 -17 -17 -17 -16 -16 -17 -19 -19 -20 -20 -20 -20 -20 -20 -20 -21 -20 -20 -21 -21 -21 -21 -22 -22 -22 -22 -22 -22 -23 -22 -21 -21 -21 -21 -21 -21
-14 -14 -14 -15 -15 -15 -15 -16 -16 -15 -15 -15 -15 -16 -16 -16 -17 -17 -17 -17 -16 -17 -18 -19 -19 -20 -20 -20 -20 -20 -20 -20 -21 -21 -21 -21 -21 -21 -21 -22 -22 -22 -22 -23 -23 -22 -23 -23 -23 -22 -22 -21 -21 -21
-15 -14 -14 -14 -15 -15 -16 -16 -16 -15 -15 -15 -15 -16 -16 -16 -16 -16 -16 -17 -17 -18 -18 -19 -19 -19 -19 -20 -20 -20 -21 -21 -21 -21 -21 -21 -21 -22 -22 -22 -22 -23 -23 -23 -23 -23 -23 -24 -23 -23 -23 -22 -22 -22
-14 -14 -14 -14 -15 -15 -16 -16 -16 -16 -15 -16 -16 -16 -16 -16 -16 -17 -17 -17 -17 -18 -19 -19 -19 -19 -20 -20 -20 -21 -21 -21 -21 -21 -21 -21 -22 -22 -22 -22 -23 -23 -23 -23 -23 -23 -23 -24 -23 -23 -24 -23 -23 -22
-15 -14 -14 -15 -15 -16 -16 -16 -15 -15 -16 -16 -16 -16 -16 -16 -16 -17 -17 -16 -17 -18 -18 -18 -19 -20 -20 -20 -21 -21 -21 -21 -21 -21 -21 -22 -22 -22 -22 -23 -23 -24 -24 -24 -23 -24 -24 -24 -24 -24 -24 -24 -24 -23
-14 -14 -14 -15 -15 -15 -15 -15 -15 -16 -16 -16 -16 -16 -16 -16 -17 -17 -16 -17 -17 -18 -19 -19 -19 -20 -20 -20 -20 -20 -20 -21 -21 -21 -21 -21 -22 -21 -22 -24 -24 -25 -25 -24 -24 -23 -24 -25 -25 -25 -25 -25 -25 -24
-14 -14 -15 -15 -15 -15 -15 -15 -16 -16 -16 -16 -16 -15 -16 -16 -16 -16 -17 -17 -18 -18 -19 -19 -19 -19 -20 -19 -20 -20 -20 -20 -20 -21 -21 -21 -22 -22 -23 -24 -25 -25 -25 -25 -25 -26 -25 -25 -25 -26 -25 -25 -25 -25
-14 -15 -15 -15 -15 -15 -15 -15 -15 -15 -15 -15 -16 -16 -16 -17 -17 -17 -17 -18 -18 -18 -19 -19 -19 -19 -19 -20 -20 -20 -20 -21 -21 -21 -21 -21 -22 -22 -24 -25 -24 -24 -25 -26 -26 -26 -26 -25 -26 -26 -26 -26 -26 -25
-15 -15 -15 -15 -15 -15 -15 -15 -15 -15 -16 -15 -16 -16 -16 -16 -16 -17 -16 -16 -17 -18 -18 -19 -19 -20 -20 -19 -20 -20 -20 -20 -21 -21 -21 -21 -22 -22 -23 -24 -25 -26 -25 -25 -25 -26 -26 -26 -26 -26 -26 -26 -26 -26
-15 -15 -15 -15 -15 -15 -15 -15 -16 -16 -16 -16 -15 -16 -16 -16 -17 -17 -16 -17 -17 -17 -18 -19 -20 -20 -19 -20 -20 -20 -20 -20 -21 -21 -21 -21 -22 -22 -22 -23 -24 -25 -26 -27 -27 -26 -26 -27 -27 -27 -27 -26 -27 -26
-15 -15 -15 -15 -15 -15 -15 -16 -16 -16 -15 -16 -16 -15 -16 -17 -16 -16 -16 -17 -18 -18 -18 -18 -19 -20 -20 -20 -20 -20 -21 -21 -21 -21 -21 -21 -22 -22 -22 -23 -24 -25 -26 -27 -27 -27 -27 -28 -27 -27 -27 -26 -26 -26
-15 -15 -15 -15 -15 -15 -15 -15 -15 -15 -16 -16 -16 -16 -16 -17 -17 -17 -17 -17 -17 -17 -18 -18 -19 -19 -20 -20 -20 -20 -20 -21 -21 -21 -21 -21 -22 -22 -22 -23 -23 -24 -25 -25 -26 -26 -27 -27 -26 -26 -27 -27 -27 -26
-15 -15 -15 -15 -15 -15 -15 -16 -16 -16 -16 -15 -15 -16 -16 -16 -17 -16 -17 -17 -17 -18 -18 -18 -18 -19 -19 -20 -20 -21 -21 -21 -21 -21 -21 -21 -21 -22 -22 -23 -23 -24 -24 -25 -25 -26 -26 -26 -27 -27 -27 -26 -26 -26
-15 -15 -15 -15 -15 -15 -16 -16 -16 -16 -16 -16 -16 -16 -16 -17 -17 -17 -17 -17 -17 -17 -18 -18 -19 -19 -19 -20 -20 -20 -20 -20 -20 -21 -21 -21 -21 -21 -22 -22 -22 -23 -24 -24 -25 -25 -26 -26 -26 -26 -26 -26 -26 -26
-15 -15 -15 -15 -15 -16 -15 -16 -15 -16 -16 -16 -16 -17 -17 -17 -17 -18 -17 -17 -17 -17 -17 -17 -17 -18 -19 -20 -20 -20 -20 -20 -20 -21 -21 -21 -21 -21 -22 -22 -22 -22 -22 -23 -24 -24 -25 -25 -25 -25 -25 -26 -26 -26
-15 -15 -15 -15 -15 -15 -16 -15 -16 -16 -16 -16 -16 -17 -17 -17 -17 -17 -17 -17 -17 -17 -17 -17 -18 -18 -19 -19 -20 -20 -20 -21 -21 -21 -21 -21 -21 -22 -22 -22 -22 -22 -22 -22 -23 -23 -23 -24 -24 -25 -25 -25 -25 -25
-15 -15 -15 -15 -15 -16 -16 -16 -17 -16 -16 -16 -15 -17 -17 -17 -17 -17 -17 -18 -17 -17 -17 -18 -18 -18 -18 -19 -19 -20 -20 -20 -21 -21 -21 -21 -21 -21 -21 -22 -22 -22 -22 -22 -22 -23 -23 -23 -23 -23 -24 -24 -24 -24
-15 -15 -15 -15 -15 -16 -16 -16 -16 -15 -15 -15 -15 -16 -17 -17 -17 -18 -18 -18 -18 -18 -18 -18 -18 -18 -18 -19 -19 -20 -20 -20 -20 -21 -21 -21 -21 -21 -22 -22 -22 -22 -22 -22 -22 -23 -23 -23 -23 -23 -24 -24 -24 -24
-15 -15 -15 -15 -15 -15 -15 -15 -15 -15 -15 -16 -16 -16 -17 -17 -17 -17 -17 -18 -18 -18 -18 -18 -18 -18 -18 -19 -19 -19 -20 -20 -20 -20 -21 -21 -21 -21 -21 -22 -22 -22 -22 -23 -23 -23 -23 -23 -23 -24 -24 -24 -24 -24

GFSWCAN_500_temp_066.txt.gz
Temp
-12 -12 -12 -12 -13 -14 -15 -14 -14 -14 -14 -14 -14 -15 -15 -16 -16 -17 -17 -17 -17 -17 -17 -17 -17 -17 -17 -17 -17 -17 -17 -17 -17 -17 -17 -17 -17 -17 -17 -18 -17 -18 -18 -19 -20 -20 -20 -20 -21 -21 -21 -21 -20 -19
-12 -12 -12 -12 -13 -14 -15 -14 -14 -15 -14 -14 -15 -15 -15 -16 -16 -17 -17 -17 -17 -17 -17 -17 -17 -17 -17 -17 -17 -17 -17 -17 -17 -17 -17 -17 -18 -18 -18 -18 -18 -18 -18 -19 -20 -20 -20 -20 -21 -20 -21 -20 -20 -20
-11 -11 -12 -12 -13 -14 -15 -14 -15 -15 -14 -14 -15 -15 -15 -16 -16 -16 -17 -17 -16 -16 -16 -16 -16 -16 -16 -17 -17 -17 -17 -16 -17 -17 -17 -17 -18 -18 -18 -18 -18 -18 -18 -19 -19 -19 -20 -20 -20 -20 -20 -20 -19 -19
-11 -12 -12 -13 -13 -15 -15 -14 -15 -15 -15 -14 -15 -15 -15 -16 -16 -16 -16 -16 -16 -16 -16 -16 -16 -17 -17 -17 -17 -17 -17 -17 -17 -17 -17 -17 -17 -18 -18 -18 -19 -19 -19 -19 -19 -19 -19 -19 -19 -19 -20 -20 -20 -19
-12 -12 -12 -13 -13 -15 -15 -14 -15 -15 -15 -15 -15 -15 -15 -15 -16 -16 -16 -16 -16 -16 -16 -16 -16 -16 -16 -17 -17 -17 -17 -17 -17 -18 -17 -17 -17 -17 -18 -18 -18 -19 -19 -19 -20 -20 -20 -20 -19 -19 -19 -19 -19 -19
-12 -13 -13 -13 -14 -14 -14 -14 -15 -15 -15 -15 -15 -15 -15 -15 -16 -16 -16 -16 -16 -16 -16 -16 -16 -16 -16 -16 -17 -17 -17 -18 -18 -18 -18 -18 -18 -18 -18 -18 -18 -19 -19 -19 -19 -20 -19 -20 -20 -19 -19 -19 -18 -18
-12 -12 -13 -14 -14 -14 -14 -15 -15 -15 -15 -15 -15 -15 -15 -16 -16 -16 -16 -16 -16 -16 -16 -16 -16 -16 -16 -16 -17 -17 -17 -18 -18 -18 -18 -18 -18 -18 -18 -18 -19 -19 -19 -19 -19 -19 -19 -19 -19 -19 -20 -19 -18 -18
-12 -13 -13 -13 -14 -14 -14 -15 -15 -15 -15 -15 -16 -16 -16 -16 -16 -16 -16 -16 -16 -16 -16 -16 -16 -17 -17 -17 -18 -18 -18 -18 -18 -18 -18 -18 -18 -19 -19 -18 -19 -19 -19 -19 -19 -19 -19 -19 -19 -19 -19 -20 -19 -19
-12 -13 -13 -14 -14 -14 -14 -15 -15 -15 -15 -15 -16 -16 -16 -16 -16 -16 -16 -16 -17 -17 -17 -17 -17 -17 -17 -17 -18 -18 -18 -18 -18 -19 -19 -18 -18 -18 -19 -19 -19 -19 -19 -20 -20 -19 -19 -19 -19 -19 -19 -19 -20 -20
-12 -13 -13 -15 -14 -14 -15 -15 -15 -15 -15 -16 -16 -16 -15 -16 -16 -16 -16 -17 -17 -17 -17 -17 -17 -17 -17 -18 -18 -18 -18 -18 -18 -18 -18 -18 -18 -19 -19 -19 -20 -20 -20 -20 -20 -19 -19 -19 -19 -19 -20 -19 -20 -20
-13 -13 -14 -15 -14 -15 -15 -15 -15 -15 -15 -16 -16 -16 -16 -16 -16 -15 -16 -16 -16 -16 -17 -17 -18 -18 -18 -18 -19 -18 -18 -18 -18 -19 -19 -19 -19 -20 -20 -20 -20 -20 -21 -20 -20 -20 -20 -20 -20 -20 -20 -20 -19 -19
-13 -13 -15 -14 -15 -15 -15 -15 -15 -15 -15 -16 -16 -15 -15 -16 -16 -16 -16 -16 -16 -16 -17 -17 -18 -18 -17 -19 -19 -19 -19 -19 -19 -19 -19 -19 -20 -20 -20 -20 -20 -20 -21 -21 -20 -21 -20 -20 -20 -20 -20 -20 -20 -20
-13 -14 -14 -14 -15 -15 -15 -15 -15 -15 -15 -16 -16 -15 -16 -16 -16 -16 -16 -16 -16 -17 -18 -18 -18 -18 -19 -19 -19 -19 -20 -20 -20 -20 -20 -21 -20 -20 -20 -20 -20 -21 -21 -21 -21 -21 -20 -21 -21 -21 -21 -21 -21 -20
-15 -15 -14 -14 -15 -15 -15 -15 -15 -15 -15 -16 -16 -16 -16 -16 -16 -16 -16 -16 -16 -16 -17 -18 -18 -19 -19 -19 -20 -20 -20 -20 -20 -20 -20 -20 -20 -20 -20 -21 -21 -22 -22 -22 -22 -22 -22 -22 -22 -22 -22 -22 -21 -21
-15 -14 -14 -15 -15 -15 -15 -15 -15 -15 -15 -16 -15 -16 -16 -16 -16 -16 -17 -18 -16 -17 -17 -18 -18 -19 -19 -20 -20 -20 -20 -20 -21 -21 -21 -21 -21 -21 -21 -21 -21 -21 -22 -22 -23 -23 -23 -22 -23 -22 -22 -22 -22 -22
-14 -14 -15 -15 -15 -15 -15 -15 -15 -15 -16 -16 -16 -16 -16 -16 -16 -16 -16 -17 -17 -18 -18 -19 -19 -19 -20 -20 -20 -20 -20 -21 -21 -21 -21 -21 -21 -21 -22 -22 -22 -22 -22 -22 -23 -23 -23 -23 -23 -23 -22 -22 -23 -22
-14 -14 -15 -15 -15 -15 -15 -15 -16 -16 -16 -16 -16 -16 -16 -16 -17 -16 -17 -17 -17 -18 -18 -18 -19 -20 -20 -20 -20 -20 -20 -20 -21 -21 -21 -21 -21 -22 -22 -22 -22 -22 -22 -23 -23 -24 -24 -23 -24 -23 -23 -23 -23 -23
-15 -15 -15 -14 -15 -15 -15 -15 -16 -16 -16 -16 -16 -16 -16 -16 -17 -16 -16 -17 -17 -17 -18 -19 -19 -19 -19 -19 -20 -20 -20 -20 -20 -20 -21 -21 -21 -22 -22 -22 -22 -23 -23 -23 -24 -24 -24 -24 -24 -24 -24 -24 -24 -23
-15 -15 -15 -15 -15 -15 -15 -15 -16 -16 -16 -16 -16 -16 -16 -15 -16 -16 -16 -16 -16 -17 -17 -18 -19 -19 -19 -19 -20 -20 -20 -20 -20 -20 -21 -21 -21 -22 -22 -22 -23 -23 -23 -24 -24 -25 -25 -25 -24 -24 -25 -25 -25 -24
-15 -15 -15 -15 -15 -15 -15 -16 -16 -16 -16 -16 -16 -16 -16 -16 -16 -16 -16 -16 -16 -17 -17 -19 -19 -19 -19 -19 -19 -20 -20 -20 -21 -21 -21 -21 -21 -22 -22 -22 -23 -24 -25 -25 -25 -25 -25 -25 -25 -25 -25 -25 -24 -25
-15 -15 -15 -15 -15 -15 -15 -16 -15 -15 -15 -15 -16 -16 -16 -16 -16 -16 -16 -17 -17 -17 -18 -18 -19 -20 -20 -20 -20 -20 -20 -20 -21 -21 -21 -21 -21 -22 -22 -22 -23 -24 -25 -25 -25 -25 -25 -26 -25 -25 -26 -26 -25 -25
-15 -15 -15 -15 -15 -15 -15 -16 -15 -15 -15 -16 -16 -16 -16 -16 -16 -16 -17 -18 -17 -17 -18 -18 -19 -20 -20 -20 -20 -20 -20 -21 -21 -21 -21 -21 -21 -22 -22 -23 -24 -24 -26 -26 -26 -26 -26 -26 -26 -26 -27 -26 -26 -25
-15 -15 -15 -15 -15 -15 -15 -15 -16 -16 -16 -16 -16 -16 -16 -17 -17 -17 -17 -17 -17 -17 -17 -18 -18 -19 -20 -20 -20 -20 -20 -20 -21 -21 -21 -21 -21 -22 -22 -22 -23 -24 -25 -27 -27 -27 -27 -27 -27 -26 -26 -26 -26 -26
-15 -15 -15 -15 -15 -15 -15 -16 -16 -16 -15 -16 -16 -16 -16 -16 -17 -17 -17 -17 -17 -17 -17 -18 -18 -19 -19 -20 -20 -20 -20 -20 -21 -21 -21 -21 -21 -21 -22 -22 -23 -23 -25 -26 -26 -27 -27 -27 -27 -27 -27 -27 -26 -26
-15 -15 -15 -15 -15 -15 -15 -16 -16 -16 -16 -16 -16 -16 -16 -17 -17 -17 -17 -17 -17 -17 -17 -18 -18 -19 -19 -20 -20 -20 -20 -20 -20 -21 -21 -21 -21 -21 -21 -22 -23 -24 -25 -26 -26 -27 -27 -27 -27 -27 -27 -26 -26 -26
-15 -15 -15 -15 -15 -15 -16 -16 -16 -15 -16 -16 -16 -16 -17 -16 -17 -17 -17 -17 -17 -17 -17 -18 -19 -19 -19 -20 -20 -20 -20 -20 -20 -21 -21 -21 -21 -21 -21 -22 -22 -23 -24 -25 -25 -26 -26 -27 -26 -27 -27 -26 -26 -26
-15 -15 -15 -15 -15 -15 -15 -15 -16 -16 -16 -16 -16 -16 -16 -16 -16 -17 -17 -17 -17 -17 -17 -17 -18 -19 -19 -20 -20 -20 -21 -21 -21 -21 -21 -21 -21 -21 -21 -22 -22 -23 -24 -24 -25 -25 -26 -26 -26 -26 -26 -26 -26 -26
-15 -15 -15 -15 -15 -15 -15 -15 -15 -16 -16 -16 -16 -16 -16 -17 -17 -17 -17 -17 -17 -18 -18 -19 -19 -18 -18 -18 -19 -20 -20 -20 -20 -20 -20 -21 -21 -21 -22 -22 -22 -22 -22 -23 -24 -24 -25 -25 -25 -25 -26 -26 -26 -26
-15 -15 -15 -15 -15 -15 -15 -16 -16 -15 -16 -16 -16 -16 -17 -16 -17 -17 -18 -18 -18 -18 -18 -19 -19 -19 -19 -18 -18 -18 -19 -20 -20 -20 -20 -21 -21 -21 -22 -22 -22 -22 -22 -23 -23 -23 -24 -24 -24 -25 -25 -25 -25 -25
-15 -15 -15 -15 -15 -16 -16 -16 -16 -15 -16 -16 -17 -17 -16 -16 -17 -17 -18 -18 -18 -17 -17 -17 -17 -18 -19 -19 -18 -19 -19 -20 -20 -20 -20 -21 -21 -21 -22 -22 -22 -22 -22 -23 -23 -23 -23 -24 -24 -24 -24 -24 -24 -25
-15 -15 -15 -15 -16 -15 -15 -15 -15 -15 -16 -16 -16 -16 -16 -16 -16 -17 -17 -18 -18 -18 -18 -18 -18 -18 -18 -18 -19 -19 -19 -20 -20 -20 -20 -21 -21 -21 -22 -22 -22 -22 -23 -23 -23 -23 -23 -24 -24 -24 -24 -24 -24 -24
-15 -15 -15 -15 -15 -15 -16 -16 -15 -16 -16 -16 -16 -16 -16 -16 -16 -17 -18 -18 -18 -18 -18 -18 -18 -17 -17 -18 -19 -19 -19 -19 -20 -20 -20 -20 -21 -21 -21 -22 -22 -22 -23 -23 -23 -23 -23 -24 -24 -24 -24 -24 -24 -24
-15 -15 -15 -15 -15 -15 -15 -15 -15 -15 -16 -16 -16 -16 -17 -17 -17 -17 -17 -18 -18 -18 -18 -18 -17 -17 -17 -17 -18 -18 -19 -19 -19 -20 -20 -20 -21 -21 -21 -22 -22 -22 -22 -23 -23 -23 -23 -23 -24 -24 -24 -24 -24 -24

GFSWCAN_500_temp_069.txt.gz
Temp
-12 -11 -11 -12 -12 -13 -14 -15 -15 -15 -15 -14 -14 -15 -15 -15 -16 -16 -16 -16 -16 -16 -17 -17 -17 -17 -17 -17 -17 -17 -17 -16 -16 -16 -16 -16 -16 -17 -17 -17 -17 -16 -16 -16 -16 -16 -17 -17 -19 -20 -20 -20 -20 -19
-11 -11 -12 -12 -12 -13 -14 -15 -15 -15 -15 -15 -15 -15 -15 -15 -16 -16 -16 -16 -16 -16 -16 -16 -16 -16 -16 -16 -16 -17 -17 -17 -17 -17 -17 -17 -16 -16 -17 -17 -17 -17 -16 -16 -17 -17 -17 -18 -18 -19 -19 -20 -20 -20
-11 -12 -12 -13 -13 -13 -14 -15 -15 -15 -15 -15 -15 -15 -15 -15 -16 -16 -16 -16 -16 -16 -16 -16 -16 -16 -16 -16 -17 -17 -17 -17 -17 -17 -17 -17 -17 -17 -17 -17 -17 -17 -17 -17 -17 -18 -18 -18 -18 -19 -19 -19 -20 -20
-11 -12 -12 -13 -13 -14 -14 -15 -15 -15 -15 -15 -15 -15 -15 -15 -15 -16 -16 -16 -16 -16 -16 -16 -16 -16 -16 -16 -16 -17 -17 -17 -17 -17 -17 -17 -17 -18 -18 -18 -17 -17 -17 -18 -18 -19 -19 -19 -19 -19 -19 -19 -19 -20
-12 -12 -13 -13 -13 -14 -15 -15 -15 -15 -15 -15 -15 -15 -15 -15 -16 -16 -16 -16 -16 -16 -16 -16 -16 -16 -16 -16 -17 -17 -17 -17 -17 -17 -18 -18 -18 -17 -18 -18 -18 -18 -18 -18 -18 -18 -18 -19 -20 -20 -19 -19 -19 -19
-12 -13 -13 -13 -13 -14 -15 -15 -15 -15 -15 -15 -15 -15 -15 -15 -16 -16 -16 -16 -16 -16 -17 -16 -16 -16 -16 -16 -16 -17 -17 -17 -17 -18 -18 -18 -18 -18 -18 -18 -18 -18 -18 -18 -18 -19 -19 -19 -19 -19 -19 -20 -20 -19
-13 -13 -13 -13 -14 -15 -14 -15 -15 -15 -15 -15 -16 -15 -15 -15 -16 -16 -15 -16 -16 -16 -16 -17 -17 -17 -17 -17 -17 -17 -17 -17 -18 -18 -18 -18 -19 -18 -18 -19 -18 -19 -19 -18 -19 -19 -19 -19 -19 -19 -19 -19 -19 -20
-13 -13 -13 -13 -14 -15 -15 -15 -15 -15 -15 -15 -16 -15 -15 -15 -15 -15 -15 -16 -16 -16 -17 -17 -17 -17 -17 -17 -18 -18 -17 -17 -18 -18 -18 -18 -19 -19 -18 -19 -19 -20 -19 -19 -19 -19 -20 -19 -19 -19 -19 -19 -19 -20
-12 -13 -13 -13 -14 -15 -15 -15 -15 -15 -16 -16 -16 -15 -15 -15 -16 -16 -16 -16 -16 -16 -16 -16 -16 -16 -17 -18 -18 -18 -18 -18 -18 -18 -18 -18 -18 -18 -18 -19 -19 -19 -19 -20 -20 -20 -20 -20 -20 -20 -19 -19 -19 -19
-13 -13 -13 -13 -14 -16 -15 -15 -15 -15 -16 -16 -15 -15 -15 -16 -16 -16 -16 -16 -17 -17 -16 -16 -17 -17 -17 -18 -18 -18 -19 -19 -18 -18 -19 -19 -19 -19 -18 -19 -19 -20 -20 -20 -20 -21 -20 -20 -19 -19 -19 -19 -19 -19
-13 -13 -13 -14 -15 -15 -15 -15 -15 -16 -16 -16 -15 -15 -16 -16 -16 -16 -16 -16 -16 -16 -16 -17 -18 -18 -18 -18 -18 -19 -19 -19 -19 -19 -20 -20 -19 -19 -19 -19 -19 -20 -20 -20 -21 -21 -21 -20 -20 -20 -19 -20 -19 -19
-13 -14 -14 -14 -16 -15 -15 -15 -15 -16 -16 -16 -15 -16 -16 -16 -16 -16 -16 -16 -16 -16 -17 -17 -18 -18 -19 -19 -19 -19 -19 -20 -20 -20 -20 -20 -20 -20 -20 -20 -20 -20 -20 -21 -21 -21 -21 -20 -21 -21 -21 -22 -21 -20
-13 -14 -14 -15 -15 -15 -16 -16 -15 -16 -16 -16 -16 -16 -16 -16 -15 -15 -15 -16 -17 -17 -17 -17 -18 -19 -19 -19 -19 -20 -20 -20 -20 -20 -20 -20 -20 -20 -20 -20 -20 -21 -21 -21 -22 -21 -21 -21 -22 -22 -23 -23 -22 -22
-14 -15 -16 -15 -15 -15 -15 -16 -16 -16 -16 -16 -16 -16 -16 -16 -15 -15 -16 -16 -16 -17 -17 -18 -19 -19 -19 -19 -20 -20 -20 -20 -20 -20 -20 -20 -20 -20 -20 -21 -21 -21 -21 -22 -22 -22 -23 -23 -23 -22 -23 -23 -23 -22
-15 -15 -15 -15 -15 -15 -15 -16 -16 -16 -16 -16 -16 -16 -16 -16 -16 -15 -16 -16 -16 -17 -17 -18 -19 -19 -19 -20 -20 -20 -20 -20 -20 -21 -20 -20 -20 -20 -21 -21 -21 -21 -22 -22 -22 -23 -23 -23 -23 -23 -23 -23 -23 -22
-16 -15 -15 -15 -15 -15 -16 -16 -16 -16 -16 -16 -16 -16 -16 -16 -16 -16 -16 -17 -17 -17 -17 -18 -18 -19 -19 -20 -20 -20 -20 -20 -20 -20 -20 -21 -21 -21 -21 -21 -22 -23 -22 -22 -22 -23 -23 -23 -23 -23 -23 -23 -23 -23
-16 -15 -15 -15 -15 -15 -16 -16 -16 -16 -16 -15 -16 -16 -16 -17 -17 -16 -16 -17 -16 -17 -18 -19 -19 -19 -20 -20 -20 -20 -20 -20 -20 -20 -21 -21 -21 -21 -21 -22 -22 -22 -22 -23 -23 -23 -23 -23 -24 -23 -23 -24 -24 -24
-15 -15 -15 -15 -15 -15 -16 -16 -16 -16 -16 -16 -16 -16 -16 -16 -16 -16 -16 -16 -17 -17 -18 -18 -19 -19 -19 -20 -20 -20 -20 -20 -20 -20 -20 -21 -21 -21 -22 -22 -22 -23 -23 -24 -24 -24 -24 -24 -24 -24 -24 -24 -24 -24
-15 -15 -15 -15 -15 -15 -16 -16 -16 -16 -16 -16 -16 -16 -16 -16 -16 -16 -16 -16 -17 -17 -17 -18 -18 -19 -20 -20 -20 -20 -20 -20 -20 -21 -21 -21 -21 -21 -22 -22 -23 -23 -23 -24 -25 -24 -25 -25 -25 -25 -24 -25 -25 -25
-15 -15 -15 -15 -15 -15 -15 -16 -16 -16 -15 -16 -16 -17 -16 -16 -16 -16 -16 -17 -17 -17 -17 -18 -19 -19 -20 -20 -20 -20 -20 -20 -20 -21 -21 -21 -21 -22 -22 -22 -22 -23 -23 -24 -26 -25 -25 -26 -26 -25 -25 -25 -25 -25
-15 -15 -15 -15 -15 -15 -15 -15 -15 -16 -16 -16 -16 -16 -16 -16 -16 -17 -17 -17 -17 -17 -18 -18 -18 -19 -19 -20 -21 -21 -21 -21 -21 -21 -21 -21 -22 -22 -22 -22 -23 -23 -24 -25 -26 -26 -26 -26 -26 -25 -25 -25 -26 -25
-15 -15 -15 -15 -15 -15 -15 -15 -15 -15 -16 -16 -16 -16 -16 -16 -17 -17 -17 -18 -17 -18 -18 -18 -18 -19 -19 -20 -20 -21 -21 -21 -21 -21 -21 -21 -21 -21 -21 -22 -22 -23 -24 -26 -27 -27 -26 -26 -26 -26 -26 -26 -25 -25
-15 -15 -15 -15 -15 -15 -15 -15 -16 -16 -16 -16 -16 -16 -16 -16 -17 -17 -17 -17 -17 -17 -18 -18 -18 -18 -19 -19 -20 -20 -20 -20 -21 -21 -21 -21 -21 -22 -21 -21 -22 -23 -24 -25 -26 -27 -27 -27 -27 -26 -26 -26 -26 -26
-15 -15 -15 -15 -15 -15 -15 -15 -15 -15 -16 -16 -16 -16 -16 -16 -16 -17 -16 -17 -17 -17 -17 -18 -18 -18 -18 -19 -20 -20 -20 -20 -20 -21 -21 -21 -21 -21 -21 -22 -22 -23 -24 -25 -26 -27 -27 -27 -27 -27 -27 -27 -27 -27
-15 -15 -15 -15 -15 -15 -15 -15 -16 -16 -15 -16 -16 -16 -16 -16 -16 -16 -16 -16 -17 -17 -18 -18 -18 -18 -18 -19 -19 -20 -20 -20 -20 -20 -21 -21 -21 -21 -22 -22 -22 -23 -24 -25 -25 -26 -27 -27 -27 -27 -27 -27 -27 -27
-15 -15 -15 -15 -15 -15 -15 -15 -15 -16 -16 -16 -16 -16 -16 -16 -16 -16 -16 -17 -17 -18 -18 -18 -18 -19 -19 -19 -19 -19 -20 -20 -20 -20 -21 -21 -21 -22 -22 -22 -22 -22 -23 -24 -25 -25 -26 -26 -26 -26 -26 -26 -26 -27
-15 -15 -15 -15 -15 -15 -15 -16 -16 -16 -16 -16 -16 -16 -17 -17 -16 -16 -16 -17 -17 -17 -18 -18 -18 -19 -20 -19 -19 -20 -20 -20 -20 -21 -21 -21 -21 -22 -22 -22 -22 -23 -23 -23 -23 -24 -25 -25 -25 -25 -25 -26 -26 -26
-15 -15 -15 -15 -15 -15 -15 -15 -16 -16 -16 -16 -16 -16 -17 -16 -16 -16 -16 -17 -17 -17 -17 -18 -17 -18 -19 -20 -20 -20 -20 -20 -20 -21 -21 -21 -21 -21 -22 -22 -23 -23 -23 -23 -23 -24 -24 -24 -25 -25 -25 -25 -25 -25
-15 -15 -15 -15 -15 -15 -15 -16 -16 -16 -16 -16 -16 -16 -16 -17 -16 -17 -17 -17 -17 -18 -18 -18 -18 -18 -19 -19 -19 -19 -19 -19 -19 -20 -20 -20 -21 -21 -22 -22 -23 -23 -23 -23 -23 -24 -24 -24 -24 -24 -24 -24 -25 -25
-15 -15 -15 -15 -15 -15 -15 -15 -16 -16 -16 -16 -16 -16 -16 -16 -17 -17 -17 -17 -18 -18 -19 -18 -18 -17 -17 -18 -18 -19 -19 -19 -19 -20 -20 -20 -21 -21 -21 -22 -22 -23 -23 -23 -23 -23 -24 -24 -24 -24 -24 -24 -25 -25
-15 -15 -15 -16 -15 -15 -15 -16 -16 -16 -16 -16 -15 -15 -16 -17 -17 -17 -17 -17 -17 -18 -19 -19 -18 -17 -17 -17 -18 -18 -18 -18 -19 -19 -20 -20 -21 -21 -21 -22 -22 -22 -23 -23 -23 -23 -24 -24 -24 -24 -24 -24 -24 -24
-15 -15 -15 -15 -15 -15 -15 -16 -16 -16 -16 -15 -15 -16 -16 -16 -16 -17 -17 -17 -17 -17 -18 -18 -18 -17 -18 -18 -18 -18 -19 -19 -19 -20 -20 -20 -20 -21 -21 -22 -22 -22 -22 -22 -23 -23 -23 -23 -24 -24 -24 -24 -24 -24
-15 -15 -15 -15 -16 -15 -15 -15 -16 -16 -16 -16 -16 -16 -16 -17 -17 -17 -17 -16 -16 -17 -17 -18 -17 -17 -17 -18 -18 -18 -18 -19 -19 -19 -20 -20 -20 -20 -21 -21 -21 -22 -22 -22 -22 -22 -23 -23 -23 -23 -24 -24 -24 -24

GFSWCAN_500_temp_072.txt.gz
Temp
-11 -12 -12 -12 -12 -13 -13 -13 -15 -15 -15 -15 -15 -15 -15 -15 -15 -15 -15 -15 -15 -16 -16 -16 -16 -16 -16 -16 -16 -16 -16 -16 -17 -16 -16 -16 -16 -16 -16 -16 -16 -16 -16 -16 -15 -16 -16 -16 -16 -16 -16 -16 -16 -17
-12 -12 -12 -12 -12 -13 -13 -13 -15 -15 -15 -15 -15 -15 -15 -15 -15 -15 -16 -15 -15 -15 -15 -15 -15 -16 -16 -16 -16 -16 -16 -16 -16 -16 -16 -16 -17 -17 -17 -17 -17 -16 -16 -16 -16 -16 -16 -16 -16 -16 -16 -16 -16 -17
-12 -13 -13 -12 -13 -13 -13 -15 -15 -15 -15 -15 -15 -15 -15 -15 -15 -15 -15 -16 -15 -15 -16 -16 -16 -16 -16 -16 -16 -16 -16 -16 -16 -17 -17 -17 -17 -17 -17 -17 -17 -17 -17 -16 -16 -16 -16 -16 -17 -17 -17 -17 -17 -17
-12 -13 -13 -13 -13 -13 -14 -15 -15 -15 -15 -15 -15 -15 -15 -16 -15 -15 -15 -15 -15 -16 -16 -16 -16 -16 -16 -16 -16 -16 -16 -17 -17 -17 -17 -17 -17 -17 -17 -17 -17 -17 -17 -17 -17 -17 -17 -17 -17 -17 -18 -18 -18 -18
-13 -13 -13 -13 -13 -14 -14 -15 -15 -15 -15 -15 -15 -15 -15 -16 -15 -15 -15 -15 -16 -16 -16 -16 -16 -16 -16 -16 -16 -16 -16 -17 -17 -17 -17 -17 -17 -17 -17 -17 -17 -17 -17 -17 -17 -17 -17 -17 -17 -18 -18 -18 -18 -18
-13 -13 -13 -13 -14 -13 -14 -15 -15 -15 -15 -15 -15 -15 -15 -15 -15 -15 -16 -15 -16 -16 -16 -16 -16 -17 -16 -16 -16 -17 -17 -17 -17 -17 -17 -18 -18 -17 -17 -17 -17 -18 -18 -17 -18 -18 -18 -18 -18 -18 -18 -18 -18 -18
-13 -13 -13 -14 -14 -13 -14 -15 -15 -15 -15 -15 -15 -15 -16 -15 -15 -15 -15 -15 -16 -16 -16 -16 -16 -16 -17 -17 -17 -18 -17 -18 -18 -18 -18 -18 -18 -18 -17 -18 -18 -18 -18 -18 -18 -18 -18 -18 -18 -19 -19 -19 -19 -19
-13 -12 -13 -13 -14 -13 -15 -16 -15 -15 -15 -15 -15 -16 -16 -15 -15 -15 -15 -15 -15 -16 -16 -16 -16 -16 -17 -17 -18 -18 -18 -18 -18 -18 -18 -18 -18 -18 -18 -18 -19 -19 -19 -18 -18 -19 -18 -18 -19 -19 -19 -19 -19 -19
-13 -13 -13 -14 -14 -13 -15 -16 -15 -15 -15 -16 -15 -16 -16 -15 -15 -15 -15 -16 -15 -16 -16 -16 -16 -17 -18 -18 -18 -18 -18 -18 -18 -19 -19 -18 -18 -18 -19 -18 -18 -19 -18 -19 -19 -19 -19 -19 -19 -20 -20 -20 -20 -19
-13 -14 -13 -14 -13 -13 -15 -16 -15 -15 -15 -16 -16 -16 -16 -15 -15 -15 -16 -16 -16 -16 -16 -17 -17 -18 -18 -19 -19 -19 -19 -19 -19 -19 -19 -19 -19 -19 -19 -19 -19 -19 -18 -19 -19 -20 -20 -20 -20 -20 -20 -20 -20 -20
-13 -14 -13 -13 -13 -14 -16 -15 -15 -15 -16 -16 -16 -16 -15 -15 -15 -15 -16 -16 -16 -16 -17 -17 -17 -18 -18 -19 -19 -19 -19 -19 -20 -20 -20 -20 -20 -20 -20 -19 -19 -19 -20 -20 -20 -20 -20 -21 -21 -21 -20 -20 -20 -20
-13 -13 -13 -13 -13 -15 -16 -15 -15 -15 -16 -16 -16 -16 -15 -15 -15 -15 -16 -15 -16 -16 -16 -16 -17 -18 -18 -19 -19 -20 -20 -20 -20 -20 -20 -20 -20 -20 -20 -20 -20 -20 -20 -20 -20 -20 -21 -22 -21 -21 -21 -21 -21 -21
-14 -14 -14 -14 -15 -15 -15 -15 -15 -15 -16 -16 -16 -15 -16 -16 -15 -15 -16 -15 -16 -16 -16 -17 -17 -18 -19 -19 -19 -19 -20 -20 -20 -20 -20 -21 -20 -20 -20 -20 -21 -21 -21 -21 -21 -21 -21 -22 -22 -21 -22 -22 -22 -22
-14 -14 -15 -15 -15 -15 -15 -15 -15 -15 -16 -16 -16 -15 -16 -16 -15 -16 -16 -16 -15 -16 -17 -17 -18 -18 -19 -19 -19 -19 -20 -20 -20 -20 -20 -20 -20 -20 -20 -21 -21 -21 -21 -22 -22 -22 -22 -23 -23 -23 -23 -23 -22 -23
-14 -15 -15 -15 -15 -15 -15 -15 -15 -16 -16 -16 -16 -16 -16 -16 -16 -16 -16 -16 -16 -16 -17 -17 -18 -19 -19 -19 -19 -20 -20 -20 -20 -20 -20 -20 -20 -20 -21 -21 -21 -21 -21 -22 -22 -23 -23 -23 -23 -23 -23 -23 -23 -23
-15 -16 -15 -15 -15 -16 -16 -15 -16 -16 -16 -16 -16 -16 -16 -16 -16 -16 -16 -16 -16 -17 -17 -17 -18 -18 -19 -20 -20 -20 -20 -20 -20 -21 -21 -21 -21 -21 -21 -21 -21 -22 -22 -22 -22 -23 -23 -23 -23 -24 -24 -24 -24 -24
-16 -17 -16 -15 -16 -15 -15 -16 -16 -16 -16 -16 -16 -16 -16 -16 -16 -16 -16 -16 -17 -17 -17 -17 -18 -18 -19 -20 -20 -20 -20 -21 -21 -21 -21 -21 -21 -21 -21 -21 -21 -22 -22 -22 -23 -23 -24 -24 -24 -24 -24 -24 -24 -24
-17 -16 -16 -16 -15 -15 -15 -15 -16 -16 -16 -16 -16 -16 -16 -16 -16 -16 -16 -17 -17 -17 -17 -18 -18 -19 -19 -20 -20 -21 -21 -21 -21 -21 -21 -21 -21 -21 -21 -21 -22 -22 -22 -23 -23 -24 -24 -24 -25 -24 -24 -24 -25 -25
-16 -16 -16 -15 -15 -15 -15 -15 -16 -16 -16 -16 -16 -16 -16 -15 -16 -16 -17 -17 -17 -17 -18 -18 -18 -18 -18 -19 -20 -20 -21 -21 -21 -21 -21 -21 -21 -21 -21 -22 -22 -22 -23 -23 -24 -25 -25 -25 -25 -25 -25 -25 -25 -26
-15 -15 -15 -15 -15 -15 -15 -15 -16 -16 -16 -16 -16 -16 -16 -16 -16 -16 -17 -17 -17 -18 -17 -17 -18 -18 -19 -19 -20 -20 -20 -21 -21 -21 -21 -21 -21 -21 -21 -21 -22 -22 -23 -24 -25 -25 -26 -26 -25 -25 -26 -26 -26 -26
-15 -15 -15 -15 -15 -15 -15 -15 -16 -16 -16 -16 -16 -16 -16 -16 -16 -17 -17 -17 -17 -18 -18 -18 -18 -18 -19 -19 -20 -20 -20 -21 -21 -21 -21 -21 -21 -21 -21 -21 -22 -23 -24 -25 -26 -27 -27 -27 -26 -26 -26 -25 -25 -26
-15 -15 -15 -15 -15 -15 -15 -15 -16 -16 -16 -16 -16 -16 -16 -16 -16 -17 -17 -17 -17 -18 -18 -18 -18 -18 -19 -19 -19 -20 -20 -20 -20 -20 -21 -21 -21 -21 -22 -22 -22 -23 -24 -25 -25 -26 -26 -26 -26 -26 -26 -26 -26 -26
-16 -15 -15 -15 -15 -15 -15 -15 -16 -16 -16 -16 -16 -15 -16 -16 -16 -16 -16 -17 -17 -18 -18 -17 -18 -19 -19 -19 -19 -20 -20 -20 -20 -20 -21 -21 -21 -22 -22 -22 -22 -23 -24 -25 -25 -26 -27 -26 -26 -26 -26 -26 -26 -26
-16 -15 -15 -15 -15 -15 -15 -15 -15 -16 -16 -15 -15 -16 -16 -16 -16 -16 -16 -17 -17 -18 -17 -18 -18 -18 -19 -19 -19 -19 -19 -20 -20 -21 -21 -21 -22 -22 -22 -22 -23 -23 -24 -24 -25 -26 -26 -26 -26 -27 -26 -26 -27 -27
-15 -15 -15 -15 -15 -15 -15 -15 -16 -16 -16 -15 -16 -16 -16 -16 -16 -16 -17 -17 -17 -17 -17 -18 -18 -18 -18 -18 -18 -19 -19 -20 -20 -21 -21 -21 -22 -22 -22 -22 -23 -23 -23 -24 -25 -25 -26 -26 -26 -26 -26 -27 -27 -27
-15 -15 -15 -15 -15 -15 -15 -15 -16 -16 -16 -16 -16 -16 -16 -16 -16 -16 -17 -17 -17 -17 -17 -17 -17 -18 -18 -18 -18 -19 -19 -19 -20 -20 -21 -21 -22 -22 -22 -22 -22 -23 -23 -24 -24 -24 -25 -25 -25 -26 -26 -26 -26 -26
-15 -15 -15 -15 -15 -15 -15 -16 -16 -16 -16 -16 -15 -15 -16 -16 -16 -16 -16 -16 -17 -18 -17 -17 -18 -17 -17 -18 -18 -19 -19 -19 -20 -20 -20 -21 -21 -22 -22 -22 -22 -23 -23 -24 -24 -24 -24 -24 -25 -25 -25 -25 -26 -26
-15 -15 -15 -15 -15 -15 -16 -16 -16 -16 -16 -16 -15 -16 -16 -16 -16 -16 -16 -16 -17 -17 -17 -17 -17 -17 -17 -17 -18 -19 -19 -19 -20 -20 -21 -21 -21 -21 -22 -22 -22 -23 -23 -23 -23 -24 -24 -24 -24 -25 -25 -25 -25 -25
-15 -15 -15 -15 -15 -15 -16 -16 -16 -16 -16 -15 -16 -16 -16 -16 -16 -16 -16 -16 -16 -16 -16 -17 -17 -17 -17 -18 -18 -19 -19 -19 -19 -20 -20 -21 -21 -21 -21 -22 -22 -22 -23 -23 -23 -24 -24 -24 -24 -24 -24 -24 -24 -25
-15 -15 -15 -15 -15 -15 -15 -16 -16 -16 -16 -16 -16 -16 -16 -16 -16 -16 -16 -16 -16 -16 -16 -17 -17 -17 -17 -18 -18 -19 -19 -19 -19 -19 -20 -20 -21 -21 -21 -21 -22 -22 -23 -23 -23 -23 -23 -23 -24 -24 -24 -24 -24 -24
-15 -15 -16 -16 -15 -15 -15 -16 -16 -16 -16 -16 -16 -16 -16 -16 -16 -17 -17 -16 -16 -16 -16 -17 -17 -17 -17 -18 -18 -18 -19 -19 -19 -19 -20 -20 -20 -20 -21 -21 -21 -22 -22 -22 -22 -22 -23 -23 -23 -23 -23 -24 -24 -24
-16 -15 -15 -15 -15 -15 -15 -15 -15 -15 -16 -16 -15 -16 -16 -16 -16 -17 -17 -17 -17 -17 -17 -17 -17 -17 -18 -18 -18 -18 -18 -19 -19 -19 -20 -20 -20 -20 -21 -21 -21 -21 -22 -22 -22 -22 -22 -22 -23 -23 -23 -23 -23 -24
-16 -15 -16 -16 -16 -16 -15 -15 -15 -16 -16 -16 -16 -16 -16 -16 -16 -17 -16 -17 -17 -18 -17 -17 -18 -18 -18 -18 -18 -18 -18 -19 -19 -19 -19 -20 -20 -20 -21 -21 -21 -21 -22 -22 -22 -22 -22 -22 -22 -23 -23 -23 -23 -24

GFSWCAN_500_temp_078.txt.gz
Temp
-11 -11 -11 -12 -13 -13 -13 -13 -13 -14 -14 -16 -15 -15 -15 -15 -15 -15 -15 -15 -15 -15 -15 -15 -16 -16 -16 -16 -16 -16 -16 -16 -16 -16 -16 -16 -16 -16 -16 -15 -15 -15 -15 -15 -15 -15 -14 -14 -14 -14 -14 -14 -14 -14
-11 -11 -12 -13 -13 -13 -13 -13 -14 -14 -15 -16 -15 -15 -15 -15 -15 -15 -15 -15 -15 -15 -15 -15 -16 -16 -16 -16 -16 -16 -16 -16 -16 -16 -16 -16 -16 -16 -16 -16 -16 -16 -16 -16 -15 -15 -15 -15 -14 -14 -14 -14 -14 -14
-11 -11 -12 -13 -14 -14 -13 -14 -14 -14 -15 -15 -15 -15 -15 -15 -15 -15 -15 -15 -15 -15 -15 -15 -16 -16 -16 -16 -16 -16 -16 -16 -16 -17 -16 -16 -16 -17 -16 -16 -16 -16 -16 -16 -16 -16 -16 -16 -16 -15 -15 -15 -15 -15
-11 -12 -12 -13 -14 -13 -13 -14 -14 -14 -15 -16 -16 -15 -15 -15 -15 -15 -15 -15 -15 -15 -15 -16 -16 -16 -16 -16 -17 -17 -17 -17 -17 -17 -17 -17 -17 -17 -17 -17 -17 -17 -16 -16 -17 -17 -16 -16 -16 -16 -16 -17 -16 -16
-12 -13 -14 -14 -14 -13 -13 -14 -14 -14 -15 -16 -16 -15 -15 -15 -15 -15 -15 -15 -15 -15 -15 -16 -16 -16 -16 -16 -16 -16 -16 -17 -17 -17 -17 -17 -17 -17 -17 -17 -17 -17 -17 -17 -17 -17 -17 -17 -17 -17 -17 -17 -17 -17
-13 -14 -14 -13 -13 -13 -14 -14 -14 -15 -16 -15 -15 -15 -15 -15 -15 -15 -15 -15 -15 -16 -15 -15 -16 -16 -16 -16 -16 -17 -17 -18 -18 -18 -18 -18 -18 -18 -18 -18 -17 -17 -17 -17 -17 -17 -17 -17 -17 -17 -17 -17 -17 -17
-13 -14 -13 -13 -13 -13 -13 -14 -14 -15 -16 -15 -16 -15 -15 -15 -15 -15 -16 -16 -16 -15 -16 -16 -16 -16 -16 -16 -17 -17 -18 -18 -19 -19 -18 -18 -18 -18 -18 -19 -18 -18 -18 -18 -18 -18 -17 -17 -17 -17 -17 -17 -17 -17
-14 -13 -13 -13 -13 -13 -14 -14 -14 -15 -15 -15 -15 -15 -15 -15 -15 -15 -16 -16 -16 -16 -16 -16 -16 -16 -16 -17 -17 -18 -18 -18 -19 -19 -19 -19 -19 -18 -19 -19 -18 -18 -18 -18 -18 -18 -17 -18 -18 -18 -18 -18 -17 -17
-13 -13 -13 -13 -13 -14 -14 -14 -14 -16 -16 -16 -16 -15 -15 -15 -15 -15 -15 -16 -16 -16 -16 -16 -16 -16 -17 -17 -18 -18 -18 -19 -19 -19 -19 -19 -19 -19 -19 -20 -19 -19 -19 -18 -18 -18 -17 -18 -19 -18 -18 -18 -18 -18
-13 -13 -13 -13 -13 -13 -14 -14 -14 -16 -16 -16 -16 -15 -15 -15 -15 -15 -16 -16 -16 -16 -16 -16 -16 -16 -17 -17 -18 -18 -19 -19 -19 -19 -20 -20 -20 -20 -20 -20 -20 -20 -20 -19 -19 -18 -18 -18 -19 -19 -19 -19 -19 -19
-13 -13 -13 -13 -13 -14 -14 -14 -15 -16 -16 -16 -15 -15 -15 -16 -15 -16 -16 -16 -16 -16 -16 -16 -16 -17 -17 -18 -18 -19 -19 -19 -19 -20 -20 -20 -20 -20 -20 -20 -20 -19 -20 -19 -19 -19 -19 -19 -19 -19 -20 -20 -20 -20
-13 -13 -13 -14 -13 -13 -14 -15 -16 -16 -16 -16 -15 -16 -15 -16 -16 -16 -16 -16 -16 -16 -16 -16 -16 -17 -17 -18 -18 -19 -19 -19 -20 -20 -20 -20 -20 -20 -20 -20 -20 -20 -20 -20 -20 -20 -20 -20 -20 -20 -20 -20 -20 -20
-14 -13 -13 -13 -14 -14 -15 -16 -16 -16 -16 -16 -16 -15 -15 -15 -16 -16 -16 -16 -16 -16 -17 -16 -17 -17 -17 -18 -19 -19 -19 -20 -20 -20 -20 -20 -20 -20 -20 -20 -20 -20 -20 -20 -20 -20 -21 -21 -21 -21 -21 -21 -21 -21
-13 -13 -13 -13 -14 -15 -16 -16 -16 -16 -16 -16 -15 -15 -15 -16 -16 -16 -16 -16 -17 -17 -16 -17 -17 -17 -18 -18 -19 -19 -19 -20 -20 -20 -21 -21 -20 -21 -21 -21 -21 -21 -21 -21 -21 -21 -21 -21 -21 -21 -22 -22 -22 -22
-14 -14 -14 -15 -15 -16 -16 -16 -16 -16 -16 -16 -15 -15 -16 -16 -16 -16 -16 -16 -16 -17 -17 -17 -17 -17 -18 -18 -19 -19 -20 -20 -21 -21 -21 -21 -21 -21 -21 -21 -21 -21 -21 -21 -21 -22 -22 -22 -22 -22 -22 -22 -22 -22
-15 -15 -15 -16 -16 -16 -16 -16 -16 -16 -16 -16 -15 -16 -16 -16 -16 -16 -16 -16 -17 -17 -17 -17 -18 -18 -18 -18 -18 -19 -20 -20 -20 -20 -21 -21 -21 -21 -21 -21 -21 -21 -21 -21 -21 -22 -22 -22 -22 -23 -22 -22 -22 -22
-15 -15 -16 -16 -16 -16 -16 -16 -16 -16 -16 -16 -15 -16 -16 -16 -16 -16 -16 -17 -17 -17 -17 -17 -18 -18 -18 -18 -18 -19 -19 -20 -20 -20 -20 -21 -21 -21 -21 -21 -21 -21 -22 -22 -22 -22 -22 -23 -23 -23 -23 -23 -23 -23
-15 -16 -17 -16 -16 -16 -16 -16 -16 -16 -16 -15 -15 -16 -16 -16 -16 -16 -16 -17 -17 -17 -17 -17 -18 -18 -18 -18 -18 -19 -19 -20 -20 -20 -20 -20 -21 -21 -21 -21 -22 -22 -22 -22 -22 -23 -24 -24 -24 -24 -24 -23 -23 -23
-16 -17 -17 -16 -16 -16 -16 -16 -16 -16 -16 -15 -15 -15 -16 -16 -16 -16 -16 -17 -17 -17 -17 -18 -18 -18 -18 -18 -18 -18 -19 -19 -19 -20 -20 -20 -21 -21 -21 -21 -22 -22 -22 -22 -23 -24 -25 -25 -25 -26 -25 -25 -25 -24
-16 -16 -16 -16 -16 -16 -15 -16 -16 -16 -16 -15 -15 -15 -16 -16 -16 -16 -16 -17 -17 -17 -17 -17 -18 -17 -18 -18 -18 -18 -19 -19 -19 -20 -20 -20 -21 -21 -21 -21 -21 -22 -22 -23 -24 -25 -25 -26 -26 -26 -26 -25 -25 -25
-16 -16 -16 -16 -15 -15 -15 -15 -15 -15 -15 -15 -15 -16 -16 -15 -15 -15 -16 -17 -17 -17 -17 -17 -17 -17 -18 -18 -18 -18 -18 -19 -19 -20 -20 -20 -21 -21 -21 -21 -21 -22 -22 -23 -24 -25 -26 -26 -26 -25 -26 -26 -25 -25
-16 -16 -16 -15 -15 -15 -15 -15 -15 -15 -16 -16 -15 -15 -15 -15 -15 -15 -16 -16 -17 -17 -17 -17 -17 -18 -17 -17 -18 -18 -18 -18 -19 -19 -20 -20 -20 -21 -21 -21 -22 -22 -22 -23 -24 -24 -25 -25 -25 -25 -25 -26 -26 -26
-16 -16 -16 -16 -15 -15 -15 -15 -15 -15 -15 -15 -15 -15 -16 -15 -15 -16 -16 -16 -16 -16 -17 -17 -17 -18 -17 -17 -17 -18 -18 -18 -19 -19 -20 -20 -20 -20 -21 -21 -22 -22 -22 -23 -23 -24 -24 -25 -25 -26 -26 -26 -26 -26
-15 -16 -16 -16 -16 -15 -15 -15 -15 -15 -15 -15 -15 -16 -15 -16 -16 -16 -16 -16 -16 -16 -17 -17 -17 -17 -17 -17 -17 -18 -18 -18 -19 -19 -19 -20 -20 -20 -21 -21 -22 -22 -22 -22 -23 -23 -23 -24 -24 -25 -25 -25 -26 -26
-15 -16 -16 -16 -16 -16 -16 -16 -15 -15 -15 -16 -16 -15 -15 -16 -16 -16 -16 -17 -16 -16 -17 -17 -17 -17 -17 -17 -17 -18 -18 -18 -19 -19 -19 -20 -20 -20 -20 -21 -21 -22 -22 -22 -23 -23 -23 -24 -24 -24 -24 -25 -25 -25
-16 -16 -16 -16 -16 -16 -16 -16 -15 -16 -16 -16 -16 -16 -16 -16 -16 -16 -16 -16 -17 -16 -17 -17 -17 -17 -17 -18 -18 -18 -18 -18 -18 -19 -19 -19 -20 -20 -20 -21 -21 -21 -22 -22 -22 -23 -23 -23 -23 -24 -24 -24 -25 -25
-16 -16 -16 -16 -16 -16 -16 -16 -15 -16 -16 -16 -16 -16 -16 -16 -16 -16 -16 -16 -16 -16 -17 -17 -17 -17 -17 -17 -18 -18 -18 -18 -18 -18 -19 -19 -20 -20 -20 -21 -21 -21 -21 -22 -22 -22 -23 -23 -23 -24 -24 -24 -25 -25
-16 -16 -16 -16 -16 -16 -15 -15 -16 -16 -16 -16 -16 -16 -16 -16 -16 -16 -16 -16 -16 -16 -17 -17 -17 -17 -17 -17 -17 -17 -18 -18 -18 -18 -19 -19 -19 -20 -20 -20 -21 -21 -21 -21 -22 -22 -22 -22 -23 -23 -24 -24 -24 -25
-16 -16 -16 -16 -16 -16 -16 -16 -16 -16 -16 -16 -16 -16 -16 -16 -16 -16 -16 -16 -16 -17 -17 -17 -17 -17 -17 -17 -17 -17 -18 -18 -18 -19 -19 -19 -20 -20 -20 -20 -21 -21 -21 -21 -21 -22 -22 -22 -22 -23 -23 -24 -25 -25
-16 -16 -16 -16 -16 -16 -16 -16 -16 -16 -16 -16 -16 -16 -16 -16 -16 -16 -16 -16 -16 -17 -17 -17 -17 -17 -17 -17 -17 -17 -18 -18 -18 -19 -19 -19 -20 -21 -20 -20 -21 -21 -21 -21 -21 -21 -21 -22 -22 -23 -23 -24 -25 -25
-16 -16 -16 -16 -16 -16 -16 -16 -16 -16 -16 -16 -16 -16 -16 -16 -16 -16 -16 -16 -16 -16 -17 -17 -17 -17 -17 -17 -17 -17 -18 -18 -18 -19 -19 -19 -20 -19 -21 -21 -21 -21 -21 -21 -21 -21 -21 -22 -22 -22 -23 -24 -24 -24
-16 -16 -16 -16 -16 -16 -16 -16 -16 -16 -16 -16 -16 -16 -16 -16 -16 -16 -16 -16 -16 -16 -16 -17 -17 -16 -16 -17 -17 -17 -18 -19 -18 -19 -19 -19 -19 -19 -20 -21 -22 -21 -21 -21 -21 -21 -21 -22 -22 -22 -23 -23 -24 -24
-16 -16 -16 -16 -16 -16 -16 -16 -16 -16 -16 -16 -16 -16 -16 -16 -16 -16 -16 -16 -16 -16 -16 -17 -16 -16 -17 -17 -17 -18 -19 -18 -19 -19 -19 -19 -19 -19 -19 -20 -20 -21 -22 -21 -21 -22 -22 -21 -22 -22 -22 -23 -23 -23

GFSWCAN_500_temp_081.txt.gz
Temp
-11 -11 -11 -12 -12 -13 -13 -13 -13 -14 -14 -16 -16 -15 -15 -15 -15 -15 -15 -15 -15 -15 -16 -16 -16 -16 -16 -16 -16 -16 -16 -16 -16 -16 -16 -16 -16 -16 -15 -15 -15 -15 -15 -15 -15 -15 -15 -13 -15 -15 -14 -14 -13 -13
-11 -11 -12 -12 -12 -14 -14 -13 -13 -14 -14 -15 -16 -15 -15 -15 -15 -15 -15 -15 -15 -15 -15 -16 -16 -16 -16 -16 -16 -16 -16 -16 -16 -16 -16 -16 -16 -16 -16 -16 -16 -16 -15 -15 -15 -15 -14 -14 -14 -14 -15 -14 -14 -14
-11 -12 -12 -12 -13 -14 -14 -13 -14 -14 -14 -15 -16 -15 -15 -15 -15 -15 -15 -15 -15 -15 -15 -16 -16 -16 -16 -16 -16 -16 -16 -16 -17 -17 -17 -17 -17 -16 -16 -16 -16 -16 -16 -16 -16 -15 -15 -15 -14 -14 -14 -14 -14 -14
-12 -12 -12 -13 -13 -13 -13 -14 -14 -14 -15 -15 -16 -15 -15 -15 -15 -15 -15 -15 -15 -15 -15 -15 -16 -16 -16 -16 -16 -16 -16 -16 -16 -17 -17 -17 -16 -16 -17 -17 -17 -16 -16 -16 -16 -16 -16 -15 -15 -15 -15 -15 -14 -14
-12 -12 -13 -13 -13 -13 -13 -14 -14 -14 -15 -16 -16 -15 -16 -15 -15 -15 -15 -15 -15 -15 -15 -16 -16 -16 -16 -16 -16 -16 -17 -17 -17 -17 -17 -17 -17 -17 -17 -17 -17 -17 -17 -17 -17 -16 -16 -16 -16 -16 -16 -16 -16 -16
-13 -13 -14 -13 -13 -13 -13 -13 -14 -14 -15 -16 -16 -15 -15 -15 -15 -15 -15 -15 -15 -15 -16 -15 -16 -16 -16 -16 -16 -16 -17 -17 -18 -18 -18 -18 -18 -18 -18 -18 -18 -17 -17 -17 -17 -16 -17 -16 -17 -17 -17 -16 -16 -17
-13 -13 -13 -13 -13 -13 -14 -14 -14 -14 -15 -16 -15 -15 -15 -15 -15 -15 -15 -15 -16 -16 -15 -15 -16 -16 -16 -16 -16 -17 -17 -18 -18 -18 -19 -19 -18 -19 -18 -18 -18 -18 -17 -17 -17 -17 -18 -17 -17 -17 -17 -17 -17 -17
-13 -13 -13 -13 -13 -13 -13 -14 -14 -14 -15 -15 -15 -15 -15 -15 -15 -15 -15 -15 -15 -15 -15 -16 -16 -16 -16 -17 -17 -17 -18 -18 -18 -18 -19 -19 -19 -19 -19 -18 -18 -18 -18 -18 -18 -18 -18 -18 -17 -17 -18 -17 -17 -17
-13 -13 -13 -13 -13 -13 -14 -14 -14 -14 -16 -15 -15 -15 -15 -15 -15 -15 -15 -15 -15 -15 -16 -16 -16 -16 -16 -17 -17 -18 -18 -18 -19 -19 -19 -19 -19 -19 -19 -19 -19 -19 -19 -18 -18 -18 -18 -18 -18 -18 -17 -17 -18 -17
-13 -13 -12 -13 -13 -13 -14 -14 -14 -15 -15 -15 -15 -15 -16 -15 -15 -15 -15 -15 -15 -15 -16 -16 -16 -17 -17 -17 -17 -18 -18 -18 -19 -19 -19 -19 -19 -20 -20 -20 -20 -20 -19 -19 -19 -19 -19 -19 -18 -18 -18 -18 -19 -19
-13 -13 -13 -13 -14 -14 -14 -14 -14 -16 -15 -15 -15 -16 -15 -15 -15 -15 -15 -16 -15 -16 -16 -16 -17 -17 -17 -17 -17 -18 -18 -19 -19 -19 -20 -20 -20 -20 -20 -20 -20 -20 -19 -19 -19 -19 -19 -19 -19 -19 -19 -19 -19 -19
-13 -13 -13 -13 -14 -14 -14 -14 -15 -15 -15 -16 -16 -15 -15 -15 -16 -16 -15 -16 -16 -16 -16 -17 -17 -17 -17 -17 -18 -18 -18 -19 -19 -20 -20 -20 -20 -20 -20 -20 -20 -20 -20 -20 -20 -20 -20 -20 -20 -20 -20 -20 -20 -20
-13 -13 -13 -13 -14 -14 -14 -15 -15 -15 -16 -16 -15 -15 -15 -16 -16 -16 -16 -16 -16 -16 -16 -17 -17 -17 -17 -17 -18 -18 -19 -19 -19 -20 -20 -20 -20 -20 -20 -21 -20 -20 -20 -20 -20 -20 -20 -20 -20 -20 -20 -21 -21 -21
-13 -14 -13 -13 -14 -14 -15 -16 -15 -16 -16 -15 -15 -15 -16 -15 -16 -16 -16 -16 -16 -16 -17 -17 -17 -17 -17 -18 -18 -18 -19 -19 -19 -20 -20 -20 -21 -21 -21 -21 -21 -21 -21 -21 -21 -21 -21 -21 -21 -21 -21 -21 -21 -21
-14 -14 -14 -14 -15 -16 -16 -15 -15 -16 -15 -15 -15 -16 -16 -16 -15 -16 -16 -16 -16 -17 -17 -17 -17 -17 -17 -17 -18 -18 -18 -19 -19 -20 -20 -20 -20 -20 -20 -20 -21 -21 -21 -21 -21 -21 -21 -21 -21 -21 -21 -21 -21 -21
-15 -15 -15 -16 -16 -16 -16 -16 -16 -16 -15 -15 -16 -16 -16 -15 -15 -16 -16 -16 -16 -17 -17 -17 -17 -17 -17 -17 -18 -18 -18 -19 -19 -20 -20 -20 -20 -20 -20 -21 -21 -21 -21 -21 -21 -22 -22 -22 -22 -22 -22 -22 -22 -22
-15 -15 -16 -16 -16 -16 -16 -16 -16 -16 -16 -16 -16 -16 -15 -15 -16 -16 -16 -16 -16 -17 -17 -17 -17 -17 -17 -17 -18 -18 -18 -19 -19 -20 -20 -20 -20 -20 -20 -21 -21 -21 -21 -22 -22 -22 -22 -23 -23 -23 -23 -23 -23 -23
-15 -16 -16 -17 -16 -16 -16 -16 -16 -16 -16 -16 -16 -16 -15 -15 -15 -16 -16 -16 -16 -17 -17 -17 -17 -17 -17 -17 -17 -18 -18 -18 -19 -19 -20 -20 -20 -20 -20 -20 -21 -21 -21 -21 -22 -22 -23 -24 -25 -25 -25 -24 -24 -24
-15 -16 -17 -17 -16 -16 -16 -16 -16 -16 -16 -16 -16 -15 -15 -15 -15 -16 -16 -16 -16 -16 -17 -17 -17 -17 -17 -17 -17 -18 -18 -18 -18 -19 -19 -19 -20 -20 -20 -20 -21 -21 -21 -21 -22 -23 -24 -25 -25 -25 -25 -25 -25 -24
-16 -17 -17 -17 -16 -16 -16 -16 -16 -16 -16 -16 -15 -15 -15 -15 -15 -15 -16 -16 -16 -16 -16 -17 -16 -17 -17 -17 -17 -18 -18 -18 -18 -18 -19 -19 -20 -20 -20 -20 -21 -21 -21 -22 -22 -23 -24 -25 -25 -25 -26 -25 -25 -25
-16 -16 -16 -16 -16 -16 -15 -15 -15 -15 -16 -15 -15 -15 -15 -15 -15 -16 -16 -15 -16 -16 -16 -16 -16 -17 -17 -17 -17 -17 -18 -18 -18 -18 -19 -19 -20 -20 -20 -20 -20 -21 -21 -22 -22 -23 -23 -24 -24 -25 -24 -25 -25 -25
-16 -16 -16 -16 -16 -15 -15 -15 -15 -15 -16 -15 -15 -15 -15 -15 -15 -15 -15 -16 -16 -16 -16 -16 -16 -16 -17 -17 -17 -17 -17 -18 -18 -18 -19 -19 -20 -20 -20 -20 -20 -21 -21 -22 -22 -22 -23 -23 -24 -25 -25 -25 -25 -25
-16 -16 -16 -16 -16 -15 -15 -15 -15 -15 -15 -15 -15 -15 -15 -15 -15 -15 -16 -16 -16 -16 -16 -16 -16 -16 -16 -17 -17 -17 -17 -17 -18 -18 -19 -19 -19 -20 -20 -20 -20 -21 -21 -21 -22 -22 -22 -23 -23 -24 -24 -25 -25 -25
-16 -16 -16 -16 -16 -15 -15 -15 -15 -15 -15 -16 -16 -15 -16 -15 -16 -16 -16 -16 -16 -16 -16 -16 -16 -17 -17 -17 -17 -17 -17 -17 -18 -18 -18 -19 -19 -19 -20 -20 -20 -21 -21 -21 -21 -22 -22 -23 -23 -23 -24 -24 -25 -25
-16 -16 -16 -16 -16 -16 -16 -15 -15 -15 -15 -16 -16 -16 -16 -15 -16 -16 -16 -16 -16 -16 -16 -16 -16 -16 -17 -17 -17 -17 -18 -18 -18 -18 -18 -19 -19 -19 -20 -20 -20 -20 -21 -21 -21 -21 -22 -22 -23 -23 -24 -24 -24 -25
-16 -16 -16 -16 -16 -16 -16 -16 -15 -16 -16 -16 -16 -16 -16 -15 -16 -16 -16 -16 -16 -16 -16 -16 -16 -16 -17 -17 -17 -18 -18 -18 -17 -18 -18 -19 -19 -19 -20 -20 -20 -20 -20 -21 -21 -21 -22 -22 -23 -23 -24 -24 -24 -25
-16 -16 -16 -16 -16 -16 -16 -16 -16 -16 -16 -16 -16 -15 -15 -15 -16 -16 -16 -16 -16 -16 -16 -16 -17 -17 -17 -17 -17 -17 -18 -17 -18 -18 -18 -19 -19 -20 -20 -20 -20 -20 -20 -21 -21 -21 -21 -22 -22 -23 -24 -24 -25 -25
-16 -16 -16 -16 -16 -16 -15 -15 -15 -16 -16 -16 -16 -15 -15 -16 -16 -16 -16 -16 -16 -16 -16 -16 -17 -17 -17 -17 -17 -17 -17 -18 -17 -18 -18 -19 -19 -20 -21 -20 -20 -21 -21 -21 -21 -21 -21 -22 -22 -23 -24 -24 -25 -25
-16 -16 -16 -16 -16 -16 -15 -16 -16 -16 -16 -16 -16 -15 -16 -16 -16 -16 -16 -16 -16 -16 -16 -16 -16 -16 -16 -17 -17 -17 -17 -17 -18 -18 -19 -19 -19 -19 -20 -21 -21 -21 -21 -21 -21 -21 -21 -22 -22 -22 -23 -24 -24 -24
-16 -16 -16 -16 -15 -15 -16 -16 -16 -16 -16 -16 -16 -16 -16 -16 -15 -16 -16 -16 -16 -16 -16 -16 -16 -16 -16 -16 -16 -16 -17 -17 -18 -20 -19 -19 -19 -19 -20 -20 -21 -22 -21 -21 -21 -21 -21 -22 -22 -22 -23 -23 -23 -23
-16 -16 -15 -15 -16 -16 -16 -16 -16 -16 -16 -16 -15 -16 -16 -16 -15 -16 -16 -16 -16 -16 -16 -16 -16 -16 -16 -16 -16 -17 -17 -18 -18 -19 -19 -19 -19 -19 -19 -20 -20 -21 -21 -22 -21 -21 -21 -21 -22 -22 -22 -23 -23 -23
-15 -15 -15 -16 -16 -16 -16 -16 -16 -16 -16 -16 -16 -16 -16 -16 -16 -16 -16 -16 -16 -16 -16 -16 -16 -15 -16 -16 -16 -16 -17 -18 -19 -19 -19 -19 -19 -19 -19 -20 -20 -20 -22 -22 -22 -22 -22 -22 -22 -22 -22 -22 -23 -23
-16 -16 -16 -16 -16 -16 -16 -16 -16 -16 -16 -17 -16 -16 -16 -16 -16 -16 -16 -16 -16 -16 -16 -16 -15 -16 -17 -17 -17 -17 -17 -18 -19 -19 -19 -19 -19 -20 -20 -20 -20 -20 -20 -22 -22 -22 -22 -22 -22 -22 -22 -22 -23 -23

GFSWCAN_500_temp_084.txt.gz
Temp
-11 -11 -11 -11 -11 -12 -13 -14 -13 -13 -13 -14 -15 -15 -15 -15 -15 -15 -15 -15 -15 -15 -15 -16 -16 -16 -16 -16 -16 -16 -16 -16 -16 -16 -16 -16 -16 -16 -16 -16 -15 -16 -16 -16 -16 -18 -17 -15 -15 -15 -14 -15 -14 -13
-11 -12 -12 -12 -12 -13 -14 -13 -13 -13 -13 -15 -16 -15 -15 -15 -15 -15 -15 -15 -15 -15 -15 -15 -15 -16 -16 -16 -16 -16 -16 -16 -16 -16 -16 -16 -16 -16 -16 -16 -16 -16 -15 -15 -16 -15 -14 -13 -14 -15 -15 -15 -15 -15
-11 -12 -12 -12 -13 -13 -13 -13 -13 -13 -13 -15 -16 -16 -15 -15 -15 -15 -15 -15 -15 -15 -15 -15 -15 -16 -16 -16 -16 -16 -16 -16 -16 -16 -16 -16 -16 -16 -16 -16 -16 -16 -16 -16 -16 -15 -15 -14 -15 -15 -15 -15 -14 -14
-12 -12 -12 -13 -13 -13 -13 -13 -13 -14 -13 -14 -16 -16 -16 -15 -15 -15 -15 -15 -15 -15 -15 -15 -15 -15 -15 -16 -16 -16 -16 -16 -16 -16 -16 -16 -16 -16 -16 -16 -17 -16 -16 -16 -16 -16 -15 -16 -15 -15 -15 -15 -15 -14
-12 -12 -13 -13 -13 -13 -13 -13 -13 -13 -13 -15 -16 -16 -16 -15 -15 -15 -15 -15 -15 -15 -15 -15 -15 -16 -16 -16 -16 -16 -16 -16 -16 -16 -17 -17 -17 -17 -17 -17 -17 -17 -17 -17 -17 -16 -16 -16 -16 -16 -16 -15 -15 -15
-12 -12 -13 -13 -13 -13 -13 -13 -13 -13 -14 -15 -16 -15 -16 -15 -15 -15 -15 -15 -15 -15 -15 -15 -15 -15 -16 -16 -16 -16 -16 -17 -17 -17 -17 -17 -18 -18 -18 -18 -18 -17 -17 -17 -17 -17 -17 -17 -17 -17 -16 -16 -15 -15
-12 -13 -13 -13 -13 -13 -13 -13 -13 -14 -14 -15 -15 -15 -15 -15 -15 -15 -15 -15 -15 -15 -15 -15 -15 -16 -16 -16 -16 -16 -17 -17 -17 -17 -17 -18 -18 -18 -18 -19 -19 -18 -18 -18 -18 -17 -17 -17 -17 -17 -17 -17 -17 -16
-13 -13 -13 -13 -13 -13 -13 -13 -14 -14 -14 -15 -15 -15 -15 -15 -15 -15 -15 -15 -15 -15 -15 -15 -16 -16 -16 -16 -17 -17 -17 -17 -18 -18 -18 -18 -18 -19 -19 -19 -19 -19 -19 -18 -18 -18 -18 -17 -17 -17 -17 -17 -18 -18
-13 -13 -13 -13 -13 -13 -13 -13 -14 -14 -15 -15 -15 -15 -15 -15 -15 -15 -15 -15 -15 -15 -16 -16 -16 -16 -16 -17 -17 -17 -17 -17 -18 -18 -18 -19 -19 -19 -19 -19 -19 -19 -19 -19 -18 -18 -18 -18 -18 -18 -17 -17 -18 -18
-13 -13 -13 -13 -13 -13 -13 -14 -14 -14 -16 -15 -15 -15 -15 -15 -15 -15 -15 -16 -15 -15 -16 -16 -16 -17 -17 -16 -17 -17 -18 -18 -18 -18 -19 -19 -19 -19 -19 -19 -19 -19 -20 -20 -19 -19 -20 -19 -19 -18 -18 -18 -18 -18
-13 -13 -12 -13 -13 -13 -13 -14 -14 -15 -15 -15 -15 -15 -15 -15 -15 -15 -15 -15 -15 -15 -16 -16 -17 -17 -17 -17 -17 -17 -18 -18 -18 -19 -19 -19 -20 -20 -20 -20 -20 -19 -19 -20 -19 -19 -19 -19 -19 -19 -19 -19 -19 -18
-13 -13 -13 -13 -13 -14 -14 -14 -14 -15 -15 -15 -15 -15 -15 -15 -15 -15 -15 -16 -16 -16 -16 -16 -17 -17 -17 -17 -17 -17 -18 -18 -18 -19 -19 -19 -20 -20 -20 -20 -20 -20 -20 -20 -20 -20 -20 -20 -20 -19 -19 -19 -19 -19
-13 -12 -13 -13 -13 -13 -14 -14 -15 -15 -15 -15 -15 -15 -15 -15 -15 -16 -16 -16 -16 -16 -16 -16 -16 -16 -17 -17 -17 -17 -18 -18 -18 -19 -19 -19 -20 -20 -20 -20 -20 -20 -20 -20 -20 -20 -20 -20 -20 -20 -20 -20 -20 -20
-13 -13 -13 -13 -13 -14 -14 -15 -15 -15 -15 -15 -15 -15 -15 -15 -15 -15 -15 -16 -16 -16 -16 -16 -16 -16 -17 -17 -17 -17 -18 -18 -18 -19 -19 -20 -20 -20 -20 -20 -20 -20 -20 -20 -20 -20 -20 -20 -20 -20 -21 -21 -21 -21
-14 -14 -14 -14 -14 -15 -15 -15 -15 -15 -15 -15 -15 -15 -15 -15 -15 -15 -15 -16 -16 -16 -16 -16 -16 -16 -16 -16 -17 -17 -17 -18 -18 -19 -19 -19 -19 -20 -20 -20 -20 -20 -20 -21 -21 -21 -21 -21 -21 -21 -21 -21 -21 -20
-14 -14 -14 -15 -15 -16 -16 -15 -15 -15 -16 -15 -15 -15 -15 -15 -15 -15 -16 -16 -16 -16 -16 -16 -16 -16 -17 -17 -17 -17 -18 -18 -19 -18 -19 -19 -19 -20 -20 -20 -20 -20 -20 -21 -21 -21 -21 -21 -21 -21 -22 -22 -22 -22
-15 -15 -15 -16 -16 -16 -16 -15 -15 -15 -16 -16 -15 -15 -15 -15 -15 -15 -16 -16 -16 -16 -16 -16 -16 -16 -17 -17 -17 -17 -17 -18 -18 -18 -19 -19 -19 -19 -20 -20 -20 -20 -20 -20 -21 -21 -21 -21 -22 -23 -23 -23 -23 -23
-15 -15 -15 -16 -16 -16 -16 -16 -15 -15 -16 -16 -15 -15 -15 -15 -15 -15 -15 -15 -16 -16 -16 -16 -16 -16 -16 -16 -17 -17 -17 -18 -18 -19 -18 -19 -19 -19 -20 -20 -20 -20 -20 -20 -21 -21 -21 -22 -23 -24 -24 -24 -24 -24
-15 -15 -16 -17 -17 -16 -16 -16 -15 -16 -16 -16 -15 -15 -15 -15 -15 -15 -16 -15 -15 -15 -16 -16 -16 -16 -17 -17 -17 -17 -17 -17 -17 -18 -19 -19 -19 -19 -19 -20 -20 -20 -20 -20 -20 -21 -21 -22 -23 -24 -24 -24 -25 -24
-15 -16 -17 -17 -17 -16 -16 -16 -15 -16 -16 -15 -15 -15 -15 -15 -15 -15 -15 -15 -15 -15 -15 -15 -16 -15 -16 -16 -17 -17 -17 -17 -18 -18 -18 -18 -19 -19 -19 -19 -20 -20 -20 -20 -21 -21 -22 -22 -23 -24 -24 -24 -25 -25
-16 -16 -17 -17 -16 -16 -16 -15 -15 -15 -15 -15 -15 -15 -15 -15 -15 -14 -15 -15 -15 -16 -15 -15 -15 -16 -15 -16 -16 -17 -17 -17 -17 -17 -18 -18 -18 -18 -19 -20 -20 -20 -20 -20 -20 -21 -21 -22 -22 -23 -24 -24 -25 -24
-16 -16 -17 -16 -16 -16 -16 -15 -15 -15 -15 -15 -15 -15 -15 -15 -15 -15 -15 -15 -15 -15 -15 -16 -16 -16 -16 -16 -16 -17 -17 -17 -17 -17 -18 -18 -18 -19 -19 -19 -20 -20 -20 -20 -21 -21 -21 -21 -22 -23 -23 -24 -24 -24
-15 -16 -16 -16 -16 -16 -16 -15 -15 -15 -15 -15 -15 -15 -15 -15 -15 -15 -14 -15 -15 -15 -15 -16 -16 -16 -16 -16 -16 -16 -17 -17 -17 -17 -17 -18 -18 -19 -19 -19 -20 -20 -20 -20 -20 -21 -21 -21 -22 -22 -23 -24 -24 -24
-15 -16 -16 -16 -16 -16 -15 -15 -15 -15 -15 -15 -15 -15 -15 -15 -14 -14 -14 -14 -15 -13 -15 -15 -16 -16 -16 -16 -16 -16 -17 -17 -17 -17 -18 -18 -18 -19 -19 -19 -20 -20 -20 -20 -21 -21 -21 -21 -22 -22 -23 -24 -25 -25
-15 -16 -16 -16 -16 -16 -15 -15 -15 -15 -15 -15 -15 -15 -14 -13 -14 -14 -14 -15 -14 -15 -16 -15 -15 -16 -16 -16 -16 -16 -17 -17 -17 -17 -18 -18 -18 -19 -20 -19 -20 -20 -20 -20 -20 -20 -21 -21 -22 -23 -24 -24 -25 -25
-15 -15 -16 -16 -16 -16 -15 -15 -15 -15 -15 -15 -15 -14 -14 -15 -15 -15 -15 -15 -15 -15 -15 -15 -15 -15 -16 -16 -16 -16 -17 -17 -17 -17 -18 -18 -19 -19 -19 -20 -20 -20 -21 -21 -21 -21 -21 -21 -22 -23 -23 -24 -24 -25
-15 -16 -16 -16 -16 -16 -16 -15 -16 -16 -15 -15 -15 -14 -14 -15 -15 -14 -15 -16 -16 -16 -16 -16 -16 -16 -16 -16 -16 -16 -17 -17 -17 -17 -19 -19 -19 -19 -19 -20 -20 -21 -21 -21 -21 -21 -21 -21 -22 -22 -23 -23 -24 -24
-16 -16 -16 -16 -16 -16 -16 -16 -16 -15 -15 -15 -15 -15 -15 -15 -15 -15 -15 -14 -15 -16 -16 -16 -16 -16 -16 -16 -16 -16 -16 -16 -16 -17 -18 -19 -19 -19 -19 -19 -20 -21 -21 -21 -21 -21 -21 -21 -21 -22 -23 -23 -23 -23
-16 -16 -16 -16 -16 -16 -16 -15 -15 -15 -15 -15 -14 -14 -15 -15 -15 -15 -15 -16 -16 -15 -15 -16 -16 -16 -16 -16 -15 -16 -16 -16 -17 -17 -18 -19 -19 -19 -19 -19 -20 -20 -21 -22 -22 -22 -21 -21 -21 -22 -22 -23 -23 -23
-16 -16 -16 -16 -15 -15 -15 -15 -15 -15 -15 -15 -15 -16 -16 -16 -15 -15 -15 -15 -15 -16 -15 -15 -15 -15 -15 -16 -16 -16 -16 -16 -17 -18 -18 -18 -19 -19 -19 -19 -19 -19 -20 -21 -22 -22 -22 -21 -21 -22 -22 -23 -23 -23
-16 -16 -15 -15 -15 -15 -15 -15 -15 -15 -15 -15 -16 -16 -16 -15 -15 -16 -15 -15 -15 -15 -15 -15 -15 -15 -15 -16 -16 -16 -16 -17 -17 -19 -19 -19 -19 -19 -20 -20 -20 -20 -20 -21 -22 -22 -22 -22 -22 -22 -22 -22 -23 -23
-15 -15 -15 -15 -15 -15 -15 -15 -15 -15 -16 -16 -15 -15 -16 -16 -16 -16 -16 -16 -16 -15 -15 -16 -15 -15 -15 -16 -16 -16 -17 -17 -18 -18 -19 -19 -19 -19 -20 -20 -20 -20 -20 -20 -21 -22 -22 -21 -22 -22 -22 -22 -23 -23
-16 -16 -15 -15 -15 -15 -15 -15 -15 -16 -16 -16 -16 -16 -16 -16 -16 -16 -16 -16 -16 -16 -16 -16 -16 -16 -16 -17 -16 -17 -17 -18 -18 -18 -19 -19 -19 -20 -20 -20 -20 -20 -21 -21 -21 -21 -22 -22 -22 -22 -22 -22 -22 -22

GFSWCAN_500_temp_087.txt.gz
Temp
-11 -11 -11 -11 -11 -12 -12 -12 -13 -13 -13 -13 -14 -15 -15 -15 -15 -15 -15 -15 -15 -15 -15 -15 -15 -15 -16 -16 -16 -16 -16 -16 -16 -16 -16 -16 -16 -17 -16 -16 -16 -16 -15 -16 -16 -16 -16 -13 -14 -14 -15 -15 -13 -13
-11 -11 -11 -12 -12 -12 -12 -13 -13 -13 -14 -14 -15 -15 -15 -15 -15 -15 -15 -15 -15 -15 -15 -15 -15 -15 -16 -16 -16 -16 -16 -16 -16 -16 -16 -16 -16 -16 -17 -16 -16 -16 -16 -16 -16 -15 -14 -15 -15 -15 -15 -16 -16 -15
-11 -11 -11 -12 -12 -13 -13 -13 -13 -13 -13 -14 -15 -15 -15 -15 -15 -15 -15 -15 -15 -15 -15 -15 -15 -15 -15 -15 -15 -16 -16 -16 -16 -16 -16 -16 -16 -16 -16 -16 -17 -16 -16 -16 -16 -16 -15 -15 -15 -15 -16 -16 -16 -15
-11 -11 -12 -12 -13 -13 -13 -13 -13 -13 -13 -14 -15 -16 -15 -15 -15 -15 -15 -15 -15 -15 -15 -15 -15 -15 -15 -16 -16 -16 -16 -16 -16 -16 -16 -16 -16 -16 -17 -17 -17 -16 -17 -16 -16 -16 -15 -16 -16 -15 -16 -16 -16 -16
-11 -12 -12 -12 -13 -13 -13 -13 -13 -13 -13 -14 -14 -16 -16 -15 -15 -15 -15 -15 -15 -15 -15 -15 -15 -15 -15 -16 -16 -16 -16 -16 -16 -16 -16 -16 -16 -16 -17 -17 -17 -17 -17 -17 -17 -16 -15 -15 -16 -17 -16 -16 -15 -16
-12 -12 -12 -13 -13 -13 -13 -13 -13 -13 -14 -14 -15 -16 -15 -15 -15 -15 -15 -15 -15 -15 -15 -15 -15 -15 -16 -16 -16 -16 -16 -16 -17 -17 -17 -17 -17 -17 -17 -18 -18 -18 -18 -17 -18 -18 -18 -17 -17 -17 -17 -17 -16 -16
-12 -12 -13 -13 -13 -13 -13 -13 -13 -13 -14 -14 -15 -16 -15 -15 -15 -15 -15 -15 -15 -15 -15 -15 -15 -16 -16 -16 -16 -16 -16 -17 -17 -17 -17 -17 -17 -18 -18 -18 -18 -18 -18 -18 -18 -18 -18 -18 -17 -17 -17 -17 -17 -16
-12 -12 -13 -13 -13 -13 -13 -12 -13 -13 -14 -14 -15 -15 -15 -15 -15 -15 -15 -15 -15 -15 -15 -15 -16 -16 -17 -16 -16 -17 -17 -17 -17 -17 -18 -18 -18 -18 -18 -18 -18 -19 -19 -18 -18 -18 -18 -18 -18 -17 -17 -17 -17 -17
-12 -13 -13 -13 -13 -12 -13 -12 -13 -14 -14 -15 -15 -15 -15 -15 -15 -15 -15 -15 -15 -16 -16 -16 -16 -17 -17 -17 -16 -17 -17 -17 -18 -18 -18 -18 -18 -18 -19 -19 -19 -19 -19 -19 -19 -18 -18 -18 -18 -18 -18 -17 -17 -17
-13 -13 -13 -13 -12 -12 -13 -13 -13 -14 -14 -15 -15 -15 -15 -15 -15 -15 -15 -15 -16 -16 -16 -16 -16 -17 -16 -17 -17 -17 -17 -17 -18 -18 -18 -18 -18 -19 -19 -19 -19 -19 -19 -19 -19 -19 -19 -19 -19 -18 -18 -18 -18 -18
-13 -13 -13 -13 -12 -12 -13 -13 -13 -14 -14 -15 -15 -15 -15 -15 -15 -15 -15 -15 -16 -16 -16 -16 -16 -16 -16 -16 -16 -17 -17 -17 -18 -18 -18 -18 -19 -19 -19 -19 -20 -20 -20 -20 -20 -20 -20 -19 -19 -20 -19 -19 -19 -19
-13 -13 -12 -12 -12 -13 -13 -14 -14 -14 -15 -15 -15 -15 -15 -15 -15 -15 -15 -15 -15 -16 -16 -16 -16 -16 -16 -16 -16 -16 -17 -17 -17 -18 -18 -19 -19 -19 -19 -19 -20 -20 -20 -20 -20 -20 -20 -20 -20 -20 -20 -19 -19 -19
-13 -13 -12 -12 -13 -13 -13 -14 -14 -15 -15 -15 -15 -15 -15 -15 -15 -15 -15 -16 -16 -16 -16 -16 -16 -16 -16 -16 -16 -17 -17 -17 -17 -18 -18 -19 -19 -19 -19 -19 -19 -19 -19 -20 -20 -20 -20 -20 -20 -20 -20 -20 -20 -20
-13 -13 -13 -14 -14 -13 -14 -14 -15 -15 -15 -15 -15 -15 -15 -15 -15 -15 -15 -15 -16 -16 -15 -15 -15 -16 -16 -16 -16 -17 -17 -17 -17 -18 -18 -19 -19 -19 -19 -19 -20 -20 -20 -20 -20 -20 -20 -20 -21 -21 -21 -21 -20 -20
-14 -14 -14 -14 -14 -14 -15 -15 -15 -15 -15 -15 -15 -15 -15 -15 -15 -15 -15 -15 -15 -16 -16 -16 -16 -16 -16 -16 -16 -16 -16 -16 -17 -18 -18 -19 -19 -19 -19 -19 -19 -20 -20 -20 -20 -20 -20 -20 -20 -20 -20 -20 -21 -21
-14 -14 -14 -14 -14 -15 -15 -16 -15 -15 -15 -15 -15 -15 -15 -15 -15 -15 -15 -15 -15 -16 -15 -15 -15 -15 -16 -16 -16 -16 -16 -17 -17 -18 -18 -18 -18 -19 -19 -19 -19 -19 -20 -20 -20 -20 -20 -20 -20 -20 -20 -21 -21 -22
-15 -15 -15 -15 -16 -16 -16 -15 -15 -15 -15 -15 -15 -15 -15 -15 -15 -15 -15 -15 -15 -15 -15 -15 -15 -15 -16 -16 -16 -16 -16 -16 -17 -17 -17 -18 -18 -18 -19 -19 -19 -19 -20 -20 -20 -20 -20 -20 -20 -20 -21 -22 -23 -23
-15 -15 -15 -15 -16 -16 -16 -15 -15 -15 -15 -15 -15 -15 -15 -15 -15 -15 -15 -15 -15 -15 -15 -15 -15 -15 -16 -16 -16 -16 -16 -17 -16 -17 -18 -18 -18 -18 -19 -19 -19 -19 -19 -20 -20 -20 -20 -20 -21 -21 -21 -22 -23 -24
-15 -15 -15 -15 -16 -16 -16 -16 -15 -15 -15 -15 -15 -15 -15 -15 -15 -14 -15 -15 -15 -15 -15 -15 -15 -15 -15 -16 -16 -16 -17 -17 -17 -17 -17 -18 -17 -18 -18 -19 -19 -19 -19 -20 -20 -20 -20 -21 -21 -21 -22 -23 -24 -24
-15 -15 -15 -16 -17 -17 -17 -16 -15 -15 -15 -15 -15 -15 -15 -14 -14 -15 -15 -15 -15 -15 -15 -15 -15 -16 -16 -16 -16 -16 -17 -17 -17 -17 -17 -18 -18 -18 -18 -19 -19 -19 -19 -20 -20 -20 -20 -21 -21 -21 -22 -23 -23 -24
-15 -16 -16 -17 -17 -17 -16 -16 -15 -15 -15 -15 -15 -15 -14 -14 -15 -15 -15 -15 -15 -15 -15 -15 -16 -16 -16 -16 -16 -16 -16 -16 -17 -17 -16 -16 -17 -18 -18 -19 -19 -19 -19 -20 -20 -20 -20 -21 -21 -21 -22 -23 -23 -24
-15 -16 -16 -16 -17 -16 -16 -15 -15 -15 -15 -15 -15 -15 -15 -15 -15 -15 -15 -15 -15 -15 -15 -16 -16 -16 -16 -16 -16 -16 -16 -16 -17 -17 -17 -17 -17 -17 -18 -18 -19 -19 -19 -20 -20 -20 -20 -21 -21 -21 -22 -23 -24 -24
-15 -15 -15 -16 -16 -16 -15 -15 -15 -15 -15 -15 -15 -15 -15 -15 -15 -15 -14 -15 -15 -15 -16 -15 -15 -16 -16 -16 -16 -16 -16 -16 -17 -17 -17 -17 -17 -18 -18 -18 -19 -20 -20 -20 -20 -20 -21 -21 -21 -21 -22 -23 -25 -25
-15 -15 -15 -15 -16 -15 -15 -15 -15 -15 -15 -15 -15 -15 -15 -15 -15 -15 -15 -15 -15 -15 -15 -14 -15 -15 -15 -15 -16 -16 -16 -16 -17 -17 -17 -17 -18 -18 -18 -19 -19 -19 -20 -20 -20 -21 -21 -21 -21 -21 -22 -23 -24 -24
-15 -15 -15 -15 -15 -15 -15 -15 -15 -15 -15 -15 -15 -15 -15 -15 -14 -14 -15 -15 -14 -14 -15 -16 -15 -15 -16 -16 -17 -17 -16 -17 -17 -17 -16 -16 -17 -18 -19 -19 -19 -20 -20 -21 -21 -20 -20 -21 -21 -21 -22 -22 -23 -23
-15 -15 -15 -15 -15 -15 -15 -15 -15 -15 -15 -15 -15 -15 -15 -15 -15 -15 -14 -14 -15 -15 -15 -15 -15 -15 -16 -16 -16 -16 -16 -16 -16 -16 -16 -17 -17 -17 -19 -19 -19 -19 -20 -21 -21 -21 -21 -21 -21 -22 -22 -22 -22 -23
-15 -15 -15 -15 -15 -15 -16 -16 -15 -15 -15 -15 -15 -15 -14 -15 -15 -15 -15 -14 -15 -15 -15 -15 -15 -15 -15 -15 -15 -16 -17 -17 -16 -16 -16 -17 -17 -18 -18 -19 -19 -20 -20 -20 -21 -21 -21 -21 -21 -22 -22 -22 -22 -22
-15 -15 -15 -15 -15 -16 -16 -16 -15 -16 -16 -15 -15 -16 -15 -15 -15 -15 -14 -15 -15 -15 -15 -15 -15 -16 -16 -15 -16 -16 -16 -16 -16 -16 -17 -17 -17 -19 -19 -19 -19 -19 -20 -20 -21 -22 -22 -21 -21 -22 -22 -22 -22 -22
-15 -15 -15 -15 -16 -16 -16 -16 -16 -16 -16 -16 -15 -15 -15 -16 -16 -15 -15 -16 -16 -16 -16 -15 -14 -16 -16 -16 -16 -16 -16 -16 -16 -16 -17 -17 -18 -19 -19 -19 -19 -19 -20 -20 -21 -22 -22 -22 -22 -22 -22 -22 -23 -23
-15 -15 -15 -16 -16 -16 -16 -16 -16 -16 -16 -16 -15 -15 -15 -15 -15 -16 -16 -16 -16 -16 -16 -16 -15 -15 -15 -16 -16 -17 -16 -16 -16 -15 -17 -18 -18 -19 -19 -19 -20 -20 -20 -20 -21 -21 -22 -22 -22 -22 -22 -22 -22 -23
-15 -15 -16 -16 -16 -16 -16 -16 -16 -16 -16 -16 -15 -15 -15 -15 -15 -16 -15 -15 -16 -16 -16 -16 -15 -15 -15 -16 -16 -17 -17 -17 -17 -17 -18 -18 -18 -19 -19 -20 -20 -20 -20 -21 -21 -21 -21 -22 -22 -22 -22 -22 -22 -22
-16 -16 -15 -15 -15 -16 -16 -16 -16 -16 -15 -16 -16 -16 -15 -15 -15 -16 -16 -16 -16 -16 -15 -15 -16 -16 -16 -16 -17 -17 -18 -18 -18 -18 -18 -18 -19 -19 -20 -20 -20 -20 -20 -21 -21 -21 -21 -22 -22 -22 -21 -22 -22 -22
-16 -16 -16 -16 -16 -16 -16 -15 -15 -15 -16 -16 -16 -16 -16 -16 -16 -16 -16 -16 -16 -16 -16 -16 -17 -17 -17 -17 -18 -18 -18 -18 -18 -18 -19 -19 -19 -20 -20 -20 -20 -21 -21 -21 -21 -21 -21 -21 -22 -22 -22 -22 -22 -22